[[{"header":{"parameterUnit":"m.s-1","parameterCategory":1,"la1":31.0,"la2":29.5877,"lo1":-88.7671,"lo2":-86.6584,"dy":0.0162,"dx":0.0185,"nx":115,"ny":88,"refTime":"2026-03-05T00:00:00:Z","depth":0,"parameterNumber":2,"parameterNumberName":"U-component_of_WINDS"},"data":[0.0,0.0,0.0,0.0,0.0,0.0,0.0,0.0,0.0,0.0,0.0,0.0,0.0,0.0,0.0,0.0,0.0,0.0,0.0,0.0,0.0,0.0,0.0,0.0,0.0,0.0,0.0,0.0,0.0,0.0,0.0,0.0,0.0,0.0,0.0,0.0,0.0,0.0,0.0,0.0,0.0,0.0,0.0,0.0,0.0,0.0,0.0,0.0,0.0,0.0,0.0,0.0,0.0,0.0,0.0,0.0,0.0,0.0,0.0,0.0,0.0,0.0,0.0,0.0,0.0,0.0,0.0,0.0,0.0,0.0,0.0,0.0,0.0,0.0,0.0,0.0,0.0,0.0,0.0,0.0,0.0,0.0,0.0,0.0,0.0,0.0,0.0,0.0,0.0,0.0,0.0,0.0,0.0,0.0,0.0,0.0,0.0,0.0,0.0,0.0,0.0,0.0,0.0,0.0,0.0,0.0,0.0,0.0,0.0,0.0,0.0,0.0,0.0,0.0,0.0,0.0,0.0,0.0,0.0,0.0,0.0,0.0,0.0,0.0,0.0,0.0,0.0,0.0,0.0,0.0,0.0,0.0,0.0,0.0,0.0,0.0,0.0,0.0,0.0,0.0,0.0,0.0,0.0,0.0,0.0,0.0,0.0,0.0,0.0,0.0,0.0,0.0,0.0,0.0,0.0,0.0,0.0,0.0,0.0,0.0,0.0,0.0,0.0,0.0,0.0,0.0,0.0,0.0,0.0,0.0,0.0,0.0,0.0,0.0,0.0,0.0,0.0,0.0,0.0,0.0,0.0,0.0,0.0,0.0,0.0,0.0,0.0,0.0,0.0,0.0,0.0,0.0,0.0,0.0,0.0,0.0,0.0,0.0,0.0,0.0,0.0,0.0,0.0,0.0,0.0,0.0,0.0,0.0,0.0,0.0,0.0,0.0,0.0,0.0,0.0,0.0,0.0,0.0,0.0,0.0,0.0,0.0,0.0,0.0,0.0,0.0,0.0,0.0,0.0,0.0,0.0,0.0,0.0,0.0,0.0,0.0,0.0,0.0,0.0,0.0,0.0,0.0,0.0,0.0,0.0,0.0,0.0,0.0,0.0,0.0,0.0,0.0,0.0,0.0,0.0,0.0,0.0,0.0,0.0,0.0,0.0,0.0,0.0,0.0,0.0,0.0,0.0,0.0,0.0,0.0,0.0,0.0,0.0,0.0,0.0,0.0,0.0,0.0,0.0,0.0,0.0,0.0,0.0,0.0,0.0,0.0,0.0,0.0,0.0,0.0,0.0,0.0,0.0,0.0,0.0,0.0,0.0,0.0,0.0,0.0,0.0,0.0,0.0,0.0,0.0,0.0,0.0,0.0,0.0,0.0,0.0,0.0,0.0,0.0,0.0,0.0,0.0,0.0,0.0,0.0,0.0,0.0,0.0,0.0,0.0,0.0,0.0,0.0,0.0,0.0,0.0,0.0,0.0,0.0,0.0,0.0,0.0,0.0,0.0,0.0,0.0,0.0,0.0,0.0,0.0,0.0,0.0,0.0,0.0,0.0,0.0,0.0,0.0,0.0,0.0,0.0,0.0,0.0,0.0,0.0,0.0,0.0,0.0,0.0,0.0,0.0,0.0,0.0,0.0,0.0,0.0,0.0,0.0,0.0,0.0,0.0,0.0,0.0,0.0,0.0,0.0,0.0,0.0,0.0,0.0,0.0,0.0,0.0,0.0,0.0,0.0,0.0,0.0,0.0,0.0,0.0,0.0,0.0,0.0,0.0,0.0,0.0,0.0,0.0,0.0,0.0,0.0,0.0,0.0,0.0,0.0,0.0,0.0,0.0,0.0,0.0,0.0,0.0,0.0,0.0,0.0,0.0,0.0,0.0,0.0,0.0,0.0,0.0,0.0,0.0,0.0,0.0,0.0,0.0,0.0,0.0,0.0,0.0,0.0,0.0,0.0,0.0,0.0,0.0,0.0,0.0,0.0,0.0,0.0,0.0,0.0,0.0,0.0,0.0,0.0,0.0,0.0,0.0,0.0,0.0,0.0,0.0,0.0,0.0,0.0,0.0,0.0,0.0,0.0,0.0,0.0,0.0,0.0,0.0,0.0,0.0,0.0,0.0,0.0,0.0,0.0,0.0,0.0,0.0,0.0,0.0,0.0,0.0,0.0,0.0,0.0,0.0,0.0,0.0,0.0,0.0,0.0,0.0,0.0,0.0,0.0,0.0,0.0,0.0,0.0,0.0,0.0,0.0,0.0,0.0,0.0,0.0,0.0,0.0,0.0,0.0,0.0,0.0,0.0,0.0,0.0,0.0,0.0,0.0,0.0,0.0,0.0,0.0,0.0,0.0,0.0,0.0,0.0,0.0,0.0,0.0,0.0,0.0,0.0,0.0,0.0,0.0,0.0,0.0,0.0,0.0,0.0,0.0,0.0,0.0,0.0,0.0,0.0,0.0,0.0,0.0,0.0,0.0,0.0,0.0,0.0,0.0,0.0,0.0,0.0,0.0,0.0,0.0,0.0,0.0,0.0,0.0,0.0,0.0,0.0,0.0,0.0,0.0,0.0,0.0,0.0,0.0,0.0,0.0,0.0,0.0,0.0,0.0,0.0,0.0,0.0,0.0,0.0,0.0,0.0,0.0,0.0,0.0,0.0,0.0,0.0,0.0,0.0,0.0,0.0,0.0,0.0,0.0,0.0,0.0,0.0,0.0,0.0,0.0,0.0,0.0,0.0,0.0,0.0,0.0,0.0,0.0,0.0,0.0,0.0,0.0,0.0,0.0,0.0,0.0,0.0,0.0,0.0,0.0,0.0,0.0,0.0,0.0,0.0,0.0,0.0,0.0,0.0,0.0,0.0,0.0,0.0,0.0,0.0,0.0,0.0,0.0,0.0,0.0,0.0,0.0,0.0,0.0,0.0,0.0,0.0,0.0,0.0,0.0,0.0,0.0,0.0,0.0,0.0,0.0,0.0,0.0,0.0,0.0,0.0,0.0,0.0,0.0,0.0,0.0,0.0,0.0,0.0,0.0,0.0,0.0,0.0,0.0,0.0,0.0,0.0,0.0,0.0,0.0,0.0,0.0,0.0,0.0,0.0,0.0,0.0,0.0,0.0,0.0,0.0,0.0,0.0,0.0,0.0,0.0,0.0,0.0,0.0,0.0,0.0,0.0,0.0,0.0,0.0,0.0,0.0,0.0,0.0,0.0,0.0,0.0,0.0,0.0,0.0,0.0,0.0,0.0,0.0,0.0,0.0,0.0,0.0,0.0,0.0,0.0,0.0,0.0,0.0,0.0,0.0,0.0,0.0,0.0,0.0,0.0,0.0,0.0,0.0,0.0,0.0,0.0,0.0,0.0,0.0,0.0,0.0,0.0,0.0,0.0,0.0,0.0,0.0,0.0,0.0,0.0,0.0,0.0,0.0,0.0,0.0,0.0,0.0,0.0,0.0,0.0,0.0,0.0,0.0,0.0,0.0,0.0,0.0,0.0,0.0,0.0,0.0,0.0,0.0,0.0,0.0,0.0,0.0,0.0,0.0,0.0,0.0,0.0,0.0,0.0,0.0,0.0,0.0,0.0,0.0,0.0,0.0,0.0,0.0,0.0,0.0,0.0,0.0,0.0,0.0,0.0,0.0,0.0,0.0,0.0,0.0,0.0,0.0,0.0,0.0,0.0,0.0,0.0,0.0,0.0,0.0,0.0,0.0,0.0,0.0,0.0,0.0,0.0,0.0,0.0,0.0,0.0,0.0,0.0,0.0,0.0,0.0,0.0,0.0,0.0,0.0,0.0,0.0,0.0,0.0,0.0,0.0,0.0,0.0,0.0,0.0,0.0,0.0,0.0,0.0,0.0,0.0,0.0,0.0,0.0,0.0,0.0,0.0,0.0,0.0,0.0,0.0,0.0,0.0,0.0,0.0,0.0,0.0,0.0,0.0,0.0,0.0,0.0,0.0,0.0,0.0,0.0,0.0,0.0,0.0,0.0,0.0,0.0,0.0,0.0,0.0,0.0,0.0,0.0,0.0,0.0,0.0,0.0,0.0,0.0,0.0,0.0,0.0,0.0,0.0,0.0,0.0,0.0,0.0,0.0,0.0,0.0,0.0,0.0,0.0,0.0,0.0,0.0,0.0,0.0,0.0,0.0,0.0,0.0,0.0,0.0,0.0,0.0,0.0,0.0,0.0,0.0,0.0,0.0,0.0,0.0,0.0,0.0,0.0,0.0,0.0,0.0,0.0,0.0,0.0,0.0,0.0,0.0,0.0,0.0,0.0,0.0,-3.0489,0.0,0.0,0.0,0.0,0.0,0.0,0.0,0.0,0.0,0.0,0.0,0.0,0.0,0.0,0.0,0.0,0.0,0.0,0.0,0.0,0.0,0.0,0.0,0.0,0.0,0.0,0.0,0.0,0.0,0.0,0.0,0.0,0.0,0.0,0.0,0.0,0.0,0.0,0.0,0.0,0.0,0.0,0.0,0.0,0.0,0.0,0.0,0.0,0.0,0.0,0.0,0.0,0.0,0.0,0.0,0.0,0.0,0.0,0.0,0.0,0.0,0.0,0.0,0.0,0.0,0.0,0.0,0.0,0.0,0.0,0.0,0.0,0.0,0.0,0.0,0.0,0.0,0.0,0.0,0.0,0.0,0.0,0.0,0.0,0.0,0.0,0.0,0.0,0.0,0.0,0.0,0.0,0.0,0.0,0.0,0.0,0.0,0.0,0.0,0.0,0.0,0.0,0.0,0.0,0.0,0.0,0.0,0.0,0.0,0.0,-3.4262,-3.4462,-3.3398,-3.2448,-3.1686,0.0,0.0,0.0,0.0,0.0,0.0,0.0,0.0,0.0,0.0,0.0,0.0,0.0,0.0,0.0,0.0,0.0,0.0,0.0,0.0,0.0,0.0,0.0,0.0,0.0,0.0,0.0,0.0,0.0,0.0,0.0,0.0,0.0,0.0,0.0,0.0,0.0,0.0,0.0,0.0,0.0,0.0,0.0,0.0,0.0,0.0,0.0,0.0,0.0,0.0,0.0,0.0,0.0,0.0,0.0,0.0,0.0,0.0,0.0,0.0,0.0,0.0,0.0,0.0,0.0,0.0,0.0,0.0,0.0,0.0,0.0,0.0,0.0,0.0,0.0,0.0,0.0,0.0,0.0,0.0,0.0,0.0,0.0,0.0,0.0,0.0,0.0,0.0,0.0,0.0,0.0,0.0,0.0,0.0,0.0,0.0,0.0,0.0,0.0,0.0,0.0,0.0,0.0,0.0,0.0,0.0,0.0,0.0,0.0,0.0,0.0,0.0,-3.417,-3.3216,-3.1951,0.0,0.0,0.0,0.0,0.0,0.0,0.0,0.0,0.0,0.0,0.0,0.0,0.0,0.0,0.0,0.0,0.0,0.0,0.0,0.0,0.0,0.0,0.0,0.0,0.0,0.0,0.0,0.0,0.0,0.0,0.0,0.0,0.0,0.0,0.0,0.0,0.0,0.0,0.0,0.0,0.0,0.0,0.0,0.0,0.0,0.0,0.0,0.0,0.0,0.0,0.0,0.0,0.0,0.0,0.0,0.0,0.0,0.0,0.0,0.0,0.0,0.0,0.0,0.0,0.0,0.0,0.0,0.0,0.0,0.0,0.0,0.0,0.0,0.0,0.0,0.0,0.0,0.0,0.0,0.0,0.0,0.0,0.0,0.0,0.0,0.0,0.0,0.0,0.0,0.0,0.0,0.0,0.0,0.0,0.0,0.0,0.0,0.0,0.0,0.0,0.0,0.0,0.0,0.0,0.0,0.0,0.0,0.0,0.0,0.0,-3.4923,-3.4883,-3.417,0.0,-2.9897,0.0,0.0,0.0,0.0,0.0,0.0,0.0,0.0,0.0,0.0,0.0,0.0,0.0,0.0,0.0,0.0,0.0,0.0,0.0,0.0,0.0,0.0,0.0,0.0,0.0,0.0,0.0,0.0,0.0,0.0,0.0,0.0,0.0,0.0,0.0,0.0,0.0,0.0,0.0,0.0,0.0,0.0,0.0,0.0,0.0,0.0,0.0,0.0,0.0,0.0,0.0,0.0,0.0,0.0,0.0,0.0,0.0,0.0,0.0,0.0,0.0,0.0,0.0,0.0,0.0,0.0,0.0,0.0,0.0,0.0,0.0,0.0,0.0,0.0,0.0,0.0,0.0,0.0,0.0,0.0,0.0,0.0,0.0,0.0,0.0,0.0,0.0,0.0,0.0,0.0,0.0,0.0,0.0,0.0,0.0,0.0,0.0,0.0,0.0,0.0,0.0,0.0,0.0,0.0,0.0,0.0,0.0,0.0,0.0,0.0,-3.4899,-3.4899,-3.3763,-3.2166,0.0,0.0,0.0,0.0,0.0,0.0,0.0,0.0,0.0,0.0,0.0,0.0,0.0,0.0,0.0,0.0,0.0,0.0,0.0,0.0,0.0,0.0,0.0,0.0,0.0,0.0,0.0,0.0,0.0,0.0,0.0,0.0,0.0,0.0,0.0,0.0,0.0,0.0,0.0,0.0,0.0,0.0,0.0,0.0,0.0,0.0,0.0,0.0,0.0,0.0,0.0,0.0,0.0,0.0,0.0,0.0,0.0,0.0,0.0,0.0,0.0,0.0,0.0,0.0,0.0,0.0,0.0,0.0,0.0,0.0,0.0,0.0,0.0,0.0,0.0,0.0,0.0,0.0,0.0,0.0,0.0,0.0,0.0,0.0,0.0,0.0,0.0,0.0,0.0,0.0,0.0,0.0,0.0,0.0,0.0,0.0,0.0,0.0,0.0,0.0,0.0,0.0,0.0,0.0,0.0,0.0,0.0,0.0,0.0,0.0,-3.4899,-3.48,-3.4535,-3.3342,-3.1918,-3.0257,0.0,0.0,0.0,0.0,0.0,0.0,0.0,0.0,0.0,0.0,0.0,0.0,0.0,0.0,0.0,0.0,0.0,0.0,0.0,0.0,0.0,0.0,0.0,0.0,0.0,0.0,0.0,0.0,0.0,0.0,0.0,0.0,0.0,0.0,0.0,0.0,0.0,0.0,0.0,0.0,0.0,0.0,0.0,0.0,0.0,0.0,0.0,0.0,0.0,0.0,0.0,0.0,0.0,0.0,0.0,0.0,0.0,0.0,0.0,0.0,0.0,0.0,0.0,0.0,0.0,0.0,0.0,0.0,0.0,0.0,0.0,0.0,0.0,0.0,0.0,0.0,0.0,0.0,0.0,0.0,0.0,0.0,0.0,0.0,0.0,0.0,0.0,0.0,0.0,0.0,0.0,0.0,0.0,0.0,0.0,0.0,0.0,0.0,0.0,0.0,0.0,0.0,0.0,0.0,0.0,0.0,0.0,0.0,0.0,-3.4866,-3.4551,-3.3856,-3.3077,-3.1669,0.0,0.0,0.0,0.0,0.0,0.0,0.0,0.0,0.0,0.0,0.0,0.0,0.0,0.0,0.0,0.0,0.0,0.0,0.0,0.0,0.0,0.0,0.0,0.0,0.0,0.0,0.0,0.0,0.0,0.0,0.0,0.0,0.0,0.0,0.0,0.0,0.0,0.0,0.0,0.0,0.0,0.0,0.0,0.0,0.0,0.0,0.0,0.0,0.0,0.0,0.0,0.0,0.0,0.0,0.0,0.0,0.0,0.0,0.0,0.0,0.0,0.0,0.0,0.0,0.0,0.0,0.0,0.0,0.0,0.0,0.0,0.0,0.0,0.0,0.0,0.0,0.0,0.0,0.0,0.0,0.0,0.0,0.0,0.0,0.0,0.0,0.0,0.0,0.0,0.0,0.0,0.0,0.0,0.0,0.0,0.0,0.0,0.0,0.0,0.0,0.0,0.0,0.0,0.0,0.0,0.0,0.0,0.0,0.0,-3.3531,-3.3475,-3.3381,-3.31,-3.2354,-3.112,0.0,0.0,0.0,0.0,0.0,0.0,0.0,0.0,0.0,0.0,0.0,0.0,0.0,0.0,0.0,0.0,0.0,0.0,0.0,0.0,0.0,0.0,0.0,0.0,0.0,0.0,0.0,0.0,0.0,0.0,0.0,0.0,0.0,0.0,0.0,0.0,0.0,0.0,0.0,0.0,0.0,0.0,0.0,0.0,0.0,0.0,0.0,0.0,0.0,0.0,0.0,0.0,0.0,0.0,0.0,0.0,0.0,0.0,0.0,0.0,0.0,0.0,0.0,0.0,0.0,0.0,0.0,0.0,0.0,0.0,0.0,0.0,0.0,0.0,0.0,0.0,0.0,0.0,0.0,0.0,0.0,0.0,0.0,0.0,0.0,0.0,0.0,0.0,0.0,0.0,0.0,0.0,0.0,0.0,0.0,0.0,0.0,0.0,0.0,0.0,0.0,0.0,0.0,0.0,0.0,0.0,0.0,0.0,0.0,-3.2668,0.0,-3.2513,0.0,-3.1726,-3.0613,0.0,0.0,0.0,0.0,0.0,0.0,0.0,0.0,0.0,0.0,0.0,0.0,0.0,0.0,0.0,0.0,0.0,0.0,0.0,0.0,0.0,0.0,0.0,0.0,0.0,0.0,0.0,0.0,0.0,0.0,0.0,0.0,0.0,0.0,0.0,0.0,0.0,0.0,0.0,0.0,0.0,0.0,0.0,0.0,0.0,0.0,0.0,0.0,0.0,0.0,0.0,0.0,0.0,0.0,0.0,0.0,0.0,0.0,0.0,0.0,0.0,0.0,0.0,0.0,0.0,0.0,0.0,0.0,0.0,0.0,0.0,0.0,0.0,0.0,0.0,0.0,0.0,0.0,0.0,0.0,0.0,0.0,0.0,0.0,0.0,0.0,0.0,0.0,0.0,0.0,0.0,0.0,0.0,0.0,0.0,0.0,0.0,0.0,0.0,0.0,0.0,0.0,0.0,0.0,0.0,0.0,0.0,0.0,-3.258,-3.2467,-3.2434,-3.2044,-3.1325,-3.1276,-3.0254,0.0,0.0,0.0,0.0,0.0,0.0,0.0,0.0,0.0,0.0,0.0,0.0,0.0,0.0,0.0,0.0,0.0,0.0,0.0,0.0,0.0,0.0,0.0,0.0,0.0,0.0,0.0,0.0,0.0,0.0,0.0,0.0,0.0,0.0,0.0,0.0,0.0,0.0,0.0,0.0,0.0,0.0,0.0,0.0,0.0,0.0,0.0,0.0,0.0,0.0,0.0,0.0,0.0,0.0,0.0,0.0,0.0,0.0,0.0,0.0,0.0,0.0,0.0,0.0,0.0,0.0,0.0,0.0,0.0,0.0,0.0,0.0,0.0,0.0,0.0,0.0,0.0,0.0,0.0,0.0,0.0,0.0,0.0,0.0,0.0,0.0,0.0,0.0,0.0,0.0,0.0,0.0,0.0,0.0,0.0,0.0,0.0,0.0,0.0,0.0,0.0,0.0,0.0,0.0,0.0,0.0,0.0,0.0,0.0,-3.0926,-3.0909,-3.0789,-3.0571,-3.0446,-2.9619,0.0,0.0,0.0,0.0,0.0,0.0,0.0,0.0,0.0,0.0,0.0,0.0,0.0,0.0,0.0,0.0,0.0,0.0,0.0,0.0,0.0,0.0,0.0,0.0,0.0,0.0,0.0,0.0,0.0,0.0,0.0,0.0,0.0,0.0,0.0,0.0,0.0,0.0,0.0,0.0,0.0,0.0,0.0,0.0,0.0,0.0,0.0,0.0,0.0,0.0,0.0,0.0,0.0,0.0,0.0,0.0,0.0,0.0,0.0,0.0,0.0,0.0,0.0,0.0,0.0,0.0,0.0,0.0,0.0,0.0,0.0,0.0,0.0,0.0,0.0,0.0,0.0,0.0,0.0,0.0,0.0,0.0,0.0,0.0,0.0,0.0,0.0,0.0,0.0,0.0,0.0,0.0,0.0,0.0,0.0,0.0,0.0,0.0,0.0,0.0,0.0,0.0,0.0,0.0,0.0,0.0,0.0,0.0,0.0,-3.0135,-3.0535,-3.0731,-3.0719,-3.0376,-2.9674,-2.8572,0.0,0.0,0.0,0.0,0.0,0.0,0.0,0.0,0.0,0.0,0.0,0.0,0.0,0.0,0.0,0.0,0.0,0.0,0.0,0.0,0.0,0.0,0.0,0.0,0.0,0.0,0.0,0.0,0.0,0.0,0.0,0.0,0.0,0.0,0.0,0.0,0.0,0.0,0.0,0.0,0.0,0.0,0.0,0.0,0.0,0.0,0.0,0.0,0.0,0.0,0.0,0.0,0.0,0.0,0.0,0.0,0.0,0.0,0.0,0.0,0.0,0.0,0.0,0.0,0.0,0.0,0.0,0.0,0.0,0.0,0.0,0.0,0.0,0.0,0.0,0.0,0.0,0.0,0.0,0.0,0.0,0.0,0.0,0.0,0.0,0.0,0.0,0.0,0.0,0.0,0.0,0.0,0.0,0.0,0.0,0.0,0.0,0.0,0.0,0.0,0.0,0.0,0.0,0.0,0.0,0.0,0.0,0.0,-3.004,-3.1165,-3.1694,-3.1534,-3.0831,-3.019,0.0,0.0,0.0,0.0,0.0,0.0,0.0,0.0,0.0,0.0,0.0,0.0,0.0,0.0,0.0,0.0,0.0,0.0,0.0,0.0,0.0,0.0,0.0,0.0,0.0,0.0,0.0,0.0,0.0,0.0,0.0,0.0,0.0,0.0,0.0,0.0,0.0,0.0,0.0,0.0,0.0,0.0,0.0,0.0,0.0,0.0,0.0,0.0,0.0,0.0,0.0,0.0,0.0,0.0,0.0,0.0,0.0,0.0,0.0,0.0,0.0,0.0,0.0,0.0,0.0,0.0,0.0,0.0,0.0,0.0,0.0,0.0,0.0,0.0,0.0,0.0,0.0,0.0,0.0,0.0,0.0,0.0,0.0,0.0,0.0,0.0,0.0,0.0,0.0,0.0,0.0,0.0,0.0,0.0,0.0,0.0,0.0,0.0,0.0,0.0,0.0,0.0,0.0,0.0,0.0,0.0,0.0,0.0,0.0,-3.1647,-3.2256,-3.2117,-3.1114,-3.0399,-2.984,0.0,0.0,0.0,0.0,0.0,0.0,0.0,0.0,0.0,0.0,0.0,0.0,0.0,0.0,0.0,0.0,0.0,0.0,0.0,0.0,0.0,0.0,0.0,0.0,0.0,0.0,0.0,0.0,0.0,0.0,0.0,0.0,0.0,0.0,0.0,0.0,0.0,0.0,0.0,0.0,0.0,0.0,0.0,0.0,0.0,0.0,0.0,0.0,0.0,0.0,0.0,0.0,0.0,0.0,0.0,0.0,0.0,0.0,0.0,0.0,0.0,0.0,0.0,0.0,0.0,0.0,0.0,0.0,0.0,0.0,0.0,0.0,0.0,0.0,0.0,0.0,0.0,0.0,0.0,0.0,0.0,0.0,0.0,0.0,0.0,0.0,0.0,0.0,0.0,0.0,0.0,0.0,0.0,0.0,0.0,0.0,0.0,0.0,0.0,0.0,0.0,0.0,0.0,0.0,0.0,0.0,0.0,0.0,-3.1271,-3.1851,-3.2555,-3.2597,-3.1882,-3.1189,-3.0487,0.0,0.0,0.0,0.0,0.0,0.0,0.0,0.0,0.0,0.0,0.0,0.0,0.0,0.0,0.0,0.0,0.0,0.0,0.0,0.0,0.0,0.0,0.0,0.0,0.0,0.0,0.0,0.0,0.0,0.0,0.0,0.0,0.0,0.0,0.0,0.0,0.0,0.0,0.0,0.0,0.0,0.0,0.0,0.0,0.0,0.0,0.0,0.0,0.0,0.0,0.0,0.0,0.0,0.0,0.0,0.0,0.0,0.0,0.0,0.0,0.0,0.0,0.0,0.0,0.0,0.0,0.0,0.0,0.0,0.0,0.0,0.0,0.0,0.0,0.0,0.0,0.0,0.0,0.0,0.0,0.0,0.0,0.0,0.0,0.0,0.0,0.0,0.0,0.0,0.0,0.0,0.0,0.0,0.0,0.0,0.0,0.0,0.0,0.0,0.0,0.0,0.0,0.0,0.0,0.0,0.0,0.0,0.0,-3.1468,-3.1368,-3.2458,-3.3092,-3.3189,-3.2433,-3.1497,0.0,0.0,0.0,0.0,0.0,0.0,0.0,0.0,0.0,0.0,0.0,0.0,0.0,0.0,0.0,0.0,0.0,0.0,0.0,0.0,0.0,0.0,0.0,0.0,0.0,0.0,0.0,0.0,0.0,0.0,0.0,0.0,0.0,0.0,0.0,0.0,0.0,0.0,0.0,0.0,0.0,0.0,0.0,0.0,0.0,0.0,0.0,0.0,0.0,0.0,0.0,0.0,0.0,0.0,0.0,0.0,0.0,0.0,0.0,0.0,0.0,0.0,0.0,0.0,0.0,0.0,0.0,0.0,0.0,0.0,0.0,0.0,0.0,0.0,0.0,0.0,0.0,0.0,0.0,0.0,0.0,0.0,0.0,0.0,0.0,0.0,0.0,0.0,0.0,0.0,0.0,0.0,0.0,0.0,0.0,0.0,0.0,0.0,0.0,0.0,0.0,0.0,0.0,0.0,0.0,0.0,0.0,0.0,-3.1529,-3.2361,-3.3039,-3.343,-3.3448,-3.2122,-3.1192,0.0,0.0,0.0,0.0,0.0,0.0,0.0,0.0,0.0,0.0,0.0,0.0,0.0,0.0,0.0,0.0,0.0,0.0,0.0,0.0,0.0,0.0,0.0,0.0,0.0,0.0,0.0,0.0,0.0,0.0,0.0,0.0,0.0,0.0,0.0,0.0,0.0,0.0,0.0,0.0,0.0,0.0,0.0,0.0,0.0,0.0,0.0,0.0,-2.5852,0.0,0.0,0.0,0.0,0.0,0.0,0.0,0.0,0.0,0.0,0.0,0.0,0.0,0.0,0.0,0.0,0.0,0.0,0.0,0.0,0.0,0.0,0.0,0.0,0.0,0.0,0.0,0.0,0.0,0.0,0.0,0.0,0.0,0.0,0.0,0.0,0.0,0.0,0.0,0.0,0.0,0.0,0.0,0.0,0.0,0.0,0.0,0.0,0.0,0.0,0.0,0.0,0.0,0.0,0.0,0.0,0.0,0.0,0.0,-3.2242,-3.3048,-3.3638,-3.392,-3.3896,-3.2545,-3.1368,0.0,0.0,0.0,0.0,0.0,0.0,0.0,0.0,0.0,0.0,0.0,0.0,0.0,0.0,0.0,0.0,0.0,0.0,0.0,0.0,0.0,0.0,0.0,0.0,0.0,0.0,0.0,0.0,0.0,0.0,0.0,0.0,0.0,0.0,0.0,0.0,0.0,0.0,0.0,0.0,0.0,0.0,0.0,0.0,0.0,0.0,0.0,0.0,0.0,0.0,0.0,0.0,0.0,0.0,0.0,0.0,0.0,0.0,0.0,0.0,0.0,0.0,0.0,0.0,0.0,0.0,0.0,0.0,0.0,0.0,0.0,0.0,0.0,0.0,0.0,0.0,0.0,0.0,0.0,0.0,0.0,0.0,0.0,0.0,0.0,0.0,0.0,0.0,0.0,0.0,0.0,0.0,0.0,0.0,0.0,0.0,0.0,0.0,0.0,0.0,0.0,0.0,0.0,0.0,0.0,0.0,0.0,-3.1801,-3.2917,-3.3489,-3.4095,-3.438,-3.4399,-3.3148,-3.1687,-2.9988,0.0,0.0,0.0,0.0,0.0,0.0,0.0,0.0,0.0,0.0,0.0,0.0,0.0,0.0,0.0,0.0,0.0,0.0,0.0,0.0,0.0,0.0,0.0,0.0,0.0,0.0,0.0,0.0,0.0,0.0,0.0,0.0,0.0,0.0,0.0,0.0,0.0,0.0,-2.367,-2.5527,0.0,0.0,0.0,0.0,0.0,0.0,0.0,0.0,-2.6304,0.0,0.0,0.0,0.0,0.0,0.0,0.0,0.0,0.0,0.0,0.0,0.0,0.0,0.0,0.0,0.0,0.0,0.0,0.0,0.0,0.0,0.0,0.0,0.0,0.0,0.0,0.0,0.0,0.0,0.0,0.0,0.0,0.0,0.0,0.0,0.0,0.0,0.0,0.0,0.0,0.0,0.0,0.0,0.0,0.0,0.0,0.0,0.0,0.0,0.0,0.0,0.0,0.0,0.0,0.0,0.0,-3.066,-3.1895,-3.285,-3.3489,-3.408,-3.438,-3.4385,-3.318,-3.1859,-3.0526,0.0,0.0,0.0,0.0,0.0,0.0,0.0,0.0,0.0,0.0,0.0,0.0,0.0,0.0,0.0,0.0,0.0,0.0,0.0,0.0,0.0,0.0,0.0,0.0,0.0,0.0,0.0,0.0,0.0,0.0,0.0,0.0,0.0,0.0,0.0,0.0,0.0,0.0,0.0,-2.6621,-2.7382,0.0,0.0,0.0,0.0,0.0,0.0,0.0,0.0,-2.6356,0.0,0.0,0.0,0.0,0.0,0.0,0.0,0.0,0.0,0.0,0.0,0.0,0.0,0.0,0.0,0.0,0.0,0.0,0.0,0.0,0.0,0.0,0.0,0.0,0.0,0.0,0.0,0.0,0.0,0.0,0.0,0.0,0.0,0.0,0.0,0.0,0.0,0.0,0.0,0.0,0.0,0.0,0.0,0.0,0.0,0.0,0.0,0.0,0.0,0.0,0.0,0.0,0.0,0.0,0.0,-3.0702,-3.1876,-3.2991,-3.392,-3.4254,-3.438,-3.4351,-3.318,-3.1903,0.0,0.0,0.0,0.0,0.0,0.0,0.0,0.0,0.0,0.0,0.0,0.0,0.0,0.0,0.0,0.0,0.0,0.0,0.0,0.0,0.0,0.0,0.0,0.0,0.0,0.0,0.0,0.0,0.0,0.0,0.0,0.0,0.0,0.0,0.0,0.0,0.0,0.0,0.0,0.0,-2.7229,-2.784,-2.8288,0.0,0.0,0.0,0.0,0.0,0.0,-2.6778,-2.6582,0.0,0.0,0.0,0.0,0.0,0.0,0.0,0.0,0.0,0.0,0.0,0.0,0.0,0.0,0.0,0.0,0.0,0.0,0.0,0.0,0.0,0.0,0.0,0.0,0.0,0.0,0.0,0.0,0.0,0.0,0.0,0.0,0.0,0.0,0.0,0.0,0.0,0.0,0.0,0.0,0.0,0.0,0.0,0.0,0.0,0.0,0.0,0.0,0.0,0.0,0.0,0.0,0.0,0.0,0.0,-3.0598,-3.1859,-3.3122,-3.4308,-3.438,-3.4356,-3.4211,-3.3122,-3.1845,0.0,0.0,0.0,0.0,0.0,0.0,0.0,0.0,0.0,0.0,0.0,0.0,0.0,0.0,0.0,0.0,0.0,0.0,0.0,0.0,0.0,0.0,0.0,0.0,0.0,0.0,0.0,0.0,0.0,0.0,0.0,0.0,0.0,0.0,0.0,0.0,0.0,0.0,0.0,0.0,0.0,-2.8269,-2.8851,-2.8851,0.0,0.0,0.0,0.0,-2.7662,-2.7417,0.0,0.0,0.0,0.0,0.0,0.0,0.0,0.0,0.0,0.0,0.0,0.0,0.0,0.0,0.0,0.0,0.0,0.0,0.0,0.0,0.0,0.0,0.0,0.0,0.0,0.0,0.0,0.0,0.0,0.0,0.0,0.0,0.0,0.0,0.0,0.0,0.0,0.0,0.0,0.0,0.0,0.0,0.0,0.0,0.0,0.0,0.0,0.0,0.0,0.0,0.0,0.0,0.0,0.0,0.0,0.0,-3.0598,-3.1859,-3.3104,-3.4341,-3.438,-3.4138,-3.362,-3.289,-3.1611,0.0,0.0,0.0,0.0,0.0,0.0,0.0,0.0,0.0,0.0,0.0,0.0,0.0,0.0,0.0,0.0,0.0,0.0,0.0,0.0,0.0,0.0,0.0,0.0,0.0,0.0,0.0,0.0,0.0,0.0,0.0,0.0,0.0,0.0,0.0,0.0,0.0,0.0,0.0,0.0,0.0,-2.8567,-2.9702,-2.9412,-2.9038,0.0,0.0,-2.873,-2.8115,-2.8481,0.0,0.0,0.0,0.0,0.0,0.0,0.0,0.0,0.0,0.0,0.0,0.0,0.0,0.0,0.0,0.0,0.0,0.0,0.0,0.0,0.0,0.0,0.0,0.0,0.0,0.0,0.0,0.0,0.0,0.0,0.0,0.0,0.0,0.0,0.0,0.0,0.0,0.0,0.0,0.0,0.0,0.0,0.0,0.0,0.0,0.0,0.0,0.0,0.0,0.0,0.0,0.0,0.0,0.0,0.0,-2.9334,-3.0598,-3.1859,-3.3151,-3.4356,-3.438,-3.4283,-3.4008,-3.305,-3.1772,0.0,0.0,0.0,0.0,0.0,0.0,0.0,0.0,0.0,0.0,0.0,0.0,0.0,0.0,0.0,0.0,0.0,0.0,0.0,0.0,0.0,0.0,0.0,0.0,0.0,0.0,0.0,0.0,0.0,0.0,0.0,0.0,0.0,0.0,0.0,0.0,0.0,0.0,0.0,0.0,0.0,0.0,-2.9312,-2.9443,0.0,0.0,0.0,-2.9315,-2.8912,0.0,0.0,0.0,0.0,0.0,0.0,0.0,0.0,0.0,0.0,0.0,0.0,0.0,0.0,0.0,0.0,0.0,0.0,0.0,0.0,0.0,0.0,0.0,0.0,0.0,0.0,0.0,0.0,0.0,0.0,0.0,0.0,0.0,0.0,0.0,0.0,0.0,0.0,0.0,0.0,0.0,0.0,0.0,0.0,0.0,0.0,0.0,0.0,0.0,0.0,0.0,0.0,0.0,0.0,0.0,0.0,0.0,-3.0433,-3.1719,-3.3006,-3.4235,-3.4293,-3.4192,-3.4018,-3.2977,0.0,0.0,0.0,0.0,0.0,0.0,0.0,0.0,0.0,0.0,0.0,0.0,0.0,0.0,0.0,0.0,0.0,0.0,0.0,0.0,0.0,0.0,0.0,0.0,0.0,0.0,0.0,-2.0756,0.0,0.0,0.0,0.0,0.0,0.0,0.0,0.0,0.0,0.0,0.0,0.0,0.0,0.0,-2.7881,-2.9035,-2.9438,-2.9697,0.0,0.0,-2.9574,-2.9431,-2.8664,-2.7846,0.0,0.0,0.0,0.0,0.0,0.0,0.0,0.0,0.0,0.0,0.0,0.0,0.0,0.0,0.0,0.0,0.0,0.0,0.0,0.0,0.0,0.0,0.0,0.0,0.0,0.0,0.0,0.0,0.0,0.0,0.0,0.0,0.0,0.0,0.0,0.0,0.0,0.0,0.0,0.0,0.0,0.0,0.0,0.0,0.0,0.0,0.0,0.0,0.0,0.0,0.0,0.0,0.0,0.0,0.0,-3.0113,-3.1371,-3.263,-3.3859,-3.3931,-3.3631,-3.3016,-3.2358,-3.1143,0.0,0.0,0.0,0.0,0.0,0.0,0.0,0.0,0.0,0.0,0.0,0.0,0.0,0.0,0.0,0.0,0.0,0.0,0.0,0.0,0.0,0.0,0.0,0.0,0.0,0.0,0.0,0.0,0.0,0.0,0.0,0.0,0.0,0.0,0.0,0.0,0.0,0.0,0.0,0.0,0.0,-2.8298,-2.9265,-2.9407,-2.9612,0.0,0.0,-2.9396,-2.9396,-2.8933,-2.8402,-2.7988,0.0,0.0,0.0,0.0,0.0,0.0,0.0,0.0,0.0,0.0,0.0,0.0,0.0,0.0,0.0,0.0,0.0,0.0,0.0,0.0,0.0,0.0,0.0,0.0,0.0,0.0,0.0,0.0,0.0,0.0,0.0,0.0,0.0,0.0,0.0,0.0,0.0,0.0,0.0,0.0,0.0,0.0,0.0,0.0,0.0,0.0,0.0,0.0,0.0,0.0,0.0,0.0,0.0,-2.8393,-2.9605,-3.0829,-3.1985,-3.3122,-3.3143,-3.3031,-3.2793,-3.1814,-3.0676,0.0,0.0,0.0,0.0,0.0,0.0,0.0,0.0,0.0,0.0,0.0,0.0,0.0,0.0,0.0,0.0,0.0,0.0,0.0,0.0,0.0,0.0,0.0,0.0,0.0,0.0,0.0,0.0,-2.1625,-2.1231,-2.0875,0.0,0.0,0.0,0.0,0.0,0.0,0.0,0.0,0.0,0.0,-2.7819,-2.9227,-2.9561,0.0,0.0,-3.0057,-2.9696,-2.9696,-2.8986,-2.8138,-2.7335,-2.6559,0.0,0.0,0.0,0.0,0.0,0.0,0.0,0.0,0.0,0.0,0.0,0.0,0.0,0.0,0.0,0.0,0.0,0.0,0.0,0.0,0.0,0.0,0.0,0.0,0.0,0.0,0.0,0.0,0.0,0.0,0.0,0.0,0.0,0.0,0.0,0.0,0.0,0.0,0.0,0.0,0.0,0.0,0.0,0.0,0.0,0.0,0.0,0.0,0.0,0.0,0.0,0.0,-2.7901,-2.8994,-3.0146,-3.124,-3.2354,-3.2331,-3.2331,-3.229,-3.1205,-3.0049,0.0,0.0,0.0,0.0,0.0,0.0,0.0,0.0,0.0,0.0,0.0,0.0,0.0,0.0,0.0,0.0,0.0,0.0,0.0,0.0,0.0,0.0,0.0,0.0,0.0,0.0,0.0,0.0,-2.1546,-2.1068,-2.0732,0.0,0.0,0.0,0.0,0.0,0.0,0.0,0.0,0.0,0.0,-2.757,-2.9155,-2.9588,-2.9943,-3.0668,-3.015,-2.9699,-2.974,-2.8836,-2.7884,-2.7201,0.0,0.0,0.0,0.0,0.0,0.0,0.0,0.0,0.0,0.0,0.0,0.0,0.0,0.0,0.0,0.0,0.0,0.0,0.0,0.0,0.0,0.0,0.0,0.0,0.0,0.0,0.0,-2.8154,0.0,0.0,-2.6947,0.0,0.0,0.0,0.0,0.0,0.0,0.0,0.0,0.0,0.0,0.0,0.0,0.0,0.0,0.0,0.0,0.0,0.0,0.0,0.0,0.0,0.0,-2.6702,-2.8327,-2.9334,-3.0379,-3.1462,-3.1502,-3.1516,-3.1489,-3.0419,-2.9259,-2.8026,0.0,0.0,0.0,0.0,0.0,0.0,0.0,0.0,0.0,0.0,0.0,0.0,0.0,0.0,0.0,0.0,0.0,0.0,0.0,0.0,0.0,0.0,0.0,0.0,0.0,0.0,-2.1907,-2.1031,-2.0605,0.0,0.0,0.0,0.0,0.0,0.0,0.0,0.0,0.0,0.0,-2.6518,-2.7694,-2.9104,-2.9304,-2.973,-3.0754,-3.0031,-2.9357,-2.9357,-2.8438,-2.7743,0.0,0.0,0.0,0.0,0.0,0.0,0.0,0.0,0.0,0.0,0.0,0.0,0.0,0.0,0.0,0.0,0.0,0.0,0.0,0.0,0.0,0.0,0.0,0.0,0.0,0.0,0.0,-2.9477,-2.8725,0.0,0.0,0.0,0.0,0.0,0.0,0.0,0.0,0.0,0.0,0.0,-2.8738,-2.7578,0.0,0.0,0.0,0.0,0.0,0.0,0.0,0.0,0.0,0.0,0.0,0.0,-2.6804,-2.8114,-2.8843,-2.9712,-3.072,-3.0759,-3.0759,-3.0759,-2.9655,-2.8278,-2.6598,0.0,0.0,0.0,0.0,0.0,0.0,0.0,0.0,0.0,0.0,0.0,0.0,0.0,0.0,0.0,0.0,0.0,0.0,0.0,0.0,0.0,0.0,0.0,0.0,0.0,-2.1934,0.0,0.0,0.0,0.0,0.0,0.0,0.0,0.0,0.0,0.0,0.0,-2.5408,-2.5888,-2.6841,-2.8108,-2.9605,-2.9821,-3.0194,0.0,0.0,0.0,0.0,0.0,0.0,0.0,0.0,0.0,0.0,0.0,0.0,0.0,0.0,-2.6311,-2.5586,-2.5006,-2.4643,-2.4689,0.0,0.0,0.0,0.0,0.0,0.0,0.0,0.0,0.0,0.0,0.0,0.0,0.0,0.0,-3.0439,0.0,-2.9212,0.0,0.0,0.0,0.0,0.0,0.0,0.0,0.0,-2.7786,-2.8185,-2.9263,-2.8093,-2.7712,0.0,-2.6896,-2.6096,0.0,0.0,0.0,0.0,0.0,0.0,0.0,0.0,-2.6726,-2.7862,-2.8551,-2.9322,-3.0139,-3.0177,-3.019,-3.0152,-2.8904,-2.7496,-2.6078,-2.4835,-2.4057,0.0,0.0,0.0,0.0,0.0,0.0,0.0,0.0,0.0,0.0,0.0,0.0,0.0,0.0,0.0,0.0,0.0,0.0,0.0,0.0,0.0,0.0,0.0,-2.2082,0.0,0.0,0.0,0.0,0.0,0.0,0.0,0.0,0.0,-2.3869,-2.5004,-2.607,-2.6815,-2.7705,-2.8775,-3.017,0.0,0.0,0.0,0.0,0.0,0.0,0.0,-2.934,-2.8655,-2.8823,-2.8835,-2.8098,-2.799,-2.8198,-2.8715,0.0,0.0,-2.6899,-2.6394,-2.6154,-2.6154,-2.6068,-2.608,-2.6234,-2.6196,-2.6302,0.0,0.0,0.0,0.0,0.0,0.0,0.0,0.0,-3.1122,-3.1016,0.0,-2.9865,0.0,0.0,0.0,0.0,0.0,-2.7799,0.0,0.0,-2.8656,-2.8682,-2.8707,-2.8656,-2.863,-2.8567,-2.7566,-2.7028,-2.6934,-2.5055,0.0,0.0,0.0,0.0,0.0,0.0,-2.6426,-2.7518,-2.8434,-2.9202,-2.9767,-2.9779,-2.9779,-2.9716,-2.8172,-2.7042,-2.6355,-2.4974,-2.3943,-2.3343,-2.318,0.0,0.0,0.0,0.0,0.0,0.0,0.0,0.0,0.0,0.0,0.0,0.0,0.0,0.0,0.0,0.0,0.0,0.0,0.0,0.0,-2.2213,0.0,0.0,0.0,0.0,0.0,0.0,0.0,0.0,0.0,0.0,-2.542,-2.5877,-2.6755,-2.8318,0.0,0.0,0.0,0.0,-3.1091,-3.1633,-3.1284,-3.0946,-3.0922,-3.0434,-3.0098,-3.0062,0.0,0.0,-3.0086,-3.0086,-3.0182,-3.0759,-3.0344,-2.9629,-2.8086,-2.7798,-2.775,-2.775,-2.7583,-2.7605,-2.7964,-2.7839,-2.787,-3.213,0.0,0.0,0.0,0.0,-3.0944,-3.1229,-3.1591,-3.1719,-3.1474,-3.0983,-3.0364,0.0,0.0,0.0,0.0,0.0,0.0,-2.9133,-2.9605,-2.9884,-3.0237,-3.0565,-2.9807,-2.9441,-2.9404,-2.8318,-2.7776,-2.7725,-2.6426,-2.5486,-2.4944,0.0,0.0,0.0,0.0,-2.6962,-2.7905,-2.8574,-2.9176,-2.9779,-2.9779,-2.9603,-2.9189,-2.8175,-2.724,-2.6295,-2.5356,-2.4449,-2.3611,-2.3145,0.0,0.0,0.0,0.0,0.0,0.0,0.0,0.0,0.0,0.0,0.0,0.0,0.0,0.0,0.0,0.0,0.0,0.0,0.0,-2.2594,-2.3087,-2.3381,0.0,0.0,0.0,0.0,0.0,0.0,0.0,0.0,0.0,-2.744,-2.7717,-2.8126,0.0,0.0,-3.011,-3.0826,-3.0922,-3.1103,-3.1633,-3.1585,0.0,-3.0927,-3.0759,-3.0573,-3.0146,-3.0086,-3.0206,-3.0579,-3.0211,-3.0,-3.0513,-3.0383,-2.9993,-2.9603,-2.9291,-2.9136,-2.9124,-2.8822,-2.8607,-2.8706,-2.8445,-2.8194,-3.3777,-3.251,-3.1764,-3.1637,-3.1968,-3.2209,-3.2476,-3.2755,-3.2768,-3.2463,-3.193,-3.1305,-3.0659,-2.9923,-2.9567,0.0,0.0,0.0,-3.0275,-3.0565,-3.0798,-3.1085,-3.1336,-3.0733,-3.0319,-3.008,-2.9214,-2.8649,-2.8423,-2.7544,-2.6918,-2.6392,0.0,0.0,-2.6152,-2.6674,-2.7425,-2.8398,-2.895,-2.944,-2.9779,-2.9779,-2.9577,-2.9099,-2.8263,-2.742,-2.6633,-2.5534,-2.4679,-2.403,-2.3347,-2.264,0.0,0.0,0.0,0.0,0.0,0.0,0.0,0.0,0.0,0.0,0.0,-1.9799,-1.9885,0.0,0.0,0.0,-2.1705,-2.249,-2.324,-2.3613,0.0,0.0,0.0,0.0,0.0,0.0,0.0,-2.5853,-2.6598,-2.7584,-2.8931,-2.9316,-2.9569,-2.9881,-3.0374,-3.0831,-3.1187,0.0,-3.1169,-3.148,-3.1496,-3.13,-3.0989,-3.0942,-3.0834,-3.0513,-3.0477,-3.056,-3.0846,-3.0537,-3.0324,-3.0484,-3.0446,-3.0384,-3.0448,-3.0215,-2.9986,-2.9785,-2.9358,-2.9068,-2.9164,-2.888,-2.8565,-3.527,-3.4776,-3.3759,-3.3325,-3.3257,-3.3746,-3.396,-3.3972,-3.396,-3.3684,-3.3169,-3.2554,-3.1687,-3.0683,-3.0683,0.0,-3.0708,-3.121,-3.1449,-3.1461,-3.1512,-3.1512,-3.1524,-3.1486,-3.121,-3.0733,-3.0143,-2.9578,-2.9013,-2.8448,-2.8172,-2.8109,-2.6079,-2.5598,-2.6612,-2.7143,-2.7921,-2.8875,-2.949,-2.9779,-2.9779,-2.9779,-2.9689,-2.9419,-2.84,-2.7607,-2.7162,-2.5716,-2.4786,-2.4506,-2.3736,-2.3033,-2.2402,0.0,0.0,0.0,0.0,0.0,0.0,0.0,0.0,0.0,0.0,0.0,0.0,0.0,0.0,0.0,-2.2462,0.0,-2.3878,-2.3962,0.0,0.0,0.0,-2.4688,-2.4676,-2.5577,-2.6405,-2.692,0.0,0.0,-2.9984,-3.0572,-3.0896,-3.0896,-3.136,-3.1661,-3.1673,-3.1427,-3.1261,-3.1306,-3.1107,-3.0972,-3.0925,-3.0925,-3.0869,-3.0833,-3.0939,-3.0824,-3.0836,-3.0802,-3.0724,-3.0453,-3.0465,-3.0525,-3.0742,-3.0544,-3.0373,-2.9882,-2.9509,-2.9263,-2.9416,-2.9172,-2.8898,-3.6094,-3.599,-3.5739,-3.5102,-3.4349,-3.4474,-3.4525,-3.4525,-3.4525,-3.4449,-3.4274,-3.3307,-3.2252,-3.1198,-3.121,-3.1198,-3.1223,-3.1775,-3.2014,-3.2051,-3.2478,-3.2722,-3.2654,-3.2227,-3.1951,-3.1775,-3.0871,-3.0357,-3.0129,-2.9214,-2.87,-2.865,-2.7747,-2.7457,-2.772,-2.826,-2.8624,-2.8888,-2.9503,-2.9779,-2.9779,-2.9779,-2.9689,-2.9419,-2.862,-2.7901,-2.7211,-2.6287,-2.5395,-2.4554,-2.4324,-2.3589,-2.232,-2.2018,0.0,0.0,0.0,0.0,0.0,0.0,0.0,0.0,0.0,-2.0494,-2.0598,0.0,-2.1873,0.0,-2.3304,-2.4374,-2.4879,-2.53,0.0,0.0,-2.6249,-2.6284,-2.6125,-2.6709,-2.7216,-2.7553,-2.8545,-2.943,-3.0111,-3.0655,-3.0962,-3.0974,-3.1235,-3.1306,-3.1196,-3.1107,-3.1074,-3.1062,-3.0871,-3.0724,-3.0679,-3.0499,-3.0375,-3.042,-3.0204,-3.0102,-3.0057,-2.976,-2.9542,-2.9473,-2.9602,-2.9681,-2.9777,-2.9991,-3.0071,-2.9825,-2.9829,-2.9803,-2.9429,-2.9,-2.865,-3.6417,-3.6417,-3.6417,-3.6053,-3.5454,-3.5454,-3.5454,-3.5429,-3.5144,-3.5044,-3.4969,-3.3922,-3.3093,-3.2503,-3.2252,-3.2139,-3.2164,-3.2453,-3.2604,-3.2616,-3.293,-3.3124,-3.3068,-3.2754,-3.2466,-3.219,-3.1612,-3.1072,-3.0595,-2.9941,-2.9502,-2.9315,-2.9001,-2.8863,-2.885,-2.8875,-2.9026,-2.9302,-2.9628,-2.9779,-2.9779,-2.9779,-2.9624,-2.925,-2.8394,-2.7665,-2.7073,-2.6202,-2.548,-2.4868,-2.4616,-2.4121,-2.328,-2.2799,-2.2204,0.0,0.0,0.0,0.0,0.0,0.0,0.0,0.0,0.0,0.0,0.0,-2.3055,-2.3424,-2.4135,-2.4909,-2.5658,-2.5991,-2.6384,-2.6868,-2.7142,-2.7328,-2.7463,-2.7839,-2.8263,-2.8654,-2.9098,-2.9613,-3.0113,-3.046,-3.0601,-3.0522,-3.0679,-3.0814,-3.0826,-3.0736,-3.0601,-3.0522,-3.0273,-3.0125,-3.0114,-2.9897,-2.9726,-2.9669,-2.9509,-2.9268,-2.9187,-2.8978,-2.871,-2.8499,-2.8655,-2.8919,-2.9063,-2.9381,-2.9653,-2.9724,-2.9787,-2.9669,-2.9139,-2.8612,-2.8269,-3.6417,-3.6417,-3.6417,-3.6417,-3.6417,-3.6417,-3.6417,-3.638,-3.5855,-3.5571,-3.5445,-3.4537,-3.4035,-3.3872,-3.3438,-3.3187,-3.3124,-3.3124,-3.3124,-3.3124,-3.3124,-3.3124,-3.3124,-3.3124,-3.2805,-3.2328,-3.224,-3.1738,-3.0794,-3.0683,-3.0382,-2.9917,-2.9842,-2.9779,-2.9767,-2.9289,-2.9289,-2.9779,-2.9779,-2.9779,-2.9779,-2.974,-2.9534,-2.9094,-2.8123,-2.7334,-2.6923,-2.5949,-2.5384,-2.5288,-2.4867,-2.4556,-2.4472,-2.3664,-2.2943,0.0,-2.1957,0.0,0.0,0.0,0.0,0.0,0.0,0.0,0.0,-2.3922,-2.4288,-2.4992,-2.4952,-2.5263,-2.622,-2.636,-2.6566,-2.7079,-2.7533,-2.7976,-2.843,-2.875,-2.9051,-2.95,-2.9427,-2.9566,-2.9954,-3.008,-3.0034,-2.992,-3.0102,-3.0261,-3.0397,-3.0261,-3.0148,-2.9943,-2.9588,-2.9393,-2.9301,-2.9128,-2.8943,-2.8896,-2.8699,-2.8456,-2.8243,-2.816,-2.8008,-2.7662,-2.7927,-2.831,-2.8456,-2.8859,-2.9281,-2.9463,-2.9482,-2.931,-2.8778,-2.842,-2.809,-3.6417,-3.6417,-3.6417,-3.6417,-3.6417,-3.6417,-3.6417,-3.6405,-3.6292,-3.5956,-3.5495,-3.5282,-3.4693,-3.3909,-3.3796,-3.3508,-3.3124,-3.3124,-3.3124,-3.3124,-3.3124,-3.3124,-3.3124,-3.3124,-3.3018,-3.288,-3.2428,-3.2102,-3.1888,-3.1035,-3.0557,-3.0444,-3.0005,-2.9779,-2.9779,0.0,0.0,0.0,-2.9779,-2.9779,-2.9792,-2.9599,-2.9353,-2.9079,-2.8338,0.0,-2.6935,-2.6261,-2.5745,-2.5336,-2.5216,0.0,0.0,0.0,0.0,0.0,0.0,0.0,0.0,0.0,0.0,0.0,-2.4669,-2.4374,-2.4172,-2.4601,-2.5082,-2.5462,-2.5645,-2.5939,-2.6325,-2.673,-2.7158,-2.7665,-2.7811,-2.7869,-2.7796,-2.8165,-2.841,-2.8342,-2.8832,-2.9201,-2.929,-2.9485,-2.9623,-2.9588,-2.9794,-2.9886,-2.976,-2.9874,-2.992,-2.9897,-2.9335,-2.8803,-2.8326,-2.8254,-2.8224,-2.7914,-2.7726,-2.7489,-2.7251,-2.7003,-2.688,-2.6736,-2.7347,-2.7884,-2.7955,-2.8551,-2.9086,-2.9217,-2.9036,-2.8837,-2.872,-2.8645,-2.8502,-3.6417,0.0,-3.6417,-3.6417,0.0,-3.6417,-3.6417,-3.6417,-3.6417,-3.6241,-3.5931,-3.5621,-3.5194,-3.47,-3.4424,-3.4161,-3.3884,-3.3608,-3.3483,-3.347,-3.3206,-3.3124,-3.3124,-3.3124,-3.3124,-3.3111,-3.2792,-3.2491,-3.2202,-3.1675,-3.126,-3.0984,-3.0721,-3.0457,-3.0193,-2.993,-2.9779,-2.9779,-2.9779,-2.9779,-2.9792,-2.9548,-2.9314,-2.9067,-2.814,0.0,0.0,0.0,0.0,0.0,0.0,0.0,0.0,0.0,0.0,-2.4578,-2.4783,-2.4892,-2.4788,-2.48,-2.5099,-2.5742,-2.5864,-2.5718,-2.5257,-2.5356,-2.5599,-2.5935,-2.6041,-2.6175,-2.6432,-2.665,-2.6987,-2.7488,-2.7553,-2.764,-2.7958,-2.8085,-2.8145,-2.8223,-2.843,-2.8617,-2.871,-2.8746,-2.8885,-2.9117,-2.9266,-2.9405,-2.9497,-2.9737,-2.9794,-2.9427,-2.9195,-2.8787,-2.8275,-2.8235,-2.8091,-2.7665,-2.7352,-2.7008,-2.6554,-2.639,-2.6245,-2.6198,-2.6666,-2.7151,-2.7429,-2.7954,-2.847,-2.8658,-2.8611,-2.8514,-2.8514,-2.8514,-2.8461,-3.6417,-3.6417,-3.6417,-3.6417,-3.6417,-3.6417,-3.6417,-3.6417,0.0,0.0,0.0,-3.5893,-3.5596,-3.547,-3.5019,-3.4768,-3.47,-3.4261,-3.4035,-3.4022,-3.3483,-3.3219,-3.3262,-3.3119,-3.3124,-3.3124,-3.3124,-3.283,-3.2365,-3.2265,-3.1989,-3.1562,-3.1436,-3.1122,-3.062,-3.0168,-2.988,-2.9753,-2.9792,-2.9792,-2.9753,-2.9482,-2.9223,-2.904,-2.7893,-2.7206,-2.703,-2.6081,-2.56,-2.56,-2.5588,-2.5588,-2.5612,-2.6009,-2.6009,-2.5589,-2.5937,-2.6054,-2.5831,-2.5902,-2.6108,-2.6426,-2.6718,-2.6749,-2.6455,-2.6084,-2.5966,-2.6336,-2.6204,-2.6163,-2.6364,-2.6435,-2.6669,-2.7037,-2.7069,-2.733,-2.7934,-2.7867,-2.7788,-2.8066,-2.7951,-2.7951,-2.8207,-2.8139,-2.8128,-2.856,-2.8757,-2.8989,-2.9393,-2.968,-2.9497,-2.8836,-2.87,-2.8599,-2.8202,-2.8028,-2.7957,-2.7264,-2.7028,-2.6693,-2.6219,-2.6004,-2.5907,-2.5781,-2.6094,-2.6544,-2.6855,-2.7376,-2.7816,-2.8115,-2.8242,-2.8301,-2.8301,-2.8291,-2.8301,-3.6417,-3.6417,-3.6417,-3.6417,-3.6417,-3.6417,-3.6417,-3.6417,-3.6417,-3.6417,-3.6405,-3.6329,-3.5981,-3.5495,-3.542,-3.5132,-3.4726,-3.465,-3.4613,-3.4575,-3.4035,-3.3784,-3.3759,-3.3294,-3.3124,-3.3124,-3.3124,-3.3043,-3.2905,-3.2453,-3.2177,-3.2051,-3.1625,-3.1135,-3.0658,-3.0532,-3.0138,-2.9482,-2.9702,-2.9702,-2.947,-2.9248,-2.904,-2.8819,-2.8065,-2.7609,-2.757,-2.6982,-2.6657,-2.6657,-2.6657,-2.6669,-2.6669,-2.6729,-2.6666,-2.6433,-2.6504,-2.634,-2.5945,-2.6302,-2.6702,-2.6978,-2.7071,-2.7084,-2.6972,-2.6617,-2.6349,-2.623,-2.6169,-2.6023,-2.5939,-2.6243,-2.6503,-2.6557,-2.6577,-2.6665,-2.6832,-2.6774,-2.687,-2.7129,-2.732,-2.7489,-2.7678,-2.7809,-2.7951,-2.8139,-2.8524,-2.8932,-2.9255,-2.9531,-2.9117,-2.8326,-2.7909,-2.7641,-2.7335,-2.6937,-2.6826,-2.6355,-2.6346,-2.621,-2.5849,-2.5771,-2.5781,-2.5732,-2.6074,-2.6357,-2.6514,-2.7139,-2.764,-2.7803,-2.8047,-2.8281,-2.8301,-2.8301,-2.8301,-3.6417,-3.6417,-3.6417,-3.6417,-3.6417,-3.6417,-3.6417,-3.6417,-3.6417,-3.6417,-3.6417,-3.6417,-3.6219,-3.5994,-3.5994,-3.5855,-3.5604,-3.5257,-3.5119,-3.5082,-3.4613,-3.4186,-3.3897,-3.3646,-3.34,-3.3136,-3.3124,-3.3124,-3.3099,-3.2792,-3.2679,-3.2641,-3.2114,-3.1712,-3.1486,-3.1063,-3.0667,-3.0313,-2.982,-2.9482,-2.9236,-2.904,-2.887,-2.8791,-2.8059,-2.7729,-2.7678,-2.7174,-2.6885,-2.6885,-2.6885,-2.6885,-2.6898,-2.7074,-2.7245,-2.7415,-2.745,-2.74,-2.7218,-2.7061,-2.7034,-2.715,-2.7063,-2.7043,-2.6974,-2.6704,-2.6387,-2.617,-2.6121,-2.5994,-2.5765,-2.5953,-2.6062,-2.6062,-2.6072,-2.612,-2.6255,-2.6294,-2.639,-2.6651,-2.6784,-2.6976,-2.7194,-2.7204,-2.7384,-2.7715,-2.8254,-2.8617,-2.871,-2.8861,-2.8757,-2.8312,-2.7973,-2.7555,-2.7092,-2.701,-2.6794,-2.632,-2.6271,-2.6133,-2.581,-2.5684,-2.5684,-2.5684,-2.5879,-2.6113,-2.6309,-2.6875,-2.7324,-2.7728,-2.7998,-2.8252,-2.8301,-2.8301,-2.8301,-3.6417,-3.6417,-3.6417,-3.6417,-3.6417,-3.6417,-3.6417,-3.6417,-3.6417,-3.6417,-3.6417,-3.6417,-3.6417,-3.6417,-3.6417,-3.6405,-3.6355,-3.5918,-3.5683,-3.5621,-3.5107,-3.463,-3.4274,-3.4048,-3.3671,-3.3282,-3.3187,-3.3124,-3.3124,-3.3124,-3.3124,-3.3074,-3.2629,-3.234,-3.2215,-3.1606,-3.122,-3.0964,-3.0118,-2.9505,-2.9196,-2.8943,-2.8803,-2.87,-2.8192,-2.7858,-2.7834,-2.7462,-2.7258,-2.7246,-2.7246,-2.7294,-2.7349,-2.7603,-2.7897,-2.8216,-2.8201,-2.8174,-2.802,-2.7446,-2.707,-2.7136,-2.6946,-2.6775,-2.672,-2.6533,-2.633,-2.6127,-2.6022,-2.5907,-2.5781,-2.584,-2.5879,-2.5889,-2.5977,-2.6173,-2.6261,-2.63,-2.6388,-2.6642,-2.6691,-2.6798,-2.6972,-2.6934,-2.712,-2.7806,-2.8148,-2.8263,-2.8205,-2.831,-2.8346,-2.8199,-2.7935,-2.7454,-2.7009,-2.6864,-2.6724,-2.6279,-2.6211,-2.6035,-2.5762,-2.5684,-2.5684,-2.5684,-2.5684,-2.582,-2.6191,-2.668,-2.71,-2.7441,-2.79,-2.8291,-2.8301,-2.8301,-2.8301,-3.6417,-3.6417,-3.6417,-3.6417,-3.6417,-3.6417,-3.6417,-3.6417,-3.6417,-3.6417,-3.6417,-3.6417,-3.6417,-3.6417,-3.6417,-3.6417,-3.6417,-3.6355,-3.6317,-3.6207,-3.5717,-3.5395,-3.5207,-3.4387,-3.3884,-3.3746,-3.3332,-3.3149,-3.3124,-3.3124,-3.3124,-3.3124,-3.3018,-3.2717,-3.2235,-3.1967,-3.1509,-3.0844,-3.0472,-3.0085,-2.9561,-2.9047,-2.8685,-2.8538,-2.8474,-2.8438,-2.8462,-2.839,-2.8366,-2.8366,-2.8366,-2.8451,-2.8666,-2.8756,-2.8727,-2.8637,-2.8416,-2.8021,-2.735,-2.6854,-2.6672,-2.687,-2.6683,-2.6426,-2.6255,-2.6167,-2.6137,-2.6092,-2.5898,-2.5771,-2.5713,-2.6094,-2.6318,-2.6348,-2.6621,-2.6894,-2.6887,-2.6894,-2.7047,-2.727,-2.7221,-2.7412,-2.7543,-2.7583,-2.7823,-2.8289,-2.8352,-2.8454,-2.8529,-2.8439,-2.8168,-2.7767,-2.7314,-2.6845,-2.6393,-2.5995,-2.5977,-2.585,-2.5762,-2.5742,-2.5703,-2.5684,-2.5684,-2.5684,-2.5684,-2.5732,-2.5967,-2.6416,-2.7002,-2.7217,-2.7715,-2.8301,-2.8301,-2.8301,-2.8301,-3.6417,-3.6417,-3.6417,-3.6417,-3.6417,-3.6417,-3.6417,-3.6417,-3.6417,-3.6417,-3.6417,-3.6417,-3.6417,-3.6417,-3.6417,-3.6417,-3.6417,-3.6417,-3.6417,-3.6392,-3.6119,-3.5855,-3.5458,-3.5069,-3.4505,-3.3935,-3.3671,-3.3407,-3.3174,-3.3124,-3.3124,-3.3124,-3.3124,-3.2998,-3.2742,-3.2516,-3.2148,-3.1736,-3.118,-3.0731,-3.0362,-2.9825,-2.9506,-2.9448,-2.9436,-2.9448,-2.9448,-2.9436,-2.9448,-2.9436,-2.9436,-2.9491,-2.9571,-2.9332,-2.9242,-2.93,-2.8735,-2.8152,-2.77,-2.7113,-2.6723,-2.6678,-2.6438,-2.6258,-2.6281,-2.6251,-2.6349,-2.6566,-2.6309,-2.6211,-2.6455,-2.666,-2.6758,-2.6777,-2.6914,-2.7021,-2.7012,-2.7021,-2.7063,-2.7155,-2.7145,-2.7266,-2.7551,-2.7844,-2.8096,-2.8397,-2.852,-2.8772,-2.8849,-2.8686,-2.8357,-2.7927,-2.7448,-2.6928,-2.6438,-2.61,-2.5917,-2.5732,-2.5684,-2.5684,-2.5684,-2.5684,-2.5684,-2.5684,-2.5713,-2.5713,-2.5693,-2.6396,-2.7021,-2.7207,-2.7676,-2.8301,-2.8301,-2.8301,-2.8301,-3.6417,-3.6417,-3.6417,-3.6417,-3.6417,-3.6417,-3.6417,-3.6417,-3.6417,-3.6417,-3.6417,-3.6417,-3.6417,-3.6417,-3.6417,-3.6417,-3.6417,-3.6417,-3.6417,-3.6417,-3.6417,-3.6157,-3.5793,-3.5545,-3.5082,-3.4437,-3.4211,-3.3847,-3.3357,-3.3294,-3.3232,-3.3149,-3.3124,-3.3124,-3.3068,-3.2853,-3.2636,-3.2426,-3.1841,-3.1473,-3.1295,-3.0937,-3.0513,-3.0176,-3.0086,-3.0086,-3.0086,-3.0086,-3.0086,-3.0086,-3.0086,-3.0116,-3.0205,-2.9834,-2.9627,-2.953,-2.8918,-2.8348,-2.7904,-2.7357,-2.689,-2.6651,-2.649,-2.6467,-2.6616,-2.6734,-2.7,-2.7355,-2.7168,-2.7058,-2.6953,-2.7129,-2.7187,-2.73,-2.7369,-2.7476,-2.7589,-2.757,-2.7599,-2.757,-2.7752,-2.7673,-2.8003,-2.836,-2.8603,-2.903,-2.9239,-2.9423,-2.9469,-2.9309,-2.8978,-2.8501,-2.7983,-2.734,-2.6688,-2.6342,-2.611,-2.5917,-2.582,-2.5771,-2.5732,-2.5684,-2.5684,-2.5693,-2.5762,-2.5908,-2.6084,-2.6611,-2.7266,-2.7451,-2.7851,-2.8301,-2.8301,-2.8301,-2.8301,-3.6417,-3.6417,-3.6417,-3.6417,-3.6417,-3.6417,-3.6417,-3.6417,-3.6417,-3.6417,-3.6417,-3.6417,-3.6417,-3.6417,-3.6417,-3.6417,-3.6417,-3.6417,-3.6417,-3.6417,-3.6417,-3.6392,-3.6342,-3.5805,-3.547,-3.5257,-3.4843,-3.4399,-3.3884,-3.3859,-3.3596,-3.3119,-3.3174,-3.3136,-3.3068,-3.2853,-3.2723,-3.2624,-3.2401,-3.2283,-3.2283,-3.2258,-3.1516,-3.0362,-3.0122,-3.017,-3.0146,-3.011,-3.0122,-3.011,-3.0158,-3.0265,-3.0469,-3.0292,-2.9899,-2.9282,-2.8921,-2.8466,-2.7773,-2.7499,-2.7225,-2.7027,-2.7112,-2.715,-2.7301,-2.7603,-2.7995,-2.8366,-2.8356,-2.8061,-2.7402,-2.7607,-2.7835,-2.8063,-2.84,-2.8675,-2.8926,-2.8878,-2.9009,-2.8958,-2.8951,-2.9068,-2.9411,-2.9332,-2.9744,-3.028,-3.052,-3.0525,-3.0639,-3.0411,-2.9942,-2.9469,-2.8761,-2.7925,-2.6832,-2.6582,-2.6438,-2.6197,-2.61,-2.5965,-2.582,-2.5684,-2.5684,-2.5771,-2.6064,-2.6289,-2.6484,-2.6943,-2.7598,-2.792,-2.8047,-2.8301,-2.8301,-2.8301,-2.8301,-3.6417,-3.6417,-3.6417,-3.6417,-3.6417,-3.6417,-3.6417,-3.6417,-3.6417,-3.6417,-3.6417,-3.6417,-3.6417,-3.6417,-3.6417,-3.6417,-3.6417,-3.6417,-3.6417,-3.6417,-3.6417,-3.6417,-3.638,-3.6144,-3.5855,-3.5495,-3.5295,-3.4919,-3.4474,-3.4437,-3.4148,-3.3696,-3.3596,-3.3445,-3.3144,-3.2995,-3.2896,-3.2711,-3.2636,-3.2519,-3.2431,-3.24,-3.2104,-3.1632,-3.1423,-3.1269,-3.1139,-3.1139,-3.1139,-3.1139,-3.1139,-3.1168,-3.1217,-3.0856,-3.0392,-2.9818,-2.9439,-2.9024,-2.8606,-2.8207,-2.8005,-2.8051,-2.7956,-2.8115,-2.8479,-2.8696,-2.8983,-2.9363,-2.9475,-2.9227,-2.901,-2.8768,-2.8638,-2.8763,-2.9031,-2.929,-2.9396,-2.9564,-2.9679,-2.9722,-2.9921,-3.0318,-3.0546,-3.0687,-3.0933,-3.1257,-3.1556,-3.1699,-3.1767,-3.1453,-3.1004,-3.0437,-2.9706,-2.8792,-2.7925,-2.7251,-2.6918,-2.662,-2.638,-2.6149,-2.5955,-2.5781,-2.5732,-2.583,-2.6182,-2.6523,-2.6709,-2.7187,-2.7842,-2.8144,-2.8291,-2.8301,-2.8301,-2.8301,-2.8301,-3.6417,-3.6417,-3.6417,-3.6417,-3.6417,-3.6417,-3.6417,-3.6417,-3.6417,-3.6417,-3.6417,-3.6417,-3.6417,-3.6417,-3.6417,-3.6417,-3.6417,-3.6417,-3.6417,-3.6417,-3.6417,-3.6417,-3.6417,-3.6417,-3.6182,-3.5855,-3.5818,-3.547,-3.5006,-3.4944,-3.4643,-3.4198,-3.4173,-3.3884,-3.3432,-3.3332,-3.3183,-3.2903,-3.281,-3.2766,-3.2649,-3.2605,-3.2562,-3.2475,-3.2344,-3.2113,-3.1937,-3.1849,-3.1793,-3.1805,-3.1761,-3.1661,-3.1516,-3.1217,-3.0802,-3.034,-3.0034,-2.9839,-2.9652,-2.9267,-2.9099,-2.9423,-2.9267,-2.9395,-2.9766,-2.9967,-3.022,-3.0421,-3.0495,-3.0505,-3.0453,-3.0172,-2.9816,-2.9649,-2.9806,-3.0026,-3.013,-3.0339,-3.0505,-3.0599,-3.0899,-3.1249,-3.1545,-3.1801,-3.2055,-3.224,-3.2583,-3.2773,-3.2871,-3.2558,-3.2024,-3.1506,-3.0751,-2.9893,-2.9112,-2.843,-2.7605,-2.7177,-2.6716,-2.6428,-2.611,-2.5888,-2.584,-2.5986,-2.626,-2.6631,-2.7041,-2.751,-2.7871,-2.8223,-2.8301,-2.8301,-2.8301,-2.8301,-2.8301,-3.6417,-3.6417,-3.6417,-3.6443,-3.6493,-3.6493,-3.6455,-3.6543,-3.6518,-3.6593,-3.6644,-3.6493,-3.6505,-3.6455,-3.6443,-3.6417,-3.6417,-3.6417,-3.6417,-3.6417,-3.6417,-3.6417,-3.6417,-3.6417,-3.6405,-3.6329,-3.6367,-3.6069,-3.5533,-3.5483,-3.5219,-3.4768,-3.468,-3.4449,-3.3922,-3.3897,-3.3658,-3.3319,-3.3176,-3.3131,-3.3136,-3.3063,-3.2952,-3.2711,-3.268,-3.2593,-3.2388,-3.2169,-3.1981,-3.1981,-3.1805,-3.1584,-3.1395,-3.1306,-3.1083,-3.0724,-3.0646,-3.0754,-3.0859,-3.0508,-3.0463,-3.086,-3.0937,-3.0888,-3.1046,-3.1323,-3.1575,-3.1607,-3.1618,-3.1629,-3.1629,-3.1567,-3.1208,-3.0588,-3.064,-3.0899,-3.1167,-3.1424,-3.1618,-3.1669,-3.1924,-3.2117,-3.2359,-3.2661,-3.2924,-3.3285,-3.3496,-3.3645,-3.3758,-3.3474,-3.3041,-3.2559,-3.1833,-3.1078,-3.033,-2.9565,-2.8614,-2.7741,-2.7214,-2.6774,-2.6382,-2.6121,-2.6114,-2.6251,-2.6709,-2.709,-2.7598,-2.7998,-2.8057,-2.8301,-2.8301,-2.8301,-2.8301,-2.8301,-2.8301,-3.6417,-3.6417,-3.6417,-3.6631,-3.6897,-3.6983,-3.7123,-3.7475,-3.75,-3.7487,-3.7425,-3.7086,-3.6923,-3.6883,-3.6606,-3.6417,-3.6417,-3.6417,-3.6417,-3.6443,-3.6417,-3.6417,-3.6417,-3.6417,-3.6417,-3.6417,-3.6417,-3.6329,-3.6132,-3.6094,-3.583,-3.5345,-3.5245,-3.4944,-3.45,-3.4462,-3.4349,-3.4198,-3.3847,-3.3646,-3.3608,-3.3269,-3.3038,-3.2982,-3.2982,-3.2939,-3.2865,-3.2475,-3.2313,-3.2269,-3.2038,-3.1805,-3.1617,-3.1572,-3.1439,-3.1151,-3.1425,-3.1559,-3.1541,-3.1693,-3.1887,-3.2193,-3.2251,-3.2355,-3.2451,-3.2582,-3.2695,-3.2684,-3.2695,-3.2695,-3.2684,-3.2695,-3.228,-3.1311,-3.1465,-3.1761,-3.2026,-3.2432,-3.2734,-3.2935,-3.3035,-3.3235,-3.3446,-3.3656,-3.3744,-3.3904,-3.4052,-3.4188,-3.4215,-3.4029,-3.3708,-3.3327,-3.2747,-3.2183,-3.146,-3.0822,-3.0119,-2.8992,-2.8163,-2.7349,-2.6893,-2.6525,-2.6488,-2.6642,-2.7151,-2.7568,-2.8086,-2.8301,-2.8301,-2.8301,-2.8301,-2.8301,-2.8301,-2.8301,-2.8301,-3.6417,-3.643,-3.6619,-3.686,-3.7211,-3.7387,-3.7663,-3.7977,-3.8002,-3.8002,-3.7914,-3.7638,-3.7487,-3.7425,-3.7111,-3.6985,-3.696,-3.7021,-3.6973,-3.6872,-3.6518,-3.6417,-3.6417,-3.6417,-3.6417,-3.6417,-3.6417,-3.6417,-3.6417,-3.6405,-3.6182,-3.5893,-3.5843,-3.5533,-3.5044,-3.4981,-3.4906,-3.4655,-3.4374,-3.4211,-3.4135,-3.3872,-3.3696,-3.3696,-3.3696,-3.3696,-3.3696,-3.3376,-3.3014,-3.2561,-3.2213,-3.195,-3.1817,-3.1942,-3.1929,-3.189,-3.2227,-3.2505,-3.2568,-3.2818,-3.3101,-3.3392,-3.3412,-3.3394,-3.3487,-3.3507,-3.3557,-3.3507,-3.3507,-3.3545,-3.3557,-3.3568,-3.3208,-3.2645,-3.2583,-3.2734,-3.2996,-3.3308,-3.3557,-3.3706,-3.3793,-3.4003,-3.4162,-3.431,-3.4347,-3.4408,-3.4494,-3.4531,-3.452,-3.4414,-3.4186,-3.3911,-3.3517,-3.2983,-3.25,-3.2006,-3.159,-3.0445,-2.9278,-2.8369,-2.7633,-2.7202,-2.6972,-2.7182,-2.7559,-2.7822,-2.8291,-2.8291,-2.8301,-2.8301,-2.8301,-2.8301,-2.8301,-2.8301,-2.8301,-3.643,-3.6518,-3.6996,-3.7236,-3.7412,-3.7864,-3.8128,-3.8153,-3.8165,-3.8216,-3.8178,-3.8103,-3.8052,-3.8052,-3.7889,-3.7826,-3.7965,-3.7864,-3.7826,-3.7613,-3.7048,-3.6631,-3.6556,-3.6468,-3.6417,-3.6417,-3.6417,-3.6417,-3.6417,-3.6417,-3.6417,-3.6342,-3.6304,-3.6119,-3.568,-3.5533,-3.5366,-3.5014,-3.4826,-3.4718,-3.4751,-3.4663,-3.4593,-3.458,-3.46,-3.4575,-3.4517,-3.4447,-3.3983,-3.294,-3.2521,-3.2369,-3.2212,-3.2397,-3.2617,-3.2608,-3.3078,-3.3477,-3.3791,-3.3792,-3.3898,-3.4242,-3.4166,-3.4125,-3.4113,-3.4113,-3.4113,-3.4113,-3.4113,-3.4125,-3.4113,-3.4125,-3.4075,-3.4064,-3.3694,-3.3694,-3.4026,-3.4064,-3.4113,-3.4162,-3.4298,-3.4433,-3.4445,-3.464,-3.4726,-3.4726,-3.4726,-3.4726,-3.4714,-3.4631,-3.451,-3.4306,-3.4042,-3.3839,-3.3375,-3.3112,-3.2632,-3.1885,-3.0645,-2.9479,-2.8363,-2.7774,-2.7526,-2.7734,-2.7842,-2.8135,-2.8281,-2.8291,-2.8301,-2.8301,-2.8301,-2.8301,-2.8301,-2.8301,-2.8301,-3.6644,-3.6973,-3.7123,-3.7663,-3.8366,-3.8605,-3.8881,-3.922,-3.9233,-3.917,-3.9145,-3.8806,-3.8642,-3.8642,-3.8203,-3.8002,-3.8065,-3.8052,-3.8002,-3.7965,-3.7764,-3.7324,-3.6923,-3.6593,-3.6443,-3.6455,-3.648,-3.6417,-3.6417,-3.643,-3.6417,-3.6417,-3.6405,-3.6307,-3.6157,-3.6119,-3.6141,-3.5881,-3.5458,-3.5282,-3.5219,-3.4939,-3.4693,-3.468,-3.4718,-3.4718,-3.4693,-3.468,-3.4515,-3.406,-3.3851,-3.3658,-3.3416,-3.353,-3.3503,-3.3417,-3.3782,-3.4027,-3.4078,-3.4306,-3.4582,-3.4653,-3.458,-3.4592,-3.4592,-3.4604,-3.4592,-3.464,-3.4652,-3.4664,-3.4652,-3.4652,-3.464,-3.4592,-3.4335,-3.4237,-3.4347,-3.4482,-3.4592,-3.464,-3.464,-3.4689,-3.4677,-3.4726,-3.4775,-3.4775,-3.4775,-3.4775,-3.4775,-3.4763,-3.4631,-3.4667,-3.4558,-3.451,-3.4306,-3.4028,-3.3639,-3.3146,-3.2065,-3.071,-2.9476,-2.8289,-2.8137,-2.8143,-2.8047,-2.8262,-2.8291,-2.8291,-2.8301,-2.8301,-2.8301,-2.8301,-2.8301,-2.8301,-2.8301,-3.6933,-3.7285,-3.7688,-3.8316,-3.8932,-3.9158,-3.9408,-3.9647,-3.9697,-3.9697,-3.9622,-3.9383,-3.922,-3.917,-3.8868,-3.873,-3.8718,-3.8705,-3.873,-3.868,-3.8479,-3.8052,-3.7563,-3.7161,-3.7048,-3.701,-3.6845,-3.6757,-3.6707,-3.6543,-3.6417,-3.6417,-3.6417,-3.6417,-3.6392,-3.6417,-3.6417,-3.6342,-3.6031,-3.5893,-3.5843,-3.5579,-3.5466,-3.5416,-3.5403,-3.5416,-3.5416,-3.5416,-3.5194,-3.4682,-3.4421,-3.4342,-3.4206,-3.4265,-3.4271,-3.4123,-3.4516,-3.4666,-3.4558,-3.4727,-3.4751,-3.4775,-3.4775,-3.4775,-3.4883,-3.5113,-3.5319,-3.5343,-3.5417,-3.5454,-3.5417,-3.5272,-3.5151,-3.5126,-3.4884,-3.4689,-3.4592,-3.4677,-3.4775,-3.4775,-3.4775,-3.4775,-3.4775,-3.4775,-3.4775,-3.4775,-3.4775,-3.4775,-3.4775,-3.4775,-3.4775,-3.4775,-3.4775,-3.4679,-3.4594,-3.4376,-3.3962,-3.3502,-3.266,-3.1449,-3.0215,-2.8849,-2.8468,-2.8353,-2.8315,-2.8301,-2.8301,-2.8301,-2.8301,-2.8301,-2.8301,-2.8301,-2.8301,-2.8301,-2.8301,-3.7262,-3.745,-3.8504,-3.8906,-3.9095,-3.9484,-3.9659,-3.9697,-3.9697,-3.9697,-3.9685,-3.9685,-3.9609,-3.9697,-3.9509,-3.9634,-3.9622,-3.9509,-3.9584,-3.9421,-3.9145,-3.8693,-3.8304,-3.7927,-3.7826,-3.7789,-3.7462,-3.7312,-3.7186,-3.6857,-3.6656,-3.6707,-3.6644,-3.6518,-3.6556,-3.648,-3.6417,-3.6417,-3.6367,-3.6304,-3.6304,-3.6241,-3.6204,-3.6204,-3.6204,-3.6229,-3.6267,-3.6267,-3.5893,-3.4951,-3.4732,-3.474,-3.4732,-3.4885,-3.4952,-3.4932,-3.5134,-3.5246,-3.5199,-3.503,-3.4993,-3.509,-3.5065,-3.5016,-3.5307,-3.5855,-3.6222,-3.6222,-3.6419,-3.6407,-3.6407,-3.6051,-3.5916,-3.5831,-3.5588,-3.5369,-3.5114,-3.4895,-3.4775,-3.4775,-3.4775,-3.4775,-3.4775,-3.4775,-3.4775,-3.4775,-3.4775,-3.4775,-3.4775,-3.4775,-3.4775,-3.4775,-3.4775,-3.4775,-3.4702,-3.4556,-3.4152,-3.3683,-3.2762,-3.168,-3.0565,-2.9506,-2.8863,-2.8558,-2.8514,-2.8408,-2.8301,-2.8301,-2.8291,-2.8301,-2.8301,-2.8301,-2.8301,-2.8301,-2.8301,-3.7713,-3.858,-3.8818,-3.9132,-3.9496,-3.9647,-3.9697,-3.9697,-3.9697,-3.9697,-3.9697,-3.9697,-3.9697,-3.9697,-3.9697,-3.9697,-3.9697,-3.9697,-3.9697,-3.9685,-3.9609,-3.9471,-3.9107,-3.8517,-3.8065,-3.804,-3.7927,-3.7839,-3.7764,-3.7663,-3.7638,-3.755,-3.7174,-3.701,-3.6973,-3.6719,-3.6417,-3.6417,-3.6443,-3.6455,-3.6455,-3.643,-3.6417,-3.6417,-3.6417,-3.6417,-3.6417,-3.6417,-3.6292,-3.6069,-3.5956,-3.5775,-3.5825,-3.5903,-3.5849,-3.5744,-3.5736,-3.5716,-3.5585,-3.5489,-3.5636,-3.5954,-3.6027,-3.6272,-3.675,-3.6836,-3.7059,-3.7059,-3.7096,-3.7146,-3.706,-3.6985,-3.6875,-3.6826,-3.6751,-3.6726,-3.6566,-3.5648,-3.5028,-3.4895,-3.4895,-3.4835,-3.4859,-3.4847,-3.4835,-3.4787,-3.4775,-3.4775,-3.4775,-3.4775,-3.4775,-3.4775,-3.4775,-3.4775,-3.4726,-3.4628,-3.4286,-3.3892,-3.3035,-3.2269,-3.1146,-3.0287,-2.9754,-2.9185,-2.8674,-2.8568,-2.8451,-2.8344,-2.8344,-2.8344,-2.8291,-2.8301,-2.8301,-2.8301,-2.8301,-3.8078,-3.8881,-3.9157,-3.9421,-3.9672,-3.9697,-3.9697,-3.9697,-3.9697,-3.9697,-3.9697,-3.9697,-3.9697,-3.9697,-3.9697,-3.9697,-3.9697,-3.9697,-3.9697,-3.9697,-3.9685,-3.9685,-3.9647,-3.917,-3.8793,-3.8755,-3.8517,-3.8429,-3.8366,-3.8165,-3.7939,-3.8002,-3.7713,-3.7588,-3.7563,-3.7249,-3.7186,-3.7098,-3.686,-3.6747,-3.6734,-3.6531,-3.6417,-3.6417,-3.6417,-3.6417,-3.6417,-3.6417,-3.6417,-3.6417,-3.643,-3.6417,-3.6417,-3.6417,-3.6323,-3.6241,-3.6051,-3.6104,-3.6084,-3.6075,-3.6247,-3.6751,-3.6788,-3.6985,-3.7331,-3.7578,-3.7852,-3.7915,-3.794,-3.7991,-3.7668,-3.7606,-3.7618,-3.7606,-3.7518,-3.7468,-3.727,-3.6541,-3.5965,-3.5915,-3.5927,-3.5828,-3.5706,-3.5427,-3.5208,-3.5292,-3.4919,-3.4847,-3.4787,-3.4787,-3.4775,-3.4775,-3.4775,-3.4775,-3.4787,-3.464,-3.4433,-3.404,-3.3583,-3.2924,-3.2106,-3.1403,-3.0733,-3.0015,-2.9195,-2.8834,-2.8717,-2.8558,-2.8398,-2.8344,-2.8291,-2.8291,-2.8301,-2.8301,-2.8301,-3.8404,-3.9082,-3.9509,-3.9697,-3.9697,-3.9697,-3.9697,-3.9697,-3.9697,-3.9697,-3.9697,-3.9697,-3.9697,-3.9697,-3.9697,-3.9697,-3.9697,-3.9697,-3.9697,-3.9697,-3.9697,-3.9697,-3.9647,-3.9584,-3.9521,-3.9622,-3.9207,-3.9007,-3.8856,-3.8555,-3.8492,-3.8304,-3.8165,-3.8153,-3.814,-3.8002,-3.7864,-3.7764,-3.7475,-3.7312,-3.7274,-3.6923,-3.682,-3.6807,-3.682,-3.6832,-3.6832,-3.6807,-3.6732,-3.6656,-3.6656,-3.6656,-3.6619,-3.6443,-3.6493,-3.6471,-3.638,-3.6547,-3.6859,-3.6862,-3.6961,-3.7493,-3.7542,-3.7629,-3.7864,-3.8314,-3.8563,-3.8728,-3.8804,-3.878,-3.8354,-3.8367,-3.8329,-3.8241,-3.8104,-3.7954,-3.7904,-3.7754,-3.7616,-3.7108,-3.6748,-3.6538,-3.6425,-3.6142,-3.5921,-3.5665,-3.5292,-3.504,-3.5016,-3.5064,-3.5196,-3.5304,-3.5412,-3.5449,-3.5399,-3.5363,-3.5032,-3.4688,-3.4258,-3.3846,-3.3343,-3.3044,-3.2306,-3.0652,-2.9816,-2.9532,-2.9162,-2.892,-2.8708,-2.8451,-2.8291,-2.8291,-2.8301,-2.8301,-2.833,-3.8617,-3.9572,-3.9647,-3.9697,-3.9697,-3.9697,-3.9697,-3.9697,-3.9697,-3.9697,-3.9697,-3.9697,-3.9697,-3.9697,-3.9697,-3.9697,-3.9697,-3.9697,-3.9697,-3.9697,-3.9697,-3.9697,-3.9697,-3.9697,-3.9697,-3.9697,-3.9534,-3.9484,-3.9496,-3.9459,-3.922,-3.9245,-3.8931,-3.873,-3.8592,-3.8316,-3.8165,-3.8203,-3.799,-3.7877,-3.7826,-3.7688,-3.7563,-3.7563,-3.7538,-3.7575,-3.7638,-3.7688,-3.7726,-3.7726,-3.7726,-3.7688,-3.7475,-3.692,-3.6782,-3.6948,-3.7,-3.7202,-3.7616,-3.7729,-3.8029,-3.8467,-3.8579,-3.8817,-3.9092,-3.9331,-3.9331,-3.9432,-3.9445,-3.9471,-3.9446,-3.9245,-3.9358,-3.9371,-3.9232,-3.9181,-3.9193,-3.9067,-3.8627,-3.7852,-3.7453,-3.7241,-3.7189,-3.7,-3.6666,-3.647,-3.6166,-3.5997,-3.5985,-3.6019,-3.6102,-3.616,-3.6206,-3.6218,-3.6206,-3.6158,-3.5985,-3.5687,-3.5363,-3.5149,-3.4788,-3.4836,-3.3923,-3.2279,-3.104,-3.0538,-3.0129,-2.9538,-2.91,-2.8971,-2.8638,-2.834,-2.8496,-2.8643,-2.8516,-3.8668,-3.9672,-3.9697,-3.9697,-3.9697,-3.9697,-3.9697,-3.9697,-3.9697,-3.9697,-3.9697,-3.9697,-3.9697,-3.9697,-3.9697,-3.9697,-3.9697,-3.9697,-3.9697,-3.9697,-3.9697,-3.9697,-3.9697,-3.9697,-3.9697,-3.9697,-3.9697,-3.9697,-3.9697,-3.9672,-3.9697,-3.9634,-3.9396,-3.9295,-3.9258,-3.9069,-3.8856,-3.8818,-3.8605,-3.8454,-3.8404,-3.8228,-3.804,-3.8015,-3.8027,-3.8002,-3.8002,-3.8002,-3.799,-3.7977,-3.799,-3.8002,-3.7864,-3.7651,-3.7324,-3.7575,-3.7626,-3.7852,-3.8329,-3.8467,-3.8718,-3.9195,-3.9295,-3.9396,-3.9609,-3.9672,-3.9697,-3.9697,-3.9697,-3.9697,-3.9647,-3.9697,-3.9697,-3.9697,-3.9697,-3.9697,-3.9697,-3.9697,-3.9167,-3.8514,-3.8474,-3.8333,-3.8194,-3.7929,-3.7543,-3.7258,-3.7049,-3.695,-3.6937,-3.6911,-3.6933,-3.6947,-3.6933,-3.6882,-3.6843,-3.6804,-3.6777,-3.6525,-3.6335,-3.6129,-3.5916,-3.5808,-3.512,-3.393,-3.2894,-3.2036,-3.12,-3.0684,-3.0083,-2.9525,-2.9347,-2.9193,-2.9084,-2.9019,-2.8857,-3.8668,-3.9697,-3.9697,-3.9697,-3.9697,-3.9697,-3.9697,-3.9697,-3.9697,-3.9697,-3.9697,-3.9697,-3.9697,-3.9697,-3.9697,-3.9697,-3.9697,-3.9697,-3.9697,-3.9697,-3.9697,-3.9697,-3.9697,-3.9697,-3.9697,-3.9697,-3.9697,-3.9697,-3.9697,-3.9697,-3.9697,-3.9685,-3.9697,-3.9697,-3.9622,-3.9534,-3.9697,-3.9559,-3.9295,-3.9108,-3.8919,-3.8605,-3.8341,-3.8341,-3.8341,-3.8404,-3.8479,-3.8492,-3.8479,-3.8467,-3.8429,-3.8404,-3.8366,-3.8354,-3.8341,-3.8329,-3.8266,-3.8504,-3.8856,-3.9032,-3.9207,-3.9559,-3.9659,-3.9685,-3.9685,-3.9697,-3.9697,-3.9697,-3.9697,-3.9697,-3.9697,-3.9697,-3.9697,-3.9697,-3.9697,-3.9697,-3.9697,-3.9697,-3.9697,-3.9379,-3.9478,-3.921,-3.8856,-3.8755,-3.829,-3.8035,-3.7836,-3.7775,-3.7751,-3.7704,-3.7704,-3.767,-3.7657,-3.7555,-3.749,-3.7397,-3.7342,-3.7287,-3.7056,-3.69,-3.6729,-3.653,-3.5862,-3.5283,-3.4732,-3.3817,-3.2847,-3.1711,-3.1014,-3.0472,-3.0168,-2.9846,-2.9456,-2.9372,-2.9287,-3.8668,-3.9697,-3.9697,-3.9697,-3.9697,-3.9697,-3.9697,-3.9697,-3.9697,-3.9697,-3.9697,-3.9697,-3.9697,-3.9697,-3.9697,-3.9697,-3.9697,-3.9697,-3.9697,-3.9697,-3.9697,-3.9697,-3.9697,-3.9697,-3.9697,-3.9697,-3.9697,-3.9697,-3.9697,-3.9697,-3.9697,-3.9697,-3.9697,-3.9697,-3.9697,-3.9697,-3.9697,-3.9672,-3.9609,-3.9559,-3.9534,-3.9433,-3.9396,-3.9396,-3.9371,-3.9333,-3.9283,-3.927,-3.932,-3.9371,-3.9421,-3.9471,-3.9496,-3.9496,-3.9496,-3.9346,-3.9157,-3.9007,-3.9433,-3.9509,-3.9509,-3.9672,-3.9697,-3.9697,-3.9697,-3.9697,-3.9697,-3.9697,-3.9697,-3.9697,-3.9697,-3.9697,-3.9697,-3.9697,-3.9697,-3.9697,-3.9697,-3.9697,-3.9697,-3.9697,-3.9581,-3.9478,-3.9223,-3.9183,-3.9067,-3.8834,-3.8681,-3.8583,-3.8548,-3.8516,-3.8467,-3.8495,-3.8458,-3.8368,-3.8241,-3.8096,-3.7901,-3.7907,-3.775,-3.7605,-3.7352,-3.7175,-3.7168,-3.6625,-3.6071,-3.5154,-3.3888,-3.2748,-3.1904,-3.1209,-3.0756,-3.0178,-2.9616,-2.9655,-2.9756,-3.8668,-3.9697,-3.9697,-3.9697,-3.9697,-3.9697,-3.9697,-3.9697,-3.9697,-3.9697,-3.9697,-3.9697,-3.9697,-3.9697,-3.9697,-3.9697,-3.9697,-3.9697,-3.9697,-3.9697,-3.9697,-3.9697,-3.9697,-3.9697,-3.9697,-3.9697,-3.9697,-3.9697,-3.9697,-3.971,-3.9697,-3.9697,-3.9697,-3.9697,-3.9697,-3.9697,-3.9697,-3.9697,-3.9685,-3.9697,-3.9697,-3.9697,-3.9697,-3.9697,-3.9697,-3.9697,-3.9697,-3.9697,-3.9697,-3.9697,-3.9697,-3.9697,-3.9685,-3.9685,-3.9685,-3.9647,-3.9484,-3.9459,-3.9634,-3.9685,-3.9697,-3.9697,-3.9697,-3.9697,-3.9697,-3.9697,-3.9697,-3.9697,-3.9697,-3.9697,-3.9697,-3.9697,-3.9697,-3.9697,-3.9697,-3.9697,-3.9697,-3.9697,-3.9697,-3.9697,-3.9697,-3.9581,-3.9478,-3.9465,-3.9401,-3.9324,-3.9196,-3.921,-3.9237,-3.9264,-3.9264,-3.9237,-3.9225,-3.9173,-3.9032,-3.8864,-3.8479,-3.8371,-3.8162,-3.8028,-3.7918,-3.782,-3.7655,-3.7281,-3.6626,-3.566,-3.462,-3.3671,-3.2667,-3.1917,-3.1224,-3.0707,-3.0278,-3.0331,-3.04,-3.8592,-3.9484,-3.9634,-3.9697,-3.9697,-3.9697,-3.9697,-3.9697,-3.9697,-3.9697,-3.9697,-3.9697,-3.9697,-3.9697,-3.9697,-3.9697,-3.9697,-3.9697,-3.9697,-3.9697,-3.9697,-3.9697,-3.9697,-3.9697,-3.9697,-3.971,-3.9697,-3.981,-3.9923,-3.991,-3.9885,-3.971,-3.9697,-3.9697,-3.9697,-3.9697,-3.9697,-3.9697,-3.9697,-3.9697,-3.9697,-3.9697,-3.9697,-3.9697,-3.9697,-3.9697,-3.9697,-3.9697,-3.9697,-3.9697,-3.9697,-3.9697,-3.9697,-3.9697,-3.9697,-3.9685,-3.9622,-3.9634,-3.9685,-3.9697,-3.9697,-3.9697,-3.9697,-3.9697,-3.9697,-3.9697,-3.9697,-3.9697,-3.9697,-3.9697,-3.9697,-3.9697,-3.9697,-3.9697,-3.9697,-3.9697,-3.9722,-3.9798,-3.9772,-3.9697,-3.9697,-3.9697,-3.9645,-3.9697,-3.9697,-3.9697,-3.9697,-3.9697,-3.9697,-3.9697,-3.9645,-3.9581,-3.953,-3.953,-3.9426,-3.927,-3.8998,-3.8736,-3.8566,-3.8356,-3.8185,-3.7986,-3.7773,-3.74,-3.697,-3.6162,-3.5108,-3.4238,-3.3388,-3.253,-3.1744,-3.1359,-3.1072,-3.1005,-3.0879,-3.8366,-3.8956,-3.9471,-3.9697,-3.9697,-3.9697,-3.9697,-3.9697,-3.9697,-3.9697,-3.9697,-3.9697,-3.9697,-3.9697,-3.971,-3.9722,-3.9722,-3.9697,-3.9823,-3.981,-3.9722,-3.9873,-3.9923,-3.9923,-3.9835,-3.9835,-3.9948,-4.0174,-4.035,-4.0463,-4.0162,-3.9785,-3.9986,-3.981,-3.9835,-3.9998,-3.9961,-3.9961,-3.9948,-3.9848,-3.981,-3.976,-3.9747,-3.971,-3.9697,-3.9697,-3.9697,-3.9697,-3.9697,-3.9697,-3.9697,-3.9697,-3.9697,-3.9697,-3.9697,-3.9697,-3.9697,-3.9697,-3.9697,-3.9697,-3.9697,-3.9697,-3.9697,-3.9697,-3.9697,-3.9697,-3.9697,-3.9722,-3.9785,-3.981,-3.9772,-3.9735,-3.9973,-4.0036,-4.0136,-4.0111,-4.0111,-4.0023,-3.9973,-3.9772,-3.9747,-3.9823,-3.9697,-3.9697,-3.9697,-3.9697,-3.9697,-3.9697,-3.9697,-3.9697,-3.9697,-3.9645,-3.9697,-3.9645,-3.9645,-3.9438,-3.9218,-3.8945,-3.8684,-3.8461,-3.8303,-3.8092,-3.788,-3.7465,-3.7036,-3.632,-3.5609,-3.468,-3.3784,-3.2913,-3.217,-3.1614,-3.117,-3.0947,-3.0898,-3.8128,-3.8429,-3.9308,-3.9697,-3.9697,-3.9697,-3.9697,-3.9697,-3.9697,-3.9697,-3.9697,-3.9697,-3.9697,-3.9697,-3.9722,-3.9898,-4.0149,-4.0199,-4.0375,-4.0626,-4.0714,-4.0701,-4.0701,-4.0651,-4.0727,-4.0664,-4.0676,-4.0752,-4.099,-4.0974,-4.0899,-4.0752,-4.0714,-4.0727,-4.0727,-4.0601,-4.0626,-4.0651,-4.0639,-4.0576,-4.0212,-4.0162,-4.0036,-3.971,-3.9697,-3.9697,-3.9697,-3.9697,-3.9697,-3.9722,-3.9747,-3.9785,-3.981,-3.9798,-3.9798,-3.9798,-3.981,-3.9798,-3.9772,-3.9747,-3.9697,-3.9697,-3.9697,-3.9747,-3.9823,-3.9735,-3.971,-3.9785,-4.0049,-4.0187,-4.0224,-4.0501,-4.0724,-4.0674,-4.0664,-4.0548,-4.0551,-4.0475,-4.0375,-4.0275,-4.0149,-4.0111,-3.991,-3.9697,-3.9697,-3.9697,-3.9697,-3.9697,-3.9697,-3.9697,-3.9697,-3.9697,-3.9697,-3.9697,-3.9697,-3.9542,-3.9438,-3.9114,-3.8788,-3.8566,-3.8356,-3.8133,-3.788,-3.7518,-3.7155,-3.6538,-3.5829,-3.5024,-3.4065,-3.3084,-3.2285,-3.1614,-3.1286,-3.0947,-3.0898,-3.8115,-3.8366,-3.9295,-3.9697,-3.9697,-3.9697,-3.9697,-3.9697,-3.9697,-3.9697,-3.9697,-3.9697,-3.9697,-3.9722,-3.9923,-4.0111,-4.0475,-4.0676,-4.0924,-4.1087,-4.1175,-4.1275,-4.1275,-4.1225,-4.1125,-4.1275,-4.13,-4.1288,-4.158,-4.158,-4.1693,-4.1781,-4.1794,-4.1693,-4.1225,-4.1288,-4.1288,-4.1275,-4.1238,-4.115,-4.0777,-4.0739,-4.0611,-4.0287,-4.0287,-4.03,-4.0325,-4.035,-4.0312,-4.03,-4.0287,-4.0224,-4.0212,-4.0199,-4.0187,-4.0174,-4.0174,-4.0162,-4.0162,-4.0011,-4.0049,-4.0287,-4.03,-4.0275,-4.0187,-4.0174,-4.035,-4.0312,-4.0588,-4.0777,-4.0789,-4.0974,-4.11,-4.1,-4.1025,-4.0987,-4.1012,-4.0962,-4.0915,-4.0814,-4.0701,-4.0586,-4.0563,-4.035,-4.0036,-3.9923,-3.9697,-3.9697,-3.9697,-3.9697,-3.9697,-3.9697,-3.9697,-3.9697,-3.9697,-3.9594,-3.949,-3.9218,-3.8893,-3.8566,-3.8356,-3.8133,-3.7974,-3.772,-3.7346,-3.6808,-3.6102,-3.5345,-3.4334,-3.3243,-3.2399,-3.1508,-3.117,-3.0898,-3.0898,-3.8316,-3.8906,-3.9459,-3.9697,-3.9697,-3.9697,-3.9697,-3.9697,-3.9697,-3.9697,-3.971,-3.9722,-3.9772,-3.9885,-4.0287,-4.0626,-4.0827,-4.1153,-4.1376,-4.1489,-4.1656,-4.1426,-4.1426,-4.1501,-4.1681,-4.1351,-4.1501,-4.1869,-4.22,-4.2187,-4.2384,-4.2635,-4.2585,-4.2333,-4.1401,-4.1313,-4.1313,-4.1313,-4.1401,-4.1388,-4.1342,-4.1263,-4.1241,-4.1012,-4.0949,-4.0924,-4.0912,-4.0965,-4.0899,-4.0912,-4.0949,-4.0949,-4.0974,-4.1,-4.1012,-4.1037,-4.1087,-4.1137,-4.12,-4.0789,-4.0802,-4.1003,-4.0862,-4.0937,-4.1112,-4.115,-4.1091,-4.0849,-4.1216,-4.1317,-4.1288,-4.1351,-4.1451,-4.1526,-4.163,-4.1656,-4.1706,-4.1706,-4.163,-4.1404,-4.1329,-4.125,-4.1225,-4.1062,-4.0601,-4.0237,-3.9848,-3.9747,-3.9898,-3.986,-3.991,-3.9835,-3.9835,-3.9697,-3.9697,-3.9697,-3.9594,-3.927,-3.8998,-3.8619,-3.8356,-3.8145,-3.7986,-3.788,-3.7453,-3.6862,-3.632,-3.5676,-3.4379,-3.3016,-3.2123,-3.1392,-3.1122,-3.0898,-3.0898,-3.8341,-3.8919,-3.9471,-3.9697,-3.9697,-3.9697,-3.9697,-3.9697,-3.9697,-3.9697,-3.9785,-4.0036,-4.0237,-4.0413,-4.0802,-4.1229,-4.158,-4.1706,-4.1969,-4.2371,-4.2346,-4.2434,-4.2384,-4.2308,-4.2359,-4.2421,-4.2446,-4.2396,-4.271,-4.269,-4.2778,-4.2949,-4.2961,-4.2785,-4.2522,-4.2421,-4.2446,-4.2434,-4.2409,-4.2283,-4.1932,-4.1869,-4.1731,-4.1376,-4.1363,-4.1388,-4.1401,-4.1426,-4.1426,-4.1413,-4.1426,-4.1401,-4.1401,-4.1388,-4.1363,-4.1326,-4.1313,-4.153,-4.1731,-4.1656,-4.1492,-4.148,-4.1376,-4.1401,-4.13,-4.1275,-4.1275,-4.1413,-4.1743,-4.1831,-4.1894,-4.2271,-4.2446,-4.2497,-4.2534,-4.2522,-4.2547,-4.2522,-4.2434,-4.2057,-4.1869,-4.1656,-4.1555,-4.1681,-4.1317,-4.1141,-4.084,-4.0664,-4.0739,-4.0438,-4.0312,-4.0136,-4.0023,-3.981,-3.9722,-3.9961,-3.9738,-3.9346,-3.8988,-3.8619,-3.8356,-3.814,-3.7933,-3.7838,-3.74,-3.6916,-3.6157,-3.5224,-3.3931,-3.2742,-3.196,-3.1334,-3.1005,-3.0898,-3.0898,-3.8454,-3.9182,-3.9534,-3.9697,-3.9697,-3.9697,-3.9697,-3.9697,-3.971,-3.9785,-4.0036,-4.0375,-4.0639,-4.0902,-4.1367,-4.1731,-4.2225,-4.2451,-4.2509,-4.2974,-4.2961,-4.2886,-4.2911,-4.2986,-4.2836,-4.2986,-4.2986,-4.2961,-4.2924,-4.2961,-4.2974,-4.2961,-4.2986,-4.2936,-4.2898,-4.2886,-4.2898,-4.2861,-4.2798,-4.2791,-4.2564,-4.2464,-4.2296,-4.2082,-4.1982,-4.1969,-4.1919,-4.1894,-4.1882,-4.1869,-4.1869,-4.1882,-4.1882,-4.1894,-4.1894,-4.1907,-4.1944,-4.2133,-4.2401,-4.2476,-4.2233,-4.2057,-4.1907,-4.1907,-4.1907,-4.202,-4.2007,-4.2108,-4.2246,-4.2346,-4.2539,-4.2924,-4.2936,-4.2949,-4.2949,-4.2924,-4.2911,-4.2861,-4.2823,-4.2539,-4.2401,-4.2095,-4.1932,-4.202,-4.202,-4.1969,-4.1907,-4.1718,-4.1426,-4.1103,-4.0802,-4.0664,-4.0551,-4.045,-4.04,-4.0475,-4.0134,-3.9496,-3.919,-3.8925,-3.8432,-3.8238,-3.8023,-3.7744,-3.7304,-3.6754,-3.5774,-3.4725,-3.3526,-3.2628,-3.1903,-3.1392,-3.1005,-3.0898,-3.0898,-3.8668,-3.9622,-3.9697,-3.9697,-3.9697,-3.9697,-3.9697,-3.971,-3.9735,-4.0036,-4.0488,-4.0576,-4.0965,-4.1417,-4.1932,-4.2263,-4.2351,-4.2778,-4.2886,-4.2961,-4.2986,-4.2986,-4.2986,-4.2986,-4.2986,-4.2986,-4.2986,-4.2986,-4.2986,-4.2986,-4.2986,-4.2986,-4.2986,-4.2986,-4.2986,-4.2986,-4.2986,-4.2986,-4.2974,-4.2911,-4.2811,-4.2861,-4.2785,-4.2672,-4.2685,-4.2698,-4.2698,-4.2723,-4.2773,-4.2811,-4.2848,-4.2886,-4.2924,-4.2961,-4.2961,-4.2936,-4.2861,-4.2848,-4.2904,-4.2836,-4.2848,-4.2672,-4.2785,-4.2911,-4.2836,-4.2672,-4.261,-4.2635,-4.276,-4.2836,-4.2974,-4.2974,-4.2974,-4.2974,-4.2974,-4.2974,-4.2974,-4.2961,-4.2961,-4.2861,-4.2848,-4.2723,-4.266,-4.2698,-4.2497,-4.2534,-4.2434,-4.2246,-4.1982,-4.1605,-4.1367,-4.1317,-4.1229,-4.115,-4.11,-4.0937,-4.0607,-3.9976,-3.9824,-3.9528,-3.8982,-3.8527,-3.8359,-3.8024,-3.7387,-3.658,-3.5378,-3.4312,-3.3233,-3.2457,-3.173,-3.1334,-3.0947,-3.0898,-3.0898,-3.8668,-3.9659,-3.9697,-3.9697,-3.9697,-3.9697,-3.9697,-3.9735,-4.0086,-4.0413,-4.0551,-4.1354,-4.1693,-4.1982,-4.2552,-4.2685,-4.2785,-4.2873,-4.2936,-4.2986,-4.2986,-4.2986,-4.2986,-4.2986,-4.2986,-4.2986,-4.2986,-4.2986,-4.2986,-4.2986,-4.2986,-4.2986,-4.2986,-4.2986,-4.2986,-4.2986,-4.2986,-4.2986,-4.2986,-4.2986,-4.2986,-4.2986,-4.2986,-4.2986,-4.2986,-4.2986,-4.2986,-4.2986,-4.2986,-4.2986,-4.2986,-4.2986,-4.2986,-4.2986,-4.2974,-4.2974,-4.2961,-4.2974,-4.2986,-4.2986,-4.2986,-4.2986,-4.2986,-4.2986,-4.2974,-4.2986,-4.2986,-4.2986,-4.2986,-4.2986,-4.2986,-4.2986,-4.2986,-4.2986,-4.2986,-4.2986,-4.2986,-4.2986,-4.2986,-4.2986,-4.2986,-4.2986,-4.2986,-4.2949,-4.2785,-4.2911,-4.2898,-4.2685,-4.2484,-4.212,-4.1932,-4.1894,-4.1781,-4.1718,-4.1451,-4.1275,-4.0939,-4.0565,-4.0382,-4.0104,-3.957,-3.9097,-3.8827,-3.8328,-3.7613,-3.6351,-3.4869,-3.3952,-3.3209,-3.219,-3.145,-3.117,-3.0947,-3.0947,-3.0898,-3.8668,-3.9634,-3.9697,-3.9697,-3.9697,-3.9697,-3.9697,-3.9798,-4.0275,-4.0614,-4.094,-4.1756,-4.2326,-4.2564,-4.2798,-4.2949,-4.2949,-4.2949,-4.2986,-4.2986,-4.2986,-4.2986,-4.2986,-4.2986,-4.2986,-4.2986,-4.2986,-4.2986,-4.2986,-4.2986,-4.2986,-4.2986,-4.2986,-4.2986,-4.2986,-4.2986,-4.2986,-4.2986,-4.2986,-4.2986,-4.2986,-4.2986,-4.2986,-4.2986,-4.2986,-4.2986,-4.2986,-4.2986,-4.2986,-4.2986,-4.2986,-4.2986,-4.2986,-4.2986,-4.2986,-4.2986,-4.2986,-4.2986,-4.2986,-4.2986,-4.2986,-4.2986,-4.2986,-4.2986,-4.2986,-4.2986,-4.2986,-4.2986,-4.2986,-4.2986,-4.2986,-4.2986,-4.2986,-4.2986,-4.2986,-4.2986,-4.2986,-4.2986,-4.2986,-4.2986,-4.2986,-4.2986,-4.2986,-4.2986,-4.2986,-4.2986,-4.2986,-4.2911,-4.2798,-4.2635,-4.2497,-4.2472,-4.2308,-4.2158,-4.1944,-4.1789,-4.1574,-4.1299,-4.0973,-4.0636,-4.0077,-3.9602,-3.9235,-3.8556,-3.7804,-3.6608,-3.5502,-3.4288,-3.3408,-3.2452,-3.1666,-3.1297,-3.1054,-3.0947,-3.0898,-3.8705,-3.9697,-3.9697,-3.9697,-3.9697,-3.9697,-3.9697,-3.9772,-4.0362,-4.0811,-4.1354,-4.2024,-4.259,-4.2823,-4.2974,-4.2986,-4.2986,-4.2986,-4.2986,-4.2986,-4.2986,-4.2986,-4.2986,-4.2986,-4.2986,-4.2986,-4.2986,-4.2986,-4.2986,-4.2986,-4.2986,-4.2986,-4.2986,-4.2986,-4.2986,-4.2986,-4.2986,-4.2986,-4.2986,-4.2986,-4.2986,-4.2986,-4.2986,-4.2986,-4.2986,-4.2986,-4.2986,-4.2986,-4.2986,-4.2986,-4.2986,-4.2986,-4.2986,-4.2986,-4.2986,-4.2986,-4.2986,-4.2986,-4.2986,-4.2986,-4.2986,-4.2986,-4.2986,-4.2986,-4.2986,-4.2986,-4.2986,-4.2986,-4.2986,-4.2986,-4.2986,-4.2986,-4.2986,-4.2986,-4.2986,-4.2986,-4.2986,-4.2986,-4.2986,-4.2986,-4.2986,-4.2986,-4.2986,-4.2986,-4.2986,-4.2986,-4.2986,-4.2986,-4.2961,-4.2911,-4.2886,-4.2861,-4.271,-4.2559,-4.261,-4.2461,-4.2401,-4.2084,-4.1589,-4.1155,-4.062,-4.0114,-3.9594,-3.8983,-3.8339,-3.7515,-3.6477,-3.5242,-3.4033,-3.3087,-3.2335,-3.1601,-3.1269,-3.1221,-3.0957,-3.9057,-3.9672,-3.9697,-3.9697,-3.9697,-3.9697,-3.9697,-3.9798,-4.0686,-4.1137,-4.1451,-4.2283,-4.2823,-4.2949,-4.2986,-4.2986,-4.2986,-4.2986,-4.2986,-4.2986,-4.2986,-4.2986,-4.2986,-4.2986,-4.2986,-4.2986,-4.2986,-4.2986,-4.2986,-4.2986,-4.2986,-4.2986,-4.2986,-4.2986,-4.2986,-4.2999,-4.3062,-4.3087,-4.3175,-4.3175,-4.3162,-4.3037,-4.2986,-4.2986,-4.2986,-4.2986,-4.2986,-4.2986,-4.2986,-4.2986,-4.2986,-4.2986,-4.2986,-4.2986,-4.2986,-4.2986,-4.2986,-4.2986,-4.2986,-4.2986,-4.2986,-4.2986,-4.2986,-4.2986,-4.2986,-4.2986,-4.2986,-4.2986,-4.2986,-4.2986,-4.2986,-4.2986,-4.2986,-4.2986,-4.2986,-4.2986,-4.2986,-4.2986,-4.2986,-4.2986,-4.2986,-4.2986,-4.2986,-4.2986,-4.2986,-4.2986,-4.2986,-4.2986,-4.2986,-4.2949,-4.2949,-4.2936,-4.2949,-4.2886,-4.2986,-4.293,-4.265,-4.2381,-4.1921,-4.1501,-4.107,-4.0595,-4.0086,-3.9593,-3.8932,-3.8248,-3.7349,-3.6068,-3.4943,-3.3916,-3.3113,-3.2433,-3.2058,-3.1968,-3.1495,-3.9195,-3.9672,-3.9697,-3.9697,-3.9697,-3.9697,-3.9697,-3.9898,-4.0865,-4.1275,-4.1438,-4.2421,-4.2986,-4.2986,-4.2986,-4.2986,-4.2986,-4.2986,-4.2986,-4.2986,-4.2986,-4.2986,-4.2986,-4.2986,-4.2986,-4.2986,-4.2986,-4.2986,-4.3024,-4.2986,-4.2986,-4.3024,-4.3024,-4.3037,-4.3105,-4.3175,-4.3338,-4.3363,-4.3526,-4.3639,-4.3539,-4.3325,-4.3037,-4.2986,-4.2999,-4.3011,-4.2986,-4.2986,-4.2986,-4.2986,-4.2986,-4.2986,-4.2986,-4.2986,-4.2986,-4.2986,-4.2986,-4.2986,-4.2986,-4.2986,-4.2986,-4.2986,-4.2986,-4.2986,-4.2986,-4.2986,-4.2986,-4.2986,-4.2986,-4.2986,-4.2986,-4.2986,-4.2986,-4.2986,-4.2986,-4.2986,-4.2986,-4.2986,-4.2986,-4.2986,-4.2986,-4.2986,-4.2986,-4.2986,-4.2986,-4.2986,-4.2986,-4.2986,-4.2986,-4.2986,-4.2986,-4.2986,-4.2986,-4.2986,-4.2986,-4.2874,-4.2706,-4.2437,-4.2098,-4.1651,-4.1224,-4.0965,-4.0602,-4.0218,-3.9746,-3.9217,-3.824,-3.7099,-3.5845,-3.4721,-3.3986,-3.3324,-3.3035,-3.2631,-3.2134,-3.927,-3.9672,-3.9697,-3.9697,-3.9697,-3.9697,-3.9697,-3.9885,-4.0852,-4.1275,-4.1438,-4.2509,-4.2924,-4.2986,-4.2986,-4.2986,-4.2986,-4.2986,-4.2986,-4.2986,-4.2986,-4.2986,-4.2986,-4.2986,-4.2986,-4.2986,-4.2986,-4.3087,-4.3187,-4.3187,-4.3225,-4.3175,-4.3187,-4.3212,-4.3325,-4.3589,-4.3903,-4.3991,-4.4166,-4.4468,-4.4179,-4.374,-4.3463,-4.3263,-4.3175,-4.3187,-4.32,-4.3212,-4.3225,-4.3187,-4.3237,-4.3074,-4.2999,-4.2986,-4.2986,-4.2986,-4.2986,-4.2986,-4.2986,-4.2986,-4.2986,-4.2986,-4.2986,-4.2986,-4.2986,-4.2986,-4.2986,-4.2986,-4.2986,-4.2986,-4.2986,-4.2986,-4.2986,-4.2986,-4.2986,-4.2986,-4.2986,-4.2986,-4.2986,-4.2986,-4.2986,-4.2986,-4.2986,-4.2986,-4.2986,-4.2986,-4.2986,-4.2986,-4.2986,-4.2986,-4.2986,-4.2986,-4.2986,-4.2986,-4.2986,-4.293,-4.2818,-4.2381,-4.2041,-4.17,-4.139,-4.1154,-4.1004,-4.1019,-4.0542,-3.9927,-3.9244,-3.8352,-3.6986,-3.5688,-3.5125,-3.4519,-3.3649,-3.3323,-3.2878,-3.9597,-3.9697,-3.9697,-3.9697,-3.9697,-3.9697,-3.9697,-3.9885,-4.0852,-4.1275,-4.1564,-4.2409,-4.2986,-4.2986,-4.2986,-4.2986,-4.2986,-4.2986,-4.2986,-4.2986,-4.2986,-4.2986,-4.3024,-4.3087,-4.3011,-4.3049,-4.3162,-4.3288,-4.3576,-4.3664,-4.3853,-4.4166,-4.4217,-4.4242,-4.4279,-4.4455,-4.4493,-4.4568,-4.4618,-4.4819,-4.4744,-4.4455,-4.4392,-4.4305,-4.4317,-4.4317,-4.4317,-4.4317,-4.4317,-4.4192,-4.3865,-4.3489,-4.33,-4.3187,-4.3162,-4.3124,-4.3112,-4.3024,-4.3037,-4.2986,-4.2986,-4.2986,-4.2986,-4.2986,-4.2986,-4.2986,-4.2986,-4.2986,-4.2986,-4.2986,-4.2986,-4.2986,-4.2986,-4.2986,-4.2986,-4.2986,-4.2986,-4.2986,-4.2986,-4.2986,-4.2986,-4.2986,-4.2986,-4.2986,-4.2986,-4.2986,-4.2986,-4.2986,-4.2986,-4.2986,-4.2986,-4.2986,-4.2986,-4.2986,-4.2986,-4.2974,-4.2806,-4.2369,-4.1984,-4.1643,-4.1414,-4.1242,-4.1184,-4.1196,-4.0954,-4.0407,-3.9803,-3.9162,-3.8329,-3.7143,-3.6456,-3.5752,-3.4739,-3.3907,-3.3406]},{"header":{"parameterUnit":"m.s-1","parameterCategory":1,"la1":31.0,"la2":29.5877,"lo1":-88.7671,"lo2":-86.6584,"dy":0.0162,"dx":0.0185,"nx":115,"ny":88,"refTime":"2026-03-05T00:00:00:Z","depth":0,"parameterNumber":3,"parameterNumberName":"V-component_of_WINDS"},"data":[0.0,0.0,0.0,0.0,0.0,0.0,0.0,0.0,0.0,0.0,0.0,0.0,0.0,0.0,0.0,0.0,0.0,0.0,0.0,0.0,0.0,0.0,0.0,0.0,0.0,0.0,0.0,0.0,0.0,0.0,0.0,0.0,0.0,0.0,0.0,0.0,0.0,0.0,0.0,0.0,0.0,0.0,0.0,0.0,0.0,0.0,0.0,0.0,0.0,0.0,0.0,0.0,0.0,0.0,0.0,0.0,0.0,0.0,0.0,0.0,0.0,0.0,0.0,0.0,0.0,0.0,0.0,0.0,0.0,0.0,0.0,0.0,0.0,0.0,0.0,0.0,0.0,0.0,0.0,0.0,0.0,0.0,0.0,0.0,0.0,0.0,0.0,0.0,0.0,0.0,0.0,0.0,0.0,0.0,0.0,0.0,0.0,0.0,0.0,0.0,0.0,0.0,0.0,0.0,0.0,0.0,0.0,0.0,0.0,0.0,0.0,0.0,0.0,0.0,0.0,0.0,0.0,0.0,0.0,0.0,0.0,0.0,0.0,0.0,0.0,0.0,0.0,0.0,0.0,0.0,0.0,0.0,0.0,0.0,0.0,0.0,0.0,0.0,0.0,0.0,0.0,0.0,0.0,0.0,0.0,0.0,0.0,0.0,0.0,0.0,0.0,0.0,0.0,0.0,0.0,0.0,0.0,0.0,0.0,0.0,0.0,0.0,0.0,0.0,0.0,0.0,0.0,0.0,0.0,0.0,0.0,0.0,0.0,0.0,0.0,0.0,0.0,0.0,0.0,0.0,0.0,0.0,0.0,0.0,0.0,0.0,0.0,0.0,0.0,0.0,0.0,0.0,0.0,0.0,0.0,0.0,0.0,0.0,0.0,0.0,0.0,0.0,0.0,0.0,0.0,0.0,0.0,0.0,0.0,0.0,0.0,0.0,0.0,0.0,0.0,0.0,0.0,0.0,0.0,0.0,0.0,0.0,0.0,0.0,0.0,0.0,0.0,0.0,0.0,0.0,0.0,0.0,0.0,0.0,0.0,0.0,0.0,0.0,0.0,0.0,0.0,0.0,0.0,0.0,0.0,0.0,0.0,0.0,0.0,0.0,0.0,0.0,0.0,0.0,0.0,0.0,0.0,0.0,0.0,0.0,0.0,0.0,0.0,0.0,0.0,0.0,0.0,0.0,0.0,0.0,0.0,0.0,0.0,0.0,0.0,0.0,0.0,0.0,0.0,0.0,0.0,0.0,0.0,0.0,0.0,0.0,0.0,0.0,0.0,0.0,0.0,0.0,0.0,0.0,0.0,0.0,0.0,0.0,0.0,0.0,0.0,0.0,0.0,0.0,0.0,0.0,0.0,0.0,0.0,0.0,0.0,0.0,0.0,0.0,0.0,0.0,0.0,0.0,0.0,0.0,0.0,0.0,0.0,0.0,0.0,0.0,0.0,0.0,0.0,0.0,0.0,0.0,0.0,0.0,0.0,0.0,0.0,0.0,0.0,0.0,0.0,0.0,0.0,0.0,0.0,0.0,0.0,0.0,0.0,0.0,0.0,0.0,0.0,0.0,0.0,0.0,0.0,0.0,0.0,0.0,0.0,0.0,0.0,0.0,0.0,0.0,0.0,0.0,0.0,0.0,0.0,0.0,0.0,0.0,0.0,0.0,0.0,0.0,0.0,0.0,0.0,0.0,0.0,0.0,0.0,0.0,0.0,0.0,0.0,0.0,0.0,0.0,0.0,0.0,0.0,0.0,0.0,0.0,0.0,0.0,0.0,0.0,0.0,0.0,0.0,0.0,0.0,0.0,0.0,0.0,0.0,0.0,0.0,0.0,0.0,0.0,0.0,0.0,0.0,0.0,0.0,0.0,0.0,0.0,0.0,0.0,0.0,0.0,0.0,0.0,0.0,0.0,0.0,0.0,0.0,0.0,0.0,0.0,0.0,0.0,0.0,0.0,0.0,0.0,0.0,0.0,0.0,0.0,0.0,0.0,0.0,0.0,0.0,0.0,0.0,0.0,0.0,0.0,0.0,0.0,0.0,0.0,0.0,0.0,0.0,0.0,0.0,0.0,0.0,0.0,0.0,0.0,0.0,0.0,0.0,0.0,0.0,0.0,0.0,0.0,0.0,0.0,0.0,0.0,0.0,0.0,0.0,0.0,0.0,0.0,0.0,0.0,0.0,0.0,0.0,0.0,0.0,0.0,0.0,0.0,0.0,0.0,0.0,0.0,0.0,0.0,0.0,0.0,0.0,0.0,0.0,0.0,0.0,0.0,0.0,0.0,0.0,0.0,0.0,0.0,0.0,0.0,0.0,0.0,0.0,0.0,0.0,0.0,0.0,0.0,0.0,0.0,0.0,0.0,0.0,0.0,0.0,0.0,0.0,0.0,0.0,0.0,0.0,0.0,0.0,0.0,0.0,0.0,0.0,0.0,0.0,0.0,0.0,0.0,0.0,0.0,0.0,0.0,0.0,0.0,0.0,0.0,0.0,0.0,0.0,0.0,0.0,0.0,0.0,0.0,0.0,0.0,0.0,0.0,0.0,0.0,0.0,0.0,0.0,0.0,0.0,0.0,0.0,0.0,0.0,0.0,0.0,0.0,0.0,0.0,0.0,0.0,0.0,0.0,0.0,0.0,0.0,0.0,0.0,0.0,0.0,0.0,0.0,0.0,0.0,0.0,0.0,0.0,0.0,0.0,0.0,0.0,0.0,0.0,0.0,0.0,0.0,0.0,0.0,0.0,0.0,0.0,0.0,0.0,0.0,0.0,0.0,0.0,0.0,0.0,0.0,0.0,0.0,0.0,0.0,0.0,0.0,0.0,0.0,0.0,0.0,0.0,0.0,0.0,0.0,0.0,0.0,0.0,0.0,0.0,0.0,0.0,0.0,0.0,0.0,0.0,0.0,0.0,0.0,0.0,0.0,0.0,0.0,0.0,0.0,0.0,0.0,0.0,0.0,0.0,0.0,0.0,0.0,0.0,0.0,0.0,0.0,0.0,0.0,0.0,0.0,0.0,0.0,0.0,0.0,0.0,0.0,0.0,0.0,0.0,0.0,0.0,0.0,0.0,0.0,0.0,0.0,0.0,0.0,0.0,0.0,0.0,0.0,0.0,0.0,0.0,0.0,0.0,0.0,0.0,0.0,0.0,0.0,0.0,0.0,0.0,0.0,0.0,0.0,0.0,0.0,0.0,0.0,0.0,0.0,0.0,0.0,0.0,0.0,0.0,0.0,0.0,0.0,0.0,0.0,0.0,0.0,0.0,0.0,0.0,0.0,0.0,0.0,0.0,0.0,0.0,0.0,0.0,0.0,0.0,0.0,0.0,0.0,0.0,0.0,0.0,0.0,0.0,0.0,0.0,0.0,0.0,0.0,0.0,0.0,0.0,0.0,0.0,0.0,0.0,0.0,0.0,0.0,0.0,0.0,0.0,0.0,0.0,0.0,0.0,0.0,0.0,0.0,0.0,0.0,0.0,0.0,0.0,0.0,0.0,0.0,0.0,0.0,0.0,0.0,0.0,0.0,0.0,0.0,0.0,0.0,0.0,0.0,0.0,0.0,0.0,0.0,0.0,0.0,0.0,0.0,0.0,0.0,0.0,0.0,0.0,0.0,0.0,0.0,0.0,0.0,0.0,0.0,0.0,0.0,0.0,0.0,0.0,0.0,0.0,0.0,0.0,0.0,0.0,0.0,0.0,0.0,0.0,0.0,0.0,0.0,0.0,0.0,0.0,0.0,0.0,0.0,0.0,0.0,0.0,0.0,0.0,0.0,0.0,0.0,0.0,0.0,0.0,0.0,0.0,0.0,0.0,0.0,0.0,0.0,0.0,0.0,0.0,0.0,0.0,0.0,0.0,0.0,0.0,0.0,0.0,0.0,0.0,0.0,0.0,0.0,0.0,0.0,0.0,0.0,0.0,0.0,0.0,0.0,0.0,0.0,0.0,0.0,0.0,0.0,0.0,0.0,0.0,0.0,0.0,0.0,0.0,0.0,0.0,0.0,0.0,0.0,0.0,0.0,0.0,0.0,0.0,0.0,0.0,0.0,0.0,0.0,0.0,0.0,0.0,0.0,0.0,0.0,0.0,0.0,0.0,0.0,0.0,0.0,0.0,0.0,0.0,0.0,0.0,0.0,0.0,0.0,0.0,0.0,0.0,0.0,0.0,0.0,0.0,0.0,0.0,0.0,0.0,0.0,0.0,0.0,0.0,0.0,0.0,0.0,0.0,0.0,0.0,0.0,0.0,0.0,0.0,0.0,0.0,0.0,0.0,1.9098,0.0,0.0,0.0,0.0,0.0,0.0,0.0,0.0,0.0,0.0,0.0,0.0,0.0,0.0,0.0,0.0,0.0,0.0,0.0,0.0,0.0,0.0,0.0,0.0,0.0,0.0,0.0,0.0,0.0,0.0,0.0,0.0,0.0,0.0,0.0,0.0,0.0,0.0,0.0,0.0,0.0,0.0,0.0,0.0,0.0,0.0,0.0,0.0,0.0,0.0,0.0,0.0,0.0,0.0,0.0,0.0,0.0,0.0,0.0,0.0,0.0,0.0,0.0,0.0,0.0,0.0,0.0,0.0,0.0,0.0,0.0,0.0,0.0,0.0,0.0,0.0,0.0,0.0,0.0,0.0,0.0,0.0,0.0,0.0,0.0,0.0,0.0,0.0,0.0,0.0,0.0,0.0,0.0,0.0,0.0,0.0,0.0,0.0,0.0,0.0,0.0,0.0,0.0,0.0,0.0,0.0,0.0,0.0,0.0,0.0,2.0944,2.1326,2.0819,2.0276,1.9799,0.0,0.0,0.0,0.0,0.0,0.0,0.0,0.0,0.0,0.0,0.0,0.0,0.0,0.0,0.0,0.0,0.0,0.0,0.0,0.0,0.0,0.0,0.0,0.0,0.0,0.0,0.0,0.0,0.0,0.0,0.0,0.0,0.0,0.0,0.0,0.0,0.0,0.0,0.0,0.0,0.0,0.0,0.0,0.0,0.0,0.0,0.0,0.0,0.0,0.0,0.0,0.0,0.0,0.0,0.0,0.0,0.0,0.0,0.0,0.0,0.0,0.0,0.0,0.0,0.0,0.0,0.0,0.0,0.0,0.0,0.0,0.0,0.0,0.0,0.0,0.0,0.0,0.0,0.0,0.0,0.0,0.0,0.0,0.0,0.0,0.0,0.0,0.0,0.0,0.0,0.0,0.0,0.0,0.0,0.0,0.0,0.0,0.0,0.0,0.0,0.0,0.0,0.0,0.0,0.0,0.0,0.0,0.0,0.0,0.0,0.0,0.0,2.1352,2.0705,1.9965,0.0,0.0,0.0,0.0,0.0,0.0,0.0,0.0,0.0,0.0,0.0,0.0,0.0,0.0,0.0,0.0,0.0,0.0,0.0,0.0,0.0,0.0,0.0,0.0,0.0,0.0,0.0,0.0,0.0,0.0,0.0,0.0,0.0,0.0,0.0,0.0,0.0,0.0,0.0,0.0,0.0,0.0,0.0,0.0,0.0,0.0,0.0,0.0,0.0,0.0,0.0,0.0,0.0,0.0,0.0,0.0,0.0,0.0,0.0,0.0,0.0,0.0,0.0,0.0,0.0,0.0,0.0,0.0,0.0,0.0,0.0,0.0,0.0,0.0,0.0,0.0,0.0,0.0,0.0,0.0,0.0,0.0,0.0,0.0,0.0,0.0,0.0,0.0,0.0,0.0,0.0,0.0,0.0,0.0,0.0,0.0,0.0,0.0,0.0,0.0,0.0,0.0,0.0,0.0,0.0,0.0,0.0,0.0,0.0,0.0,2.1769,2.1797,2.1352,0.0,1.8682,0.0,0.0,0.0,0.0,0.0,0.0,0.0,0.0,0.0,0.0,0.0,0.0,0.0,0.0,0.0,0.0,0.0,0.0,0.0,0.0,0.0,0.0,0.0,0.0,0.0,0.0,0.0,0.0,0.0,0.0,0.0,0.0,0.0,0.0,0.0,0.0,0.0,0.0,0.0,0.0,0.0,0.0,0.0,0.0,0.0,0.0,0.0,0.0,0.0,0.0,0.0,0.0,0.0,0.0,0.0,0.0,0.0,0.0,0.0,0.0,0.0,0.0,0.0,0.0,0.0,0.0,0.0,0.0,0.0,0.0,0.0,0.0,0.0,0.0,0.0,0.0,0.0,0.0,0.0,0.0,0.0,0.0,0.0,0.0,0.0,0.0,0.0,0.0,0.0,0.0,0.0,0.0,0.0,0.0,0.0,0.0,0.0,0.0,0.0,0.0,0.0,0.0,0.0,0.0,0.0,0.0,0.0,0.0,0.0,0.0,2.1807,2.1807,2.1046,2.01,0.0,0.0,0.0,0.0,0.0,0.0,0.0,0.0,0.0,0.0,0.0,0.0,0.0,0.0,0.0,0.0,0.0,0.0,0.0,0.0,0.0,0.0,0.0,0.0,0.0,0.0,0.0,0.0,0.0,0.0,0.0,0.0,0.0,0.0,0.0,0.0,0.0,0.0,0.0,0.0,0.0,0.0,0.0,0.0,0.0,0.0,0.0,0.0,0.0,0.0,0.0,0.0,0.0,0.0,0.0,0.0,0.0,0.0,0.0,0.0,0.0,0.0,0.0,0.0,0.0,0.0,0.0,0.0,0.0,0.0,0.0,0.0,0.0,0.0,0.0,0.0,0.0,0.0,0.0,0.0,0.0,0.0,0.0,0.0,0.0,0.0,0.0,0.0,0.0,0.0,0.0,0.0,0.0,0.0,0.0,0.0,0.0,0.0,0.0,0.0,0.0,0.0,0.0,0.0,0.0,0.0,0.0,0.0,0.0,0.0,2.1807,2.1745,2.158,2.0834,1.9944,1.8953,0.0,0.0,0.0,0.0,0.0,0.0,0.0,0.0,0.0,0.0,0.0,0.0,0.0,0.0,0.0,0.0,0.0,0.0,0.0,0.0,0.0,0.0,0.0,0.0,0.0,0.0,0.0,0.0,0.0,0.0,0.0,0.0,0.0,0.0,0.0,0.0,0.0,0.0,0.0,0.0,0.0,0.0,0.0,0.0,0.0,0.0,0.0,0.0,0.0,0.0,0.0,0.0,0.0,0.0,0.0,0.0,0.0,0.0,0.0,0.0,0.0,0.0,0.0,0.0,0.0,0.0,0.0,0.0,0.0,0.0,0.0,0.0,0.0,0.0,0.0,0.0,0.0,0.0,0.0,0.0,0.0,0.0,0.0,0.0,0.0,0.0,0.0,0.0,0.0,0.0,0.0,0.0,0.0,0.0,0.0,0.0,0.0,0.0,0.0,0.0,0.0,0.0,0.0,0.0,0.0,0.0,0.0,0.0,0.0,2.1787,2.159,2.1155,2.0669,1.9789,0.0,0.0,0.0,0.0,0.0,0.0,0.0,0.0,0.0,0.0,0.0,0.0,0.0,0.0,0.0,0.0,0.0,0.0,0.0,0.0,0.0,0.0,0.0,0.0,0.0,0.0,0.0,0.0,0.0,0.0,0.0,0.0,0.0,0.0,0.0,0.0,0.0,0.0,0.0,0.0,0.0,0.0,0.0,0.0,0.0,0.0,0.0,0.0,0.0,0.0,0.0,0.0,0.0,0.0,0.0,0.0,0.0,0.0,0.0,0.0,0.0,0.0,0.0,0.0,0.0,0.0,0.0,0.0,0.0,0.0,0.0,0.0,0.0,0.0,0.0,0.0,0.0,0.0,0.0,0.0,0.0,0.0,0.0,0.0,0.0,0.0,0.0,0.0,0.0,0.0,0.0,0.0,0.0,0.0,0.0,0.0,0.0,0.0,0.0,0.0,0.0,0.0,0.0,0.0,0.0,0.0,0.0,0.0,0.0,2.0901,2.0917,2.0808,2.0633,2.0315,1.9635,0.0,0.0,0.0,0.0,0.0,0.0,0.0,0.0,0.0,0.0,0.0,0.0,0.0,0.0,0.0,0.0,0.0,0.0,0.0,0.0,0.0,0.0,0.0,0.0,0.0,0.0,0.0,0.0,0.0,0.0,0.0,0.0,0.0,0.0,0.0,0.0,0.0,0.0,0.0,0.0,0.0,0.0,0.0,0.0,0.0,0.0,0.0,0.0,0.0,0.0,0.0,0.0,0.0,0.0,0.0,0.0,0.0,0.0,0.0,0.0,0.0,0.0,0.0,0.0,0.0,0.0,0.0,0.0,0.0,0.0,0.0,0.0,0.0,0.0,0.0,0.0,0.0,0.0,0.0,0.0,0.0,0.0,0.0,0.0,0.0,0.0,0.0,0.0,0.0,0.0,0.0,0.0,0.0,0.0,0.0,0.0,0.0,0.0,0.0,0.0,0.0,0.0,0.0,0.0,0.0,0.0,0.0,0.0,0.0,2.0512,0.0,2.0465,0.0,2.0212,1.9596,0.0,0.0,0.0,0.0,0.0,0.0,0.0,0.0,0.0,0.0,0.0,0.0,0.0,0.0,0.0,0.0,0.0,0.0,0.0,0.0,0.0,0.0,0.0,0.0,0.0,0.0,0.0,0.0,0.0,0.0,0.0,0.0,0.0,0.0,0.0,0.0,0.0,0.0,0.0,0.0,0.0,0.0,0.0,0.0,0.0,0.0,0.0,0.0,0.0,0.0,0.0,0.0,0.0,0.0,0.0,0.0,0.0,0.0,0.0,0.0,0.0,0.0,0.0,0.0,0.0,0.0,0.0,0.0,0.0,0.0,0.0,0.0,0.0,0.0,0.0,0.0,0.0,0.0,0.0,0.0,0.0,0.0,0.0,0.0,0.0,0.0,0.0,0.0,0.0,0.0,0.0,0.0,0.0,0.0,0.0,0.0,0.0,0.0,0.0,0.0,0.0,0.0,0.0,0.0,0.0,0.0,0.0,0.0,2.0507,2.0684,2.0663,2.0512,2.0294,2.0262,1.9647,0.0,0.0,0.0,0.0,0.0,0.0,0.0,0.0,0.0,0.0,0.0,0.0,0.0,0.0,0.0,0.0,0.0,0.0,0.0,0.0,0.0,0.0,0.0,0.0,0.0,0.0,0.0,0.0,0.0,0.0,0.0,0.0,0.0,0.0,0.0,0.0,0.0,0.0,0.0,0.0,0.0,0.0,0.0,0.0,0.0,0.0,0.0,0.0,0.0,0.0,0.0,0.0,0.0,0.0,0.0,0.0,0.0,0.0,0.0,0.0,0.0,0.0,0.0,0.0,0.0,0.0,0.0,0.0,0.0,0.0,0.0,0.0,0.0,0.0,0.0,0.0,0.0,0.0,0.0,0.0,0.0,0.0,0.0,0.0,0.0,0.0,0.0,0.0,0.0,0.0,0.0,0.0,0.0,0.0,0.0,0.0,0.0,0.0,0.0,0.0,0.0,0.0,0.0,0.0,0.0,0.0,0.0,0.0,0.0,1.994,1.9929,1.9899,1.9806,1.9961,1.9512,0.0,0.0,0.0,0.0,0.0,0.0,0.0,0.0,0.0,0.0,0.0,0.0,0.0,0.0,0.0,0.0,0.0,0.0,0.0,0.0,0.0,0.0,0.0,0.0,0.0,0.0,0.0,0.0,0.0,0.0,0.0,0.0,0.0,0.0,0.0,0.0,0.0,0.0,0.0,0.0,0.0,0.0,0.0,0.0,0.0,0.0,0.0,0.0,0.0,0.0,0.0,0.0,0.0,0.0,0.0,0.0,0.0,0.0,0.0,0.0,0.0,0.0,0.0,0.0,0.0,0.0,0.0,0.0,0.0,0.0,0.0,0.0,0.0,0.0,0.0,0.0,0.0,0.0,0.0,0.0,0.0,0.0,0.0,0.0,0.0,0.0,0.0,0.0,0.0,0.0,0.0,0.0,0.0,0.0,0.0,0.0,0.0,0.0,0.0,0.0,0.0,0.0,0.0,0.0,0.0,0.0,0.0,0.0,0.0,2.0566,2.0499,2.0486,2.0574,2.0489,2.0063,1.9182,0.0,0.0,0.0,0.0,0.0,0.0,0.0,0.0,0.0,0.0,0.0,0.0,0.0,0.0,0.0,0.0,0.0,0.0,0.0,0.0,0.0,0.0,0.0,0.0,0.0,0.0,0.0,0.0,0.0,0.0,0.0,0.0,0.0,0.0,0.0,0.0,0.0,0.0,0.0,0.0,0.0,0.0,0.0,0.0,0.0,0.0,0.0,0.0,0.0,0.0,0.0,0.0,0.0,0.0,0.0,0.0,0.0,0.0,0.0,0.0,0.0,0.0,0.0,0.0,0.0,0.0,0.0,0.0,0.0,0.0,0.0,0.0,0.0,0.0,0.0,0.0,0.0,0.0,0.0,0.0,0.0,0.0,0.0,0.0,0.0,0.0,0.0,0.0,0.0,0.0,0.0,0.0,0.0,0.0,0.0,0.0,0.0,0.0,0.0,0.0,0.0,0.0,0.0,0.0,0.0,0.0,0.0,0.0,2.2381,2.223,2.2192,2.2183,2.1688,2.1139,0.0,0.0,0.0,0.0,0.0,0.0,0.0,0.0,0.0,0.0,0.0,0.0,0.0,0.0,0.0,0.0,0.0,0.0,0.0,0.0,0.0,0.0,0.0,0.0,0.0,0.0,0.0,0.0,0.0,0.0,0.0,0.0,0.0,0.0,0.0,0.0,0.0,0.0,0.0,0.0,0.0,0.0,0.0,0.0,0.0,0.0,0.0,0.0,0.0,0.0,0.0,0.0,0.0,0.0,0.0,0.0,0.0,0.0,0.0,0.0,0.0,0.0,0.0,0.0,0.0,0.0,0.0,0.0,0.0,0.0,0.0,0.0,0.0,0.0,0.0,0.0,0.0,0.0,0.0,0.0,0.0,0.0,0.0,0.0,0.0,0.0,0.0,0.0,0.0,0.0,0.0,0.0,0.0,0.0,0.0,0.0,0.0,0.0,0.0,0.0,0.0,0.0,0.0,0.0,0.0,0.0,0.0,0.0,0.0,2.4559,2.5144,2.4589,2.2866,2.229,2.1631,0.0,0.0,0.0,0.0,0.0,0.0,0.0,0.0,0.0,0.0,0.0,0.0,0.0,0.0,0.0,0.0,0.0,0.0,0.0,0.0,0.0,0.0,0.0,0.0,0.0,0.0,0.0,0.0,0.0,0.0,0.0,0.0,0.0,0.0,0.0,0.0,0.0,0.0,0.0,0.0,0.0,0.0,0.0,0.0,0.0,0.0,0.0,0.0,0.0,0.0,0.0,0.0,0.0,0.0,0.0,0.0,0.0,0.0,0.0,0.0,0.0,0.0,0.0,0.0,0.0,0.0,0.0,0.0,0.0,0.0,0.0,0.0,0.0,0.0,0.0,0.0,0.0,0.0,0.0,0.0,0.0,0.0,0.0,0.0,0.0,0.0,0.0,0.0,0.0,0.0,0.0,0.0,0.0,0.0,0.0,0.0,0.0,0.0,0.0,0.0,0.0,0.0,0.0,0.0,0.0,0.0,0.0,0.0,2.5098,2.5965,2.7016,2.6811,2.5303,2.4258,2.3183,0.0,0.0,0.0,0.0,0.0,0.0,0.0,0.0,0.0,0.0,0.0,0.0,0.0,0.0,0.0,0.0,0.0,0.0,0.0,0.0,0.0,0.0,0.0,0.0,0.0,0.0,0.0,0.0,0.0,0.0,0.0,0.0,0.0,0.0,0.0,0.0,0.0,0.0,0.0,0.0,0.0,0.0,0.0,0.0,0.0,0.0,0.0,0.0,0.0,0.0,0.0,0.0,0.0,0.0,0.0,0.0,0.0,0.0,0.0,0.0,0.0,0.0,0.0,0.0,0.0,0.0,0.0,0.0,0.0,0.0,0.0,0.0,0.0,0.0,0.0,0.0,0.0,0.0,0.0,0.0,0.0,0.0,0.0,0.0,0.0,0.0,0.0,0.0,0.0,0.0,0.0,0.0,0.0,0.0,0.0,0.0,0.0,0.0,0.0,0.0,0.0,0.0,0.0,0.0,0.0,0.0,0.0,0.0,2.658,2.7028,2.8216,2.8767,2.8535,2.6795,2.5223,0.0,0.0,0.0,0.0,0.0,0.0,0.0,0.0,0.0,0.0,0.0,0.0,0.0,0.0,0.0,0.0,0.0,0.0,0.0,0.0,0.0,0.0,0.0,0.0,0.0,0.0,0.0,0.0,0.0,0.0,0.0,0.0,0.0,0.0,0.0,0.0,0.0,0.0,0.0,0.0,0.0,0.0,0.0,0.0,0.0,0.0,0.0,0.0,0.0,0.0,0.0,0.0,0.0,0.0,0.0,0.0,0.0,0.0,0.0,0.0,0.0,0.0,0.0,0.0,0.0,0.0,0.0,0.0,0.0,0.0,0.0,0.0,0.0,0.0,0.0,0.0,0.0,0.0,0.0,0.0,0.0,0.0,0.0,0.0,0.0,0.0,0.0,0.0,0.0,0.0,0.0,0.0,0.0,0.0,0.0,0.0,0.0,0.0,0.0,0.0,0.0,0.0,0.0,0.0,0.0,0.0,0.0,0.0,2.7468,2.8505,2.9359,2.9772,2.9723,2.7678,2.6058,0.0,0.0,0.0,0.0,0.0,0.0,0.0,0.0,0.0,0.0,0.0,0.0,0.0,0.0,0.0,0.0,0.0,0.0,0.0,0.0,0.0,0.0,0.0,0.0,0.0,0.0,0.0,0.0,0.0,0.0,0.0,0.0,0.0,0.0,0.0,0.0,0.0,0.0,0.0,0.0,0.0,0.0,0.0,0.0,0.0,0.0,0.0,0.0,2.2922,0.0,0.0,0.0,0.0,0.0,0.0,0.0,0.0,0.0,0.0,0.0,0.0,0.0,0.0,0.0,0.0,0.0,0.0,0.0,0.0,0.0,0.0,0.0,0.0,0.0,0.0,0.0,0.0,0.0,0.0,0.0,0.0,0.0,0.0,0.0,0.0,0.0,0.0,0.0,0.0,0.0,0.0,0.0,0.0,0.0,0.0,0.0,0.0,0.0,0.0,0.0,0.0,0.0,0.0,0.0,0.0,0.0,0.0,0.0,2.8463,2.9496,3.0155,3.0542,3.0453,2.8857,2.7267,0.0,0.0,0.0,0.0,0.0,0.0,0.0,0.0,0.0,0.0,0.0,0.0,0.0,0.0,0.0,0.0,0.0,0.0,0.0,0.0,0.0,0.0,0.0,0.0,0.0,0.0,0.0,0.0,0.0,0.0,0.0,0.0,0.0,0.0,0.0,0.0,0.0,0.0,0.0,0.0,0.0,0.0,0.0,0.0,0.0,0.0,0.0,0.0,0.0,0.0,0.0,0.0,0.0,0.0,0.0,0.0,0.0,0.0,0.0,0.0,0.0,0.0,0.0,0.0,0.0,0.0,0.0,0.0,0.0,0.0,0.0,0.0,0.0,0.0,0.0,0.0,0.0,0.0,0.0,0.0,0.0,0.0,0.0,0.0,0.0,0.0,0.0,0.0,0.0,0.0,0.0,0.0,0.0,0.0,0.0,0.0,0.0,0.0,0.0,0.0,0.0,0.0,0.0,0.0,0.0,0.0,0.0,2.8135,2.9379,3.0087,3.0699,3.1024,3.0973,2.9912,2.8469,2.6648,0.0,0.0,0.0,0.0,0.0,0.0,0.0,0.0,0.0,0.0,0.0,0.0,0.0,0.0,0.0,0.0,0.0,0.0,0.0,0.0,0.0,0.0,0.0,0.0,0.0,0.0,0.0,0.0,0.0,0.0,0.0,0.0,0.0,0.0,0.0,0.0,0.0,0.0,2.0849,2.2934,0.0,0.0,0.0,0.0,0.0,0.0,0.0,0.0,2.4744,0.0,0.0,0.0,0.0,0.0,0.0,0.0,0.0,0.0,0.0,0.0,0.0,0.0,0.0,0.0,0.0,0.0,0.0,0.0,0.0,0.0,0.0,0.0,0.0,0.0,0.0,0.0,0.0,0.0,0.0,0.0,0.0,0.0,0.0,0.0,0.0,0.0,0.0,0.0,0.0,0.0,0.0,0.0,0.0,0.0,0.0,0.0,0.0,0.0,0.0,0.0,0.0,0.0,0.0,0.0,0.0,2.7126,2.853,2.9513,3.0087,3.0686,3.1024,3.096,2.9876,2.8686,2.7365,0.0,0.0,0.0,0.0,0.0,0.0,0.0,0.0,0.0,0.0,0.0,0.0,0.0,0.0,0.0,0.0,0.0,0.0,0.0,0.0,0.0,0.0,0.0,0.0,0.0,0.0,0.0,0.0,0.0,0.0,0.0,0.0,0.0,0.0,0.0,0.0,0.0,0.0,0.0,2.4662,2.5478,0.0,0.0,0.0,0.0,0.0,0.0,0.0,0.0,2.5285,0.0,0.0,0.0,0.0,0.0,0.0,0.0,0.0,0.0,0.0,0.0,0.0,0.0,0.0,0.0,0.0,0.0,0.0,0.0,0.0,0.0,0.0,0.0,0.0,0.0,0.0,0.0,0.0,0.0,0.0,0.0,0.0,0.0,0.0,0.0,0.0,0.0,0.0,0.0,0.0,0.0,0.0,0.0,0.0,0.0,0.0,0.0,0.0,0.0,0.0,0.0,0.0,0.0,0.0,0.0,2.7403,2.8638,2.9706,3.0542,3.0843,3.1024,3.0998,2.9876,2.8726,0.0,0.0,0.0,0.0,0.0,0.0,0.0,0.0,0.0,0.0,0.0,0.0,0.0,0.0,0.0,0.0,0.0,0.0,0.0,0.0,0.0,0.0,0.0,0.0,0.0,0.0,0.0,0.0,0.0,0.0,0.0,0.0,0.0,0.0,0.0,0.0,0.0,0.0,0.0,0.0,2.567,2.6304,2.708,0.0,0.0,0.0,0.0,0.0,0.0,2.5972,2.5726,0.0,0.0,0.0,0.0,0.0,0.0,0.0,0.0,0.0,0.0,0.0,0.0,0.0,0.0,0.0,0.0,0.0,0.0,0.0,0.0,0.0,0.0,0.0,0.0,0.0,0.0,0.0,0.0,0.0,0.0,0.0,0.0,0.0,0.0,0.0,0.0,0.0,0.0,0.0,0.0,0.0,0.0,0.0,0.0,0.0,0.0,0.0,0.0,0.0,0.0,0.0,0.0,0.0,0.0,0.0,2.749,2.8686,2.9823,3.0959,3.1024,3.0934,3.0803,2.9823,2.8673,0.0,0.0,0.0,0.0,0.0,0.0,0.0,0.0,0.0,0.0,0.0,0.0,0.0,0.0,0.0,0.0,0.0,0.0,0.0,0.0,0.0,0.0,0.0,0.0,0.0,0.0,0.0,0.0,0.0,0.0,0.0,0.0,0.0,0.0,0.0,0.0,0.0,0.0,0.0,0.0,0.0,2.724,2.8044,2.8044,0.0,0.0,0.0,0.0,2.7303,2.6884,0.0,0.0,0.0,0.0,0.0,0.0,0.0,0.0,0.0,0.0,0.0,0.0,0.0,0.0,0.0,0.0,0.0,0.0,0.0,0.0,0.0,0.0,0.0,0.0,0.0,0.0,0.0,0.0,0.0,0.0,0.0,0.0,0.0,0.0,0.0,0.0,0.0,0.0,0.0,0.0,0.0,0.0,0.0,0.0,0.0,0.0,0.0,0.0,0.0,0.0,0.0,0.0,0.0,0.0,0.0,0.0,2.749,2.8686,2.9872,3.0921,3.1024,3.0738,3.0205,2.9614,2.8525,0.0,0.0,0.0,0.0,0.0,0.0,0.0,0.0,0.0,0.0,0.0,0.0,0.0,0.0,0.0,0.0,0.0,0.0,0.0,0.0,0.0,0.0,0.0,0.0,0.0,0.0,0.0,0.0,0.0,0.0,0.0,0.0,0.0,0.0,0.0,0.0,0.0,0.0,0.0,0.0,0.0,2.8443,2.9573,2.9284,2.8911,0.0,0.0,2.8667,2.8177,2.8419,0.0,0.0,0.0,0.0,0.0,0.0,0.0,0.0,0.0,0.0,0.0,0.0,0.0,0.0,0.0,0.0,0.0,0.0,0.0,0.0,0.0,0.0,0.0,0.0,0.0,0.0,0.0,0.0,0.0,0.0,0.0,0.0,0.0,0.0,0.0,0.0,0.0,0.0,0.0,0.0,0.0,0.0,0.0,0.0,0.0,0.0,0.0,0.0,0.0,0.0,0.0,0.0,0.0,0.0,0.0,2.6354,2.749,2.8686,2.9849,3.0934,3.1024,3.0869,3.062,2.9758,2.8608,0.0,0.0,0.0,0.0,0.0,0.0,0.0,0.0,0.0,0.0,0.0,0.0,0.0,0.0,0.0,0.0,0.0,0.0,0.0,0.0,0.0,0.0,0.0,0.0,0.0,0.0,0.0,0.0,0.0,0.0,0.0,0.0,0.0,0.0,0.0,0.0,0.0,0.0,0.0,0.0,0.0,0.0,3.0287,3.0622,0.0,0.0,0.0,3.069,3.0534,0.0,0.0,0.0,0.0,0.0,0.0,0.0,0.0,0.0,0.0,0.0,0.0,0.0,0.0,0.0,0.0,0.0,0.0,0.0,0.0,0.0,0.0,0.0,0.0,0.0,0.0,0.0,0.0,0.0,0.0,0.0,0.0,0.0,0.0,0.0,0.0,0.0,0.0,0.0,0.0,0.0,0.0,0.0,0.0,0.0,0.0,0.0,0.0,0.0,0.0,0.0,0.0,0.0,0.0,0.0,0.0,0.0,2.7643,2.8812,2.9981,3.1097,3.1149,3.1057,3.09,2.9954,0.0,0.0,0.0,0.0,0.0,0.0,0.0,0.0,0.0,0.0,0.0,0.0,0.0,0.0,0.0,0.0,0.0,0.0,0.0,0.0,0.0,0.0,0.0,0.0,0.0,0.0,0.0,2.0175,0.0,0.0,0.0,0.0,0.0,0.0,0.0,0.0,0.0,0.0,0.0,0.0,0.0,0.0,3.0162,3.1409,3.2126,3.2551,0.0,0.0,3.2558,3.2687,3.1695,3.0723,0.0,0.0,0.0,0.0,0.0,0.0,0.0,0.0,0.0,0.0,0.0,0.0,0.0,0.0,0.0,0.0,0.0,0.0,0.0,0.0,0.0,0.0,0.0,0.0,0.0,0.0,0.0,0.0,0.0,0.0,0.0,0.0,0.0,0.0,0.0,0.0,0.0,0.0,0.0,0.0,0.0,0.0,0.0,0.0,0.0,0.0,0.0,0.0,0.0,0.0,0.0,0.0,0.0,0.0,0.0,2.802,2.919,3.0361,3.1505,3.1572,3.1293,3.072,3.0108,2.8978,0.0,0.0,0.0,0.0,0.0,0.0,0.0,0.0,0.0,0.0,0.0,0.0,0.0,0.0,0.0,0.0,0.0,0.0,0.0,0.0,0.0,0.0,0.0,0.0,0.0,0.0,0.0,0.0,0.0,0.0,0.0,0.0,0.0,0.0,0.0,0.0,0.0,0.0,0.0,0.0,0.0,3.2126,3.3591,3.3829,3.4065,0.0,0.0,3.3891,3.3891,3.3284,3.2529,3.1775,0.0,0.0,0.0,0.0,0.0,0.0,0.0,0.0,0.0,0.0,0.0,0.0,0.0,0.0,0.0,0.0,0.0,0.0,0.0,0.0,0.0,0.0,0.0,0.0,0.0,0.0,0.0,0.0,0.0,0.0,0.0,0.0,0.0,0.0,0.0,0.0,0.0,0.0,0.0,0.0,0.0,0.0,0.0,0.0,0.0,0.0,0.0,0.0,0.0,0.0,0.0,0.0,0.0,2.6885,2.8527,2.9706,3.0955,3.2196,3.2286,3.2177,3.1946,3.0992,2.9753,0.0,0.0,0.0,0.0,0.0,0.0,0.0,0.0,0.0,0.0,0.0,0.0,0.0,0.0,0.0,0.0,0.0,0.0,0.0,0.0,0.0,0.0,0.0,0.0,0.0,0.0,0.0,0.0,2.3497,2.3169,2.2781,0.0,0.0,0.0,0.0,0.0,0.0,0.0,0.0,0.0,0.0,3.308,3.4831,3.5544,0.0,0.0,3.63,3.5864,3.5864,3.493,3.3832,3.2721,3.1792,0.0,0.0,0.0,0.0,0.0,0.0,0.0,0.0,0.0,0.0,0.0,0.0,0.0,0.0,0.0,0.0,0.0,0.0,0.0,0.0,0.0,0.0,0.0,0.0,0.0,0.0,0.0,0.0,0.0,0.0,0.0,0.0,0.0,0.0,0.0,0.0,0.0,0.0,0.0,0.0,0.0,0.0,0.0,0.0,0.0,0.0,0.0,0.0,0.0,0.0,0.0,0.0,2.7478,2.9121,3.0344,3.1652,3.2995,3.3044,3.3044,3.3003,3.1824,3.0578,0.0,0.0,0.0,0.0,0.0,0.0,0.0,0.0,0.0,0.0,0.0,0.0,0.0,0.0,0.0,0.0,0.0,0.0,0.0,0.0,0.0,0.0,0.0,0.0,0.0,0.0,0.0,0.0,2.4514,2.4076,2.385,0.0,0.0,0.0,0.0,0.0,0.0,0.0,0.0,0.0,0.0,3.397,3.6004,3.6784,3.7475,3.8296,3.7735,3.717,3.7138,3.601,3.4821,3.3816,0.0,0.0,0.0,0.0,0.0,0.0,0.0,0.0,0.0,0.0,0.0,0.0,0.0,0.0,0.0,0.0,0.0,0.0,0.0,0.0,0.0,0.0,0.0,0.0,0.0,0.0,0.0,2.6254,0.0,0.0,2.5628,0.0,0.0,0.0,0.0,0.0,0.0,0.0,0.0,0.0,0.0,0.0,0.0,0.0,0.0,0.0,0.0,0.0,0.0,0.0,0.0,0.0,0.0,2.7893,2.9851,3.1183,3.2506,3.3739,3.3782,3.3796,3.3768,3.2549,3.1308,3.0054,0.0,0.0,0.0,0.0,0.0,0.0,0.0,0.0,0.0,0.0,0.0,0.0,0.0,0.0,0.0,0.0,0.0,0.0,0.0,0.0,0.0,0.0,0.0,0.0,0.0,0.0,2.5313,2.5008,2.5108,0.0,0.0,0.0,0.0,0.0,0.0,0.0,0.0,0.0,0.0,3.3337,3.4972,3.7168,3.7507,3.7967,3.9275,3.8352,3.7491,3.7491,3.6399,3.543,0.0,0.0,0.0,0.0,0.0,0.0,0.0,0.0,0.0,0.0,0.0,0.0,0.0,0.0,0.0,0.0,0.0,0.0,0.0,0.0,0.0,0.0,0.0,0.0,0.0,0.0,0.0,2.8967,2.8228,0.0,0.0,0.0,0.0,0.0,0.0,0.0,0.0,0.0,0.0,0.0,3.035,2.9188,0.0,0.0,0.0,0.0,0.0,0.0,0.0,0.0,0.0,0.0,0.0,0.0,2.887,3.1087,3.2034,3.3143,3.4495,3.4539,3.4539,3.4539,3.3299,3.1544,2.9218,0.0,0.0,0.0,0.0,0.0,0.0,0.0,0.0,0.0,0.0,0.0,0.0,0.0,0.0,0.0,0.0,0.0,0.0,0.0,0.0,0.0,0.0,0.0,0.0,0.0,2.6315,0.0,0.0,0.0,0.0,0.0,0.0,0.0,0.0,0.0,0.0,0.0,3.1799,3.2839,3.4201,3.5815,3.7892,3.8169,3.8646,0.0,0.0,0.0,0.0,0.0,0.0,0.0,0.0,0.0,0.0,0.0,0.0,0.0,0.0,3.3376,3.2456,3.1719,3.1259,3.1248,0.0,0.0,0.0,0.0,0.0,0.0,0.0,0.0,0.0,0.0,0.0,0.0,0.0,0.0,3.1452,0.0,3.0383,0.0,0.0,0.0,0.0,0.0,0.0,0.0,0.0,3.0725,3.1234,3.2286,3.1132,3.0845,0.0,3.0002,2.8856,0.0,0.0,0.0,0.0,0.0,0.0,0.0,0.0,2.9944,3.1911,3.2917,3.3955,3.5055,3.51,3.5115,3.507,3.3619,3.1841,2.9736,2.8071,2.6777,0.0,0.0,0.0,0.0,0.0,0.0,0.0,0.0,0.0,0.0,0.0,0.0,0.0,0.0,0.0,0.0,0.0,0.0,0.0,0.0,0.0,0.0,0.0,2.733,0.0,0.0,0.0,0.0,0.0,0.0,0.0,0.0,0.0,3.0278,3.1646,3.3069,3.4321,3.546,3.683,3.8616,0.0,0.0,0.0,0.0,0.0,0.0,0.0,3.7554,3.6676,3.6892,3.6907,3.6045,3.5907,3.6091,3.6753,0.0,0.0,3.4429,3.3783,3.3475,3.3475,3.3517,3.3607,3.3882,3.3986,3.42,0.0,0.0,0.0,0.0,0.0,0.0,0.0,0.0,3.3815,3.37,0.0,3.245,0.0,0.0,0.0,0.0,0.0,3.1629,0.0,0.0,3.3111,3.314,3.317,3.3111,3.3081,3.3007,3.1781,3.1161,3.0984,2.832,0.0,0.0,0.0,0.0,0.0,0.0,3.1009,3.2362,3.3737,3.4801,3.5474,3.5489,3.5489,3.5415,3.3574,3.2228,3.1478,2.9501,2.8096,2.7452,2.6432,0.0,0.0,0.0,0.0,0.0,0.0,0.0,0.0,0.0,0.0,0.0,0.0,0.0,0.0,0.0,0.0,0.0,0.0,0.0,0.0,2.7801,0.0,0.0,0.0,0.0,0.0,0.0,0.0,0.0,0.0,0.0,3.2536,3.3121,3.4245,3.6245,0.0,0.0,0.0,0.0,3.9705,4.0397,3.9951,3.9521,3.949,3.8954,3.8523,3.8477,0.0,0.0,3.8508,3.8508,3.8631,3.937,3.8926,3.7923,3.603,3.566,3.5598,3.5598,3.5704,3.6056,3.6691,3.686,3.7154,3.7207,0.0,0.0,0.0,0.0,3.5053,3.5375,3.5785,3.601,3.5732,3.5097,3.4471,0.0,0.0,0.0,0.0,0.0,0.0,3.3885,3.4587,3.5222,3.5717,3.6104,3.521,3.4778,3.4733,3.3451,3.281,3.275,3.1009,2.9578,2.8444,0.0,0.0,0.0,0.0,3.1708,3.3109,3.4053,3.4848,3.5489,3.5489,3.528,3.4786,3.3877,3.2826,3.1757,3.0759,2.9659,2.8452,2.7645,0.0,0.0,0.0,0.0,0.0,0.0,0.0,0.0,0.0,0.0,0.0,0.0,0.0,0.0,0.0,0.0,0.0,0.0,0.0,2.8596,2.9352,2.9792,0.0,0.0,0.0,0.0,0.0,0.0,0.0,0.0,0.0,3.5122,3.5476,3.5999,0.0,0.0,3.8539,3.9367,3.949,3.9721,4.0397,4.0336,0.0,3.9585,3.937,3.9044,3.8585,3.8508,3.8662,3.9139,3.893,3.892,3.9586,3.9685,3.9442,3.8929,3.8258,3.7885,3.7869,3.8075,3.831,3.8529,3.8794,3.9074,3.9987,3.8065,3.7109,3.6961,3.7347,3.7629,3.794,3.8267,3.8282,3.7925,3.7302,3.6654,3.5818,3.4958,3.4542,0.0,0.0,0.0,3.5684,3.6104,3.6623,3.7045,3.7345,3.6626,3.6133,3.5848,3.4816,3.4143,3.3873,3.2826,3.1796,3.0833,0.0,0.0,3.0755,3.1439,3.2467,3.3844,3.4578,3.5085,3.5489,3.5489,3.5327,3.4988,3.4134,3.3411,3.2743,3.1673,3.0681,2.9874,2.8895,2.7834,0.0,0.0,0.0,0.0,0.0,0.0,0.0,0.0,0.0,0.0,0.0,2.4505,2.4887,0.0,0.0,0.0,2.7532,2.8529,2.9679,3.0156,0.0,0.0,0.0,0.0,0.0,0.0,0.0,3.309,3.4044,3.5306,3.703,3.7523,3.7846,3.8246,3.8877,3.9462,3.9828,0.0,4.0164,4.0566,4.0677,4.0607,4.0204,4.0142,4.0003,3.9586,3.9539,3.9647,4.0019,3.9887,3.9878,4.0271,4.0495,4.0689,4.1054,4.0741,4.0156,3.9526,3.9675,4.0008,4.0325,4.0959,4.1465,4.2126,4.1444,4.0232,3.9627,3.9634,4.0217,4.0472,4.0487,4.0472,4.0142,3.9529,3.8796,3.7764,3.6567,3.6567,0.0,3.6596,3.7195,3.7479,3.7494,3.7554,3.7554,3.7569,3.7524,3.7195,3.6626,3.5923,3.525,3.4653,3.3903,3.3574,3.3499,3.1149,3.0507,3.1645,3.2347,3.3275,3.4488,3.5145,3.5489,3.5489,3.5489,3.5539,3.5688,3.4452,3.394,3.4147,3.2402,3.137,3.1366,3.0109,2.9021,2.8226,0.0,0.0,0.0,0.0,0.0,0.0,0.0,0.0,0.0,0.0,0.0,0.0,0.0,0.0,0.0,2.875,0.0,3.0494,3.0602,0.0,0.0,0.0,3.167,3.1655,3.281,3.3873,3.4611,0.0,0.0,3.8464,3.9218,3.9634,3.9634,4.0139,4.0524,4.0539,4.0681,4.0833,4.0799,4.1,4.1102,4.1039,4.1039,4.1057,4.101,4.1151,4.1091,4.1107,4.1156,4.1239,4.1343,4.1454,4.1726,4.2606,4.282,4.2582,4.1034,4.0991,4.1406,4.2206,4.3249,4.3971,4.3015,4.2796,4.2497,4.1833,4.0935,4.1085,4.1145,4.1145,4.1145,4.1055,4.0846,3.9694,3.8437,3.718,3.7195,3.718,3.721,3.7868,3.8153,3.8197,3.8706,3.891,3.8916,3.8407,3.8078,3.7868,3.6791,3.6178,3.5986,3.4816,3.4279,3.4219,3.3141,3.2721,3.3036,3.3679,3.4189,3.4503,3.516,3.5489,3.5489,3.5489,3.5539,3.5688,3.5029,3.4531,3.4208,3.3345,3.2432,3.1428,3.1063,3.0125,2.844,2.8056,0.0,0.0,0.0,0.0,0.0,0.0,0.0,0.0,0.0,2.6173,2.6364,0.0,2.7996,0.0,2.9827,3.1197,3.1844,3.2382,0.0,0.0,3.3673,3.3794,3.3893,3.4651,3.5468,3.6316,3.7624,3.879,3.9598,4.0313,4.0717,4.0733,4.0706,4.0799,4.0932,4.1,4.1049,4.1034,4.1153,4.1239,4.1272,4.1406,4.1521,4.1488,4.1573,4.1623,4.1655,4.1916,4.2093,4.219,4.2671,4.3186,4.3428,4.3944,4.4268,4.401,4.3913,4.3978,4.4463,4.4977,4.5408,4.3305,4.3305,4.3305,4.2871,4.2252,4.2252,4.2252,4.2222,4.1976,4.1856,4.1767,4.0427,3.9439,3.8736,3.8437,3.8302,3.8332,3.8676,3.8856,3.8871,3.9245,3.9388,3.9409,3.9035,3.8691,3.8362,3.7674,3.703,3.6462,3.5761,3.5237,3.4936,3.4562,3.4397,3.4382,3.4488,3.4668,3.4921,3.531,3.5489,3.5489,3.5489,3.5619,3.58,3.4986,3.447,3.4342,3.3462,3.2613,3.1901,3.1578,3.0874,2.9797,2.9181,2.8356,0.0,0.0,0.0,0.0,0.0,0.0,0.0,0.0,0.0,0.0,0.0,2.9576,3.0253,3.1382,3.2462,3.3439,3.3872,3.4384,3.5095,3.5452,3.5776,3.6115,3.686,3.7592,3.8372,3.9235,4.002,4.0695,4.107,4.1355,4.1437,4.1272,4.1171,4.1187,4.1254,4.1355,4.1437,4.1571,4.1654,4.1638,4.1818,4.1964,4.198,4.2045,4.219,4.2269,4.246,4.2665,4.2854,4.35,4.4214,4.454,4.5242,4.588,4.6322,4.6421,4.6126,4.563,4.6124,4.67,4.3305,4.3305,4.3305,4.3305,4.3305,4.3305,4.3305,4.326,4.2731,4.2485,4.2336,4.116,4.0561,4.0367,3.9762,3.9463,3.9388,3.9388,3.9388,3.9388,3.9388,3.9388,3.9388,3.9388,3.9095,3.8527,3.8422,3.7823,3.678,3.6567,3.6207,3.5654,3.5564,3.5489,3.5474,3.4906,3.4906,3.5489,3.5489,3.5489,3.5489,3.5522,3.5668,3.5928,3.4729,3.421,3.446,3.3213,3.249,3.2367,3.1828,3.1501,3.1393,3.0289,2.9366,0.0,2.8104,0.0,0.0,0.0,0.0,0.0,0.0,0.0,0.0,3.0757,3.1511,3.294,3.3263,3.3909,3.5193,3.5381,3.5739,3.6428,3.704,3.7635,3.8247,3.9031,3.9803,4.0418,4.0689,4.107,4.1609,4.1687,4.172,4.185,4.1719,4.1555,4.1456,4.1555,4.1686,4.1881,4.2061,4.2174,4.2238,4.2381,4.2508,4.2539,4.2649,4.2789,4.2976,4.3054,4.3129,4.3421,4.4155,4.4977,4.5761,4.6522,4.7317,4.7962,4.8111,4.7712,4.6733,4.7065,4.7807,4.3305,4.3305,4.3305,4.3305,4.3305,4.3305,4.3305,4.329,4.3155,4.2851,4.2396,4.2141,4.1437,4.0412,4.0277,3.9933,3.9388,3.9388,3.9388,3.9388,3.9388,3.9388,3.9388,3.9388,3.9349,3.9185,3.8646,3.8257,3.8003,3.6985,3.6417,3.6282,3.5759,3.5489,3.5489,0.0,0.0,0.0,3.5489,3.5489,3.5504,3.5589,3.5767,3.599,3.5308,0.0,3.4475,3.3688,3.2952,3.2428,3.2275,0.0,0.0,0.0,0.0,0.0,0.0,0.0,0.0,0.0,0.0,0.0,3.1932,3.1765,3.1502,3.2721,3.3897,3.4806,3.5542,3.6365,3.7336,3.791,3.8517,3.9235,3.9443,3.9617,3.9882,4.0506,4.1049,4.1334,4.1755,4.2093,4.2222,4.2109,4.2013,4.2061,4.1963,4.1898,4.1916,4.1882,4.185,4.1914,4.2286,4.2602,4.2898,4.2992,4.3152,4.319,4.3312,4.3462,4.3611,4.3743,4.3864,4.3952,4.5066,4.5951,4.6182,4.7283,4.8169,4.8386,4.8564,4.8591,4.8274,4.8387,4.863,4.3305,0.0,4.3305,4.3305,0.0,4.3305,4.3305,4.3305,4.3305,4.3095,4.2821,4.2545,4.2036,4.1354,4.1025,4.0711,4.0382,4.0053,3.9903,3.9888,3.9574,3.9388,3.9388,3.9388,3.9388,3.9373,3.908,3.8721,3.8377,3.7749,3.7255,3.6926,3.6611,3.6297,3.5983,3.5669,3.5489,3.5489,3.5489,3.5489,3.5504,3.5606,3.5799,3.5975,3.5141,0.0,0.0,0.0,0.0,0.0,0.0,0.0,0.0,0.0,0.0,3.1459,3.172,3.1932,3.2014,3.2029,3.2489,3.3547,3.4557,3.4836,3.4132,3.498,3.6055,3.7299,3.789,3.8533,3.9372,3.979,4.0294,4.0945,4.1042,4.1172,4.1547,4.1933,4.2221,4.2239,4.2548,4.2728,4.2665,4.2618,4.2523,4.2365,4.2286,4.219,4.2125,4.198,4.1963,4.2222,4.2879,4.3389,4.3748,4.4214,4.4306,4.4274,4.4308,4.429,4.4085,4.4138,4.4224,4.4365,4.5269,4.6094,4.6565,4.7457,4.8332,4.8652,4.8815,4.8894,4.8894,4.8894,4.8925,4.3305,4.3305,4.3305,4.3305,4.3305,4.3305,4.3305,4.3305,0.0,0.0,0.0,4.2776,4.2515,4.2366,4.1826,4.1527,4.1354,4.0831,4.0561,4.0546,3.9903,3.9589,3.9553,3.9469,3.9388,3.9388,3.9388,3.9125,3.8571,3.8452,3.8123,3.7614,3.7464,3.709,3.6492,3.5953,3.5609,3.5537,3.5504,3.5504,3.5537,3.5686,3.5847,3.6022,3.4988,3.4511,3.4674,3.3457,3.2767,3.2767,3.2752,3.2752,3.2782,3.329,3.3365,3.29,3.3347,3.3725,3.397,3.4063,3.4569,3.5551,3.72,3.7849,3.7004,3.7338,3.8226,3.9695,4.0062,4.0578,4.1284,4.1494,4.1762,4.2338,4.2387,4.2591,4.3015,4.3221,4.3202,4.3115,4.3143,4.3143,4.3023,4.3021,4.3005,4.2743,4.2634,4.2476,4.2174,4.1996,4.2125,4.2651,4.3259,4.3933,4.4375,4.4854,4.5288,4.482,4.4871,4.4867,4.4512,4.4367,4.4423,4.4542,4.5196,4.586,4.6515,4.7297,4.8058,4.8697,4.8917,4.9018,4.9018,4.9001,4.9018,4.3305,4.3305,4.3305,4.3305,4.3305,4.3305,4.3305,4.3305,4.3305,4.3305,4.329,4.32,4.288,4.2396,4.2306,4.1961,4.1384,4.1294,4.125,4.1205,4.0561,4.0262,4.0232,3.9679,3.9388,3.9388,3.9388,3.9379,3.9215,3.8676,3.8347,3.8197,3.7689,3.7105,3.6537,3.6387,3.6157,3.5686,3.5554,3.5554,3.5671,3.5878,3.6022,3.6149,3.56,3.5337,3.5367,3.4613,3.4197,3.4197,3.4197,3.4212,3.4212,3.4289,3.4363,3.437,3.4463,3.4638,3.4983,3.5545,3.6585,3.8262,3.9481,3.9685,3.879,3.9742,4.0574,4.0976,4.1778,4.2465,4.2745,4.3246,4.3568,4.3764,4.3797,4.3835,4.3894,4.3906,4.3848,4.3734,4.3615,4.3462,4.3342,4.3235,4.3143,4.3021,4.279,4.2492,4.227,4.2077,4.2365,4.2898,4.3286,4.3597,4.4066,4.4173,4.4537,4.4409,4.4505,4.4608,4.4547,4.4525,4.4542,4.457,4.5162,4.5652,4.5923,4.7005,4.7753,4.8156,4.8578,4.8984,4.9018,4.9018,4.9018,4.3305,4.3305,4.3305,4.3305,4.3305,4.3305,4.3305,4.3305,4.3305,4.3305,4.3305,4.3305,4.3165,4.2895,4.2895,4.2731,4.2432,4.2111,4.1946,4.1901,4.125,4.0741,4.0397,4.0098,3.9717,3.9403,3.9388,3.9388,3.9358,3.908,3.8945,3.8901,3.8272,3.7793,3.7524,3.7267,3.7037,3.6773,3.6014,3.5686,3.5863,3.6022,3.6133,3.6196,3.5753,3.5491,3.5506,3.4859,3.4489,3.4489,3.4489,3.4489,3.4505,3.4887,3.5347,3.5808,3.6345,3.6944,3.7634,3.8203,3.9151,4.0537,4.118,4.1544,4.1635,4.1716,4.2125,4.281,4.3366,4.3692,4.385,4.417,4.4355,4.4355,4.4372,4.4344,4.4241,4.4196,4.4138,4.4027,4.3923,4.3805,4.3625,4.3641,4.3505,4.3295,4.2992,4.2728,4.2665,4.2587,4.2634,4.2978,4.3594,4.4205,4.4536,4.5064,4.5261,4.5132,4.5048,4.4924,4.4705,4.4598,4.4598,4.4598,4.4936,4.5229,4.5568,4.6549,4.7327,4.7906,4.8494,4.8934,4.9018,4.9018,4.9018,4.3305,4.3305,4.3305,4.3305,4.3305,4.3305,4.3305,4.3305,4.3305,4.3305,4.3305,4.3305,4.3305,4.3305,4.3305,4.329,4.323,4.2806,4.262,4.2545,4.1931,4.1362,4.0846,4.0576,4.0127,3.9664,3.9463,3.9388,3.9388,3.9388,3.9388,3.9328,3.8886,3.8542,3.8392,3.8086,3.7873,3.7729,3.6781,3.6273,3.6297,3.6224,3.6211,3.6243,3.5922,3.5737,3.5706,3.5229,3.4967,3.4951,3.4951,3.5013,3.5242,3.5811,3.6521,3.7358,3.8198,3.9136,4.0203,4.0691,4.1386,4.239,4.2604,4.3057,4.371,4.3298,4.3285,4.4135,4.4288,4.4423,4.4542,4.4756,4.4823,4.484,4.4993,4.5105,4.4918,4.4872,4.4798,4.467,4.4641,4.4599,4.4449,4.4495,4.4473,4.407,4.3551,4.3313,4.3328,4.3282,4.3235,4.3215,4.385,4.4474,4.4951,4.5492,4.571,4.5517,4.5399,4.5094,4.4733,4.4598,4.4598,4.4598,4.4598,4.4835,4.5365,4.621,4.6938,4.753,4.8325,4.9001,4.9018,4.9018,4.9018,4.3305,4.3305,4.3305,4.3305,4.3305,4.3305,4.3305,4.3305,4.3305,4.3305,4.3305,4.3305,4.3305,4.3305,4.3305,4.3305,4.3305,4.323,4.3185,4.315,4.2566,4.2276,4.2051,4.098,4.0382,4.0217,3.9723,3.9418,3.9388,3.9388,3.9388,3.9388,3.9349,3.899,3.8502,3.8522,3.8394,3.8004,3.8053,3.7737,3.708,3.6517,3.6305,3.6445,3.6445,3.6399,3.643,3.6338,3.6307,3.6307,3.6307,3.6662,3.7359,3.7561,3.8122,3.9235,3.9563,4.0297,4.1716,4.2153,4.2684,4.3527,4.3756,4.398,4.4241,4.4202,4.4152,4.4406,4.4519,4.4637,4.4649,4.5196,4.5585,4.5635,4.6109,4.6583,4.6452,4.6583,4.6494,4.6296,4.6098,4.6189,4.5952,4.5905,4.5851,4.5381,4.4719,4.4237,4.4142,4.4107,4.4002,4.3586,4.3711,4.4023,4.4363,4.4575,4.488,4.4773,4.4733,4.4699,4.4632,4.4598,4.4598,4.4598,4.4598,4.4682,4.4976,4.5754,4.6769,4.7141,4.8003,4.9018,4.9018,4.9018,4.9018,4.3305,4.3305,4.3305,4.3305,4.3305,4.3305,4.3305,4.3305,4.3305,4.3305,4.3305,4.3305,4.3305,4.3305,4.3305,4.3305,4.3305,4.3305,4.3305,4.3275,4.3045,4.2731,4.2351,4.1886,4.1212,4.0442,4.0127,3.9813,3.9448,3.9388,3.9388,3.9388,3.9388,3.9239,3.902,3.9183,3.9259,3.9191,3.8937,3.8721,3.8514,3.7918,3.7597,3.7692,3.7677,3.7692,3.7692,3.7677,3.7692,3.7677,3.7677,3.7832,3.8191,3.8399,3.8982,3.996,4.1038,4.1934,4.2654,4.3076,4.3502,4.3964,4.4109,4.4466,4.5064,4.5127,4.5296,4.5667,4.5454,4.5399,4.5821,4.6177,4.6346,4.638,4.6616,4.6802,4.6786,4.6802,4.6756,4.668,4.6663,4.6638,4.6424,4.6226,4.6074,4.5889,4.5421,4.5054,4.4958,4.4598,4.4299,4.4155,4.3926,4.3835,4.4109,4.431,4.444,4.457,4.4598,4.4598,4.4598,4.4598,4.4598,4.4598,4.4649,4.4649,4.4615,4.572,4.6802,4.7124,4.7936,4.9018,4.9018,4.9018,4.9018,4.3305,4.3305,4.3305,4.3305,4.3305,4.3305,4.3305,4.3305,4.3305,4.3305,4.3305,4.3305,4.3305,4.3305,4.3305,4.3305,4.3305,4.3305,4.3305,4.3305,4.3305,4.309,4.2656,4.2455,4.1901,4.104,4.0771,4.0337,3.9753,3.9679,3.9604,3.9418,3.9388,3.9388,3.9409,3.9589,3.9768,3.9864,3.9584,3.9478,3.952,3.9155,3.8793,3.8536,3.8508,3.8508,3.8508,3.8508,3.8508,3.8508,3.8508,3.8633,3.8835,3.9146,3.9766,4.0831,4.2075,4.293,4.3174,4.3568,4.3881,4.4027,4.4306,4.482,4.5411,4.5727,4.6182,4.6789,4.6469,4.6397,4.6684,4.6989,4.709,4.7047,4.7166,4.7352,4.7308,4.7275,4.7325,4.7275,4.7349,4.7214,4.6951,4.6622,4.6335,4.6346,4.6007,4.5634,4.5487,4.4916,4.4409,4.4416,4.3819,4.3648,4.3981,4.4167,4.4327,4.444,4.4497,4.4525,4.457,4.4598,4.4598,4.4615,4.4733,4.4987,4.5179,4.6092,4.7225,4.7547,4.824,4.9018,4.9018,4.9018,4.9018,4.3305,4.3305,4.3305,4.3305,4.3305,4.3305,4.3305,4.3305,4.3305,4.3305,4.3305,4.3305,4.3305,4.3305,4.3305,4.3305,4.3305,4.3305,4.3305,4.3305,4.3305,4.3275,4.3215,4.2671,4.2366,4.2111,4.1617,4.0995,4.0382,4.0352,4.0038,3.9469,3.9448,3.9403,3.9409,3.9589,3.9696,3.9753,3.9834,3.9955,3.9955,3.9925,3.9444,3.8688,3.8554,3.8616,3.8585,3.8539,3.8554,3.8539,3.86,3.8912,3.9619,3.9926,4.0683,4.2013,4.2476,4.2805,4.3281,4.3479,4.3674,4.3889,4.4569,4.5185,4.5436,4.5939,4.6592,4.7326,4.7309,4.7167,4.6988,4.7457,4.773,4.7642,4.8214,4.8438,4.8379,4.818,4.8398,4.8314,4.8182,4.802,4.7994,4.74,4.7028,4.6963,4.6551,4.6009,4.5746,4.5193,4.4496,4.3896,4.3453,4.3207,4.3894,4.4023,4.4109,4.4253,4.431,4.4412,4.4497,4.4598,4.4598,4.475,4.5145,4.5534,4.5872,4.6667,4.78,4.8359,4.8578,4.9018,4.9018,4.9018,4.9018,4.3305,4.3305,4.3305,4.3305,4.3305,4.3305,4.3305,4.3305,4.3305,4.3305,4.3305,4.3305,4.3305,4.3305,4.3305,4.3305,4.3305,4.3305,4.3305,4.3305,4.3305,4.3305,4.326,4.3075,4.2731,4.2396,4.2156,4.1707,4.1085,4.104,4.0696,4.0157,4.0038,3.9858,3.9499,3.9496,3.9553,3.9681,3.9768,3.9889,3.996,4.0011,3.9823,3.9501,3.9593,3.9665,3.9767,3.9767,3.9767,3.9767,3.9767,3.9893,4.0226,4.0577,4.1072,4.1803,4.2142,4.2429,4.2711,4.3023,4.3434,4.4031,4.4415,4.5213,4.6022,4.6485,4.695,4.7565,4.7748,4.7694,4.769,4.7996,4.8255,4.8226,4.8316,4.8388,4.8324,4.8244,4.8196,4.8147,4.8,4.7704,4.7489,4.7142,4.6957,4.7001,4.6565,4.6231,4.5899,4.5024,4.4074,4.3875,4.3121,4.2586,4.3207,4.3611,4.3818,4.3977,4.4121,4.4281,4.4395,4.4542,4.457,4.4852,4.5348,4.594,4.6261,4.709,4.8223,4.8748,4.9001,4.9018,4.9018,4.9018,4.9018,4.3305,4.3305,4.3305,4.3305,4.3305,4.3305,4.3305,4.3305,4.3305,4.3305,4.3305,4.3305,4.3305,4.3305,4.3305,4.3305,4.3305,4.3305,4.3305,4.3305,4.3305,4.3305,4.3305,4.3305,4.312,4.2731,4.2686,4.2366,4.1811,4.1737,4.1377,4.0756,4.0726,4.0382,3.9843,3.9723,3.9721,3.9649,3.9625,3.9661,3.9783,3.9818,3.9854,3.9925,4.0031,4.0191,4.0331,4.0401,4.042,4.0436,4.047,4.0524,4.0612,4.0867,4.1156,4.1474,4.172,4.2027,4.2446,4.2783,4.3345,4.4139,4.464,4.5373,4.6388,4.67,4.7095,4.7523,4.7638,4.7654,4.7688,4.782,4.8065,4.8146,4.8049,4.7935,4.7869,4.7737,4.7654,4.7571,4.7354,4.71,4.6878,4.6705,4.6531,4.6474,4.6211,4.6052,4.5766,4.4812,4.3775,4.3765,4.2912,4.2396,4.2558,4.2852,4.3435,4.3704,4.3919,4.4093,4.4327,4.4502,4.4756,4.501,4.5483,4.6126,4.6836,4.7648,4.8274,4.8883,4.9018,4.9018,4.9018,4.9018,4.9018,4.3305,4.3305,4.3305,4.3334,4.3394,4.3394,4.3349,4.3454,4.3424,4.3514,4.3574,4.3394,4.3409,4.3349,4.3334,4.3305,4.3305,4.3305,4.3305,4.3305,4.3305,4.3305,4.3305,4.3305,4.329,4.32,4.3245,4.2985,4.244,4.2381,4.2066,4.1527,4.1422,4.1055,4.0427,4.0397,4.0113,3.9709,3.9625,3.9484,3.9403,3.949,3.9532,3.9681,3.9732,3.9803,3.9996,4.0172,4.0296,4.0296,4.0436,4.0608,4.073,4.0799,4.0969,4.1239,4.1321,4.1751,4.2473,4.287,4.3404,4.4175,4.5119,4.5578,4.5919,4.6439,4.6811,4.686,4.6876,4.6892,4.6892,4.6911,4.715,4.7555,4.7521,4.7354,4.7201,4.703,4.6876,4.6842,4.6668,4.6512,4.6321,4.6108,4.5945,4.5708,4.5578,4.5468,4.5311,4.4523,4.3847,4.3305,4.2824,4.2482,4.2229,4.2125,4.2824,4.3441,4.3658,4.3906,4.4234,4.4456,4.5003,4.5353,4.6261,4.6921,4.78,4.8494,4.8595,4.9018,4.9018,4.9018,4.9018,4.9018,4.9018,4.3305,4.3305,4.3305,4.3559,4.3973,4.3977,4.4242,4.4661,4.4691,4.4676,4.4601,4.4197,4.4003,4.3858,4.3529,4.3305,4.3305,4.3305,4.3305,4.3334,4.3305,4.3305,4.3305,4.3305,4.3305,4.3305,4.3305,4.32,4.306,4.3015,4.2701,4.2216,4.2096,4.1737,4.1115,4.107,4.0935,4.0756,4.0337,4.0098,4.0053,3.9649,3.946,3.9481,3.9481,3.9517,3.9604,3.9925,4.0081,4.0117,4.0277,4.0436,4.0558,4.0593,4.0696,4.0966,4.142,4.1785,4.2238,4.283,4.3488,4.4208,4.4696,4.5151,4.5706,4.5996,4.6156,4.614,4.6156,4.6156,4.614,4.6156,4.6423,4.7082,4.6979,4.6756,4.6598,4.6317,4.6104,4.5961,4.5889,4.5744,4.5614,4.5484,4.5395,4.53,4.5188,4.5061,4.4893,4.4347,4.383,4.3531,4.3065,4.2708,4.2614,4.2717,4.3215,4.3698,4.389,4.4195,4.4428,4.4807,4.5306,4.6029,4.6908,4.775,4.8646,4.9018,4.9018,4.9018,4.9018,4.9018,4.9018,4.9018,4.9018,4.3305,4.3319,4.3544,4.3928,4.4347,4.4556,4.4885,4.5259,4.5289,4.5289,4.5185,4.4855,4.4676,4.4601,4.4227,4.4077,4.4047,4.4022,4.4062,4.3943,4.3424,4.3305,4.3305,4.3305,4.3305,4.3305,4.3305,4.3305,4.3305,4.329,4.312,4.2776,4.2716,4.244,4.1856,4.1782,4.1692,4.1392,4.0965,4.0771,4.0681,4.0367,4.0157,4.0157,4.0157,4.0157,4.0157,4.0398,4.0317,4.0031,4.0137,4.0347,4.0451,4.0701,4.0959,4.1187,4.1716,4.2266,4.2636,4.3158,4.3728,4.4414,4.4643,4.4924,4.5463,4.5594,4.5557,4.5594,4.5594,4.5541,4.5557,4.5573,4.5812,4.6191,4.6211,4.6104,4.5941,4.5739,4.5557,4.5447,4.5358,4.5225,4.5129,4.5017,4.4964,4.4942,4.4852,4.4799,4.4684,4.4346,4.4053,4.3797,4.3385,4.318,4.3129,4.3352,4.368,4.3988,4.4235,4.4638,4.4983,4.5496,4.6018,4.6845,4.7733,4.8189,4.9001,4.9001,4.9018,4.9018,4.9018,4.9018,4.9018,4.9018,4.9018,4.3319,4.3424,4.3992,4.4377,4.4586,4.5125,4.5439,4.5469,4.5484,4.5544,4.5499,4.5409,4.5349,4.5349,4.5155,4.508,4.5244,4.5125,4.508,4.4825,4.4152,4.3559,4.3469,4.3364,4.3305,4.3305,4.3305,4.3305,4.3305,4.3305,4.3305,4.3215,4.317,4.3045,4.2521,4.244,4.2147,4.1728,4.1504,4.1467,4.1414,4.1309,4.1317,4.1302,4.1235,4.1205,4.1227,4.1235,4.086,4.0049,4.034,4.0512,4.0587,4.1188,4.1561,4.1643,4.2242,4.2848,4.3445,4.3741,4.4177,4.4725,4.493,4.5182,4.5167,4.5167,4.5167,4.5167,4.5167,4.5182,4.5167,4.5182,4.522,4.5204,4.5431,4.5431,4.5257,4.5204,4.5167,4.5129,4.5002,4.4874,4.4889,4.4739,4.4648,4.4648,4.4648,4.4648,4.4632,4.4425,4.4271,4.4009,4.3769,4.3704,4.3692,4.3842,4.4201,4.4598,4.4798,4.5178,4.5611,4.6109,4.6847,4.7676,4.8223,4.8731,4.8984,4.9001,4.9018,4.9018,4.9018,4.9018,4.9018,4.9018,4.9018,4.3574,4.4062,4.4242,4.4885,4.5723,4.6007,4.6337,4.6741,4.6756,4.6681,4.6651,4.6247,4.6052,4.595,4.5529,4.5289,4.5364,4.5349,4.5289,4.5244,4.5005,4.4481,4.4003,4.3514,4.3334,4.3349,4.3379,4.3305,4.3305,4.3319,4.3305,4.3305,4.329,4.3269,4.309,4.3045,4.2976,4.2761,4.2351,4.2141,4.2066,4.1639,4.1437,4.1422,4.1467,4.1467,4.1437,4.1422,4.1408,4.1227,4.1247,4.1379,4.145,4.1684,4.1931,4.2199,4.2757,4.326,4.3618,4.4108,4.4463,4.4655,4.4761,4.4776,4.4776,4.4792,4.4776,4.4739,4.4754,4.477,4.4754,4.4754,4.4739,4.4776,4.4949,4.5024,4.4964,4.4836,4.4776,4.4739,4.4739,4.4701,4.4685,4.4648,4.461,4.461,4.461,4.461,4.461,4.4594,4.4425,4.4471,4.4332,4.4271,4.4306,4.4446,4.4741,4.5205,4.5477,4.5745,4.6157,4.6619,4.753,4.85,4.8578,4.8951,4.9001,4.9001,4.9018,4.9018,4.9018,4.9018,4.9018,4.9018,4.9018,4.3917,4.4336,4.4915,4.5562,4.6294,4.6563,4.6965,4.7249,4.7309,4.7309,4.7219,4.6935,4.6741,4.6681,4.6322,4.6157,4.6142,4.6127,4.6157,4.6097,4.5858,4.5349,4.4766,4.4287,4.4152,4.4107,4.3813,4.3708,4.3648,4.3454,4.3305,4.3305,4.3305,4.3305,4.3275,4.3305,4.3305,4.3215,4.294,4.2776,4.2716,4.2402,4.2267,4.2207,4.2192,4.2207,4.2207,4.2207,4.2036,4.1701,4.1663,4.1753,4.1866,4.222,4.2416,4.2611,4.3296,4.3776,4.3936,4.4349,4.4579,4.461,4.461,4.461,4.4649,4.4742,4.4903,4.4933,4.4826,4.4772,4.4726,4.4542,4.4389,4.4358,4.4549,4.4701,4.4776,4.4685,4.461,4.461,4.461,4.461,4.461,4.461,4.461,4.461,4.461,4.461,4.461,4.461,4.461,4.461,4.461,4.4486,4.4478,4.4598,4.4865,4.5379,4.5893,4.6189,4.675,4.7193,4.797,4.874,4.892,4.9018,4.9018,4.9018,4.9018,4.9018,4.9018,4.9018,4.9018,4.9018,4.9018,4.4407,4.4631,4.5786,4.6367,4.6488,4.7055,4.7264,4.7309,4.7309,4.7309,4.7294,4.7294,4.7204,4.7309,4.7085,4.7234,4.7219,4.7085,4.7174,4.698,4.6651,4.6112,4.5648,4.52,4.508,4.5035,4.4646,4.4466,4.4317,4.3828,4.3589,4.3648,4.3574,4.3424,4.3469,4.3379,4.3305,4.3305,4.3245,4.317,4.317,4.3095,4.305,4.305,4.305,4.308,4.3125,4.3125,4.2776,4.1654,4.1761,4.1957,4.204,4.2697,4.297,4.3138,4.3678,4.4113,4.4251,4.4335,4.4588,4.4611,4.468,4.4718,4.4887,4.5177,4.5334,4.5334,4.5175,4.516,4.5059,4.4619,4.4452,4.4545,4.454,4.4565,4.4642,4.4664,4.461,4.461,4.461,4.461,4.461,4.461,4.461,4.461,4.461,4.461,4.461,4.461,4.461,4.461,4.461,4.461,4.4617,4.473,4.5014,4.5416,4.6036,4.6528,4.7291,4.7798,4.8394,4.8846,4.8894,4.8956,4.9018,4.9018,4.9001,4.9018,4.9018,4.9018,4.9018,4.9018,4.9018,4.4945,4.5876,4.616,4.6636,4.707,4.7249,4.7309,4.7309,4.7309,4.7309,4.7309,4.7309,4.7309,4.7309,4.7309,4.7309,4.7309,4.7309,4.7309,4.7294,4.7204,4.704,4.6606,4.5903,4.5364,4.5334,4.52,4.5095,4.5005,4.4885,4.4855,4.4751,4.4302,4.4107,4.4062,4.3663,4.3305,4.3305,4.3334,4.3349,4.3349,4.3319,4.3305,4.3305,4.3305,4.3305,4.3305,4.3305,4.3155,4.2985,4.2851,4.2824,4.2884,4.3073,4.3296,4.3458,4.3642,4.391,4.4042,4.4219,4.4402,4.4898,4.4989,4.5093,4.5586,4.5692,4.5763,4.5763,4.5708,4.5667,4.5561,4.5571,4.5334,4.5273,4.5384,4.5454,4.5458,4.5017,4.4734,4.4664,4.4664,4.4587,4.4618,4.4702,4.4687,4.4625,4.461,4.461,4.461,4.461,4.461,4.461,4.461,4.461,4.4648,4.4723,4.4986,4.5284,4.5889,4.6407,4.7168,4.777,4.8081,4.8452,4.8801,4.8863,4.8909,4.897,4.897,4.897,4.9001,4.9018,4.9018,4.9018,4.9018,4.5379,4.6337,4.6666,4.698,4.7279,4.7309,4.7309,4.7309,4.7309,4.7309,4.7309,4.7309,4.7309,4.7309,4.7309,4.7309,4.7309,4.7309,4.7309,4.7309,4.7294,4.7294,4.7249,4.6681,4.6232,4.6187,4.5903,4.5798,4.5723,4.5484,4.5214,4.5289,4.4945,4.4796,4.4766,4.4392,4.4317,4.4212,4.3928,4.3793,4.3778,4.3439,4.3305,4.3305,4.3305,4.3305,4.3305,4.3305,4.3305,4.3305,4.3319,4.3305,4.3305,4.3305,4.3384,4.3478,4.3636,4.3895,4.4164,4.4449,4.4762,4.5384,4.543,4.5571,4.5895,4.6096,4.6226,4.6199,4.6128,4.5985,4.5695,4.5619,4.5634,4.5619,4.5716,4.5757,4.5718,4.5428,4.5214,4.5253,4.5369,4.5447,4.5394,4.5141,4.5064,4.5172,4.4695,4.4702,4.4625,4.4625,4.461,4.461,4.461,4.461,4.4625,4.4739,4.4874,4.5173,4.5489,4.5945,4.6496,4.6997,4.7438,4.7918,4.8468,4.8707,4.8753,4.8846,4.894,4.897,4.9001,4.9001,4.9018,4.9018,4.9018,4.5768,4.6474,4.7085,4.7309,4.7309,4.7309,4.7309,4.7309,4.7309,4.7309,4.7309,4.7309,4.7309,4.7309,4.7309,4.7309,4.7309,4.7309,4.7309,4.7309,4.7309,4.7309,4.7249,4.7174,4.71,4.7219,4.6726,4.6486,4.6307,4.5948,4.5873,4.5648,4.5484,4.5469,4.5454,4.5289,4.5125,4.5005,4.4661,4.4466,4.4421,4.4003,4.3783,4.3768,4.3783,4.3798,4.3798,4.3768,4.3678,4.3589,4.3589,4.3589,4.3544,4.3334,4.3394,4.3464,4.3743,4.4138,4.4614,4.4916,4.5238,4.5889,4.5949,4.6055,4.6241,4.6478,4.6677,4.6668,4.6554,4.6319,4.5708,4.5825,4.578,4.5777,4.5815,4.5838,4.5879,4.6003,4.604,4.5824,4.5788,4.5831,4.5896,4.5846,4.5771,4.5649,4.5172,4.4849,4.4818,4.488,4.5049,4.5187,4.5326,4.5372,4.5411,4.5365,4.5448,4.5515,4.5669,4.595,4.6317,4.6865,4.7448,4.7653,4.8065,4.831,4.8534,4.861,4.8736,4.8909,4.9001,4.9001,4.9018,4.9018,4.9069,4.6022,4.716,4.7249,4.7309,4.7309,4.7309,4.7309,4.7309,4.7309,4.7309,4.7309,4.7309,4.7309,4.7309,4.7309,4.7309,4.7309,4.7309,4.7309,4.7309,4.7309,4.7309,4.7309,4.7309,4.7309,4.7309,4.7115,4.7055,4.707,4.7025,4.6741,4.677,4.6396,4.6157,4.5992,4.5663,4.5484,4.5529,4.5274,4.514,4.508,4.4915,4.4766,4.4766,4.4736,4.4781,4.4855,4.4915,4.496,4.496,4.496,4.4915,4.4661,4.3902,4.3738,4.4032,4.4193,4.4533,4.5128,4.5263,4.5623,4.6047,4.6284,4.6569,4.6899,4.7081,4.7081,4.7098,4.7113,4.704,4.701,4.677,4.6905,4.692,4.6858,4.6901,4.6916,4.6869,4.665,4.6226,4.6148,4.6194,4.6336,4.6412,4.6303,4.6159,4.5877,4.5662,4.5646,4.5793,4.6001,4.6179,4.6342,4.6357,4.6342,4.628,4.6266,4.6299,4.64,4.6538,4.6906,4.7186,4.7559,4.7632,4.7798,4.8051,4.8216,4.8557,4.8912,4.9306,4.9229,4.9086,4.9357,4.961,4.939,4.6082,4.7279,4.7309,4.7309,4.7309,4.7309,4.7309,4.7309,4.7309,4.7309,4.7309,4.7309,4.7309,4.7309,4.7309,4.7309,4.7309,4.7309,4.7309,4.7309,4.7309,4.7309,4.7309,4.7309,4.7309,4.7309,4.7309,4.7309,4.7309,4.7279,4.7309,4.7234,4.695,4.683,4.6785,4.6561,4.6307,4.6262,4.6007,4.5828,4.5768,4.5559,4.5334,4.5304,4.5319,4.5289,4.5289,4.5289,4.5274,4.5259,4.5274,4.5289,4.5125,4.487,4.4481,4.4781,4.484,4.511,4.5678,4.5843,4.6142,4.6711,4.683,4.695,4.7204,4.7279,4.7309,4.7309,4.7309,4.7309,4.7249,4.7309,4.7309,4.7309,4.7309,4.7309,4.7309,4.7309,4.6989,4.6617,4.6776,4.6917,4.6955,4.6943,4.6778,4.6631,4.6473,4.6452,4.6437,4.6508,4.664,4.6553,4.664,4.668,4.6735,4.6791,4.6862,4.696,4.7033,4.7191,4.7231,4.7411,4.7462,4.7458,4.7637,4.8172,4.874,4.9343,4.9575,4.975,4.9946,5.0058,5.0122,5.0137,4.9982,4.6082,4.7309,4.7309,4.7309,4.7309,4.7309,4.7309,4.7309,4.7309,4.7309,4.7309,4.7309,4.7309,4.7309,4.7309,4.7309,4.7309,4.7309,4.7309,4.7309,4.7309,4.7309,4.7309,4.7309,4.7309,4.7309,4.7309,4.7309,4.7309,4.7309,4.7309,4.7294,4.7309,4.7309,4.7219,4.7115,4.7309,4.7145,4.683,4.6503,4.6381,4.6007,4.5693,4.5693,4.5693,4.5768,4.5858,4.5873,4.5858,4.5843,4.5798,4.5768,4.5723,4.5708,4.5693,4.5678,4.5603,4.5888,4.6307,4.6516,4.6726,4.7145,4.7264,4.7294,4.7294,4.7309,4.7309,4.7309,4.7309,4.7309,4.7309,4.7309,4.7309,4.7309,4.7309,4.7309,4.7309,4.7309,4.7309,4.7244,4.7467,4.746,4.7347,4.7329,4.7179,4.7285,4.7143,4.7067,4.7037,4.6874,4.6874,4.6726,4.6711,4.6793,4.6921,4.7119,4.7262,4.7405,4.7536,4.7657,4.7543,4.7499,4.759,4.79,4.8469,4.9089,4.9626,4.9897,4.9874,5.0093,5.0708,5.0921,5.0764,5.0745,5.0727,4.6082,4.7309,4.7309,4.7309,4.7309,4.7309,4.7309,4.7309,4.7309,4.7309,4.7309,4.7309,4.7309,4.7309,4.7309,4.7309,4.7309,4.7309,4.7309,4.7309,4.7309,4.7309,4.7309,4.7309,4.7309,4.7309,4.7309,4.7309,4.7309,4.7309,4.7309,4.7309,4.7309,4.7309,4.7309,4.7309,4.7309,4.7279,4.7204,4.7145,4.7115,4.6995,4.695,4.695,4.692,4.6875,4.6815,4.68,4.686,4.692,4.698,4.704,4.707,4.707,4.707,4.689,4.6666,4.6486,4.6995,4.7085,4.7085,4.7279,4.7309,4.7309,4.7309,4.7309,4.7309,4.7309,4.7309,4.7309,4.7309,4.7309,4.7309,4.7309,4.7309,4.7309,4.7309,4.7309,4.7309,4.7309,4.7381,4.7467,4.7475,4.7533,4.7603,4.7743,4.7767,4.7646,4.7497,4.7247,4.7186,4.7011,4.6966,4.7065,4.7118,4.7361,4.7542,4.7762,4.7886,4.8024,4.8024,4.8013,4.8438,4.8825,4.9308,4.9512,4.9655,4.9831,4.9959,5.0557,5.1313,5.136,5.1168,5.1236,5.1539,4.6082,4.7309,4.7309,4.7309,4.7309,4.7309,4.7309,4.7309,4.7309,4.7309,4.7309,4.7309,4.7309,4.7309,4.7309,4.7309,4.7309,4.7309,4.7309,4.7309,4.7309,4.7309,4.7309,4.7309,4.7309,4.7309,4.7309,4.7309,4.7309,4.7324,4.7309,4.7309,4.7309,4.7309,4.7309,4.7309,4.7309,4.7309,4.7294,4.7309,4.7309,4.7309,4.7309,4.7309,4.7309,4.7309,4.7309,4.7309,4.7309,4.7309,4.7309,4.7309,4.7294,4.7294,4.7294,4.7249,4.7055,4.7025,4.7234,4.7294,4.7309,4.7309,4.7309,4.7309,4.7309,4.7309,4.7309,4.7309,4.7309,4.7309,4.7309,4.7309,4.7309,4.7309,4.7309,4.7309,4.7309,4.7309,4.7309,4.7309,4.7309,4.7381,4.7467,4.7452,4.748,4.7493,4.7548,4.746,4.7387,4.7315,4.7315,4.7387,4.7372,4.7415,4.7455,4.7568,4.773,4.7916,4.8083,4.8239,4.8424,4.8625,4.8852,4.9138,4.9385,4.9534,4.9673,5.0274,5.0909,5.1451,5.1966,5.2001,5.2049,5.2402,5.2655,4.5992,4.7055,4.7234,4.7309,4.7309,4.7309,4.7309,4.7309,4.7309,4.7309,4.7309,4.7309,4.7309,4.7309,4.7309,4.7309,4.7309,4.7309,4.7309,4.7309,4.7309,4.7309,4.7309,4.7309,4.7309,4.7324,4.7309,4.7444,4.7578,4.7563,4.7534,4.7324,4.7309,4.7309,4.7309,4.7309,4.7309,4.7309,4.7309,4.7309,4.7309,4.7309,4.7309,4.7309,4.7309,4.7309,4.7309,4.7309,4.7309,4.7309,4.7309,4.7309,4.7309,4.7309,4.7309,4.7294,4.7219,4.7234,4.7294,4.7309,4.7309,4.7309,4.7309,4.7309,4.7309,4.7309,4.7309,4.7309,4.7309,4.7309,4.7309,4.7309,4.7309,4.7309,4.7309,4.7309,4.7339,4.7429,4.7399,4.7309,4.7309,4.7309,4.7352,4.7309,4.7309,4.7309,4.7309,4.7309,4.7309,4.7309,4.7352,4.7381,4.7424,4.7424,4.751,4.7639,4.7837,4.8049,4.816,4.8328,4.8438,4.862,4.8785,4.9072,4.9396,4.9773,5.0023,5.0999,5.1908,5.2059,5.2313,5.2841,5.3146,5.3433,5.3484,4.5723,4.6426,4.704,4.7309,4.7309,4.7309,4.7309,4.7309,4.7309,4.7309,4.7309,4.7309,4.7309,4.7309,4.7324,4.7339,4.7339,4.7309,4.7459,4.7444,4.7339,4.7519,4.7578,4.7578,4.7474,4.7474,4.7608,4.7878,4.8087,4.8222,4.7863,4.7414,4.7653,4.7444,4.7474,4.7668,4.7623,4.7623,4.7608,4.7489,4.7444,4.7384,4.7369,4.7324,4.7309,4.7309,4.7309,4.7309,4.7309,4.7309,4.7309,4.7309,4.7309,4.7309,4.7309,4.7309,4.7309,4.7309,4.7309,4.7309,4.7309,4.7309,4.7309,4.7309,4.7309,4.7309,4.7309,4.7339,4.7414,4.7444,4.7399,4.7354,4.7638,4.7713,4.7833,4.7803,4.7803,4.7698,4.7638,4.7399,4.7369,4.7459,4.7309,4.7309,4.7309,4.7309,4.7309,4.7309,4.7309,4.7309,4.7309,4.7352,4.7309,4.7352,4.7352,4.7525,4.7681,4.788,4.8091,4.8244,4.837,4.8537,4.8702,4.9047,4.9372,4.9876,5.0386,5.1054,5.1651,5.2164,5.2626,5.3007,5.3314,5.3467,5.3518,4.5439,4.5798,4.6845,4.7309,4.7309,4.7309,4.7309,4.7309,4.7309,4.7309,4.7309,4.7309,4.7309,4.7309,4.7339,4.7549,4.7848,4.7908,4.8117,4.8416,4.8521,4.8506,4.8506,4.8446,4.8536,4.8461,4.8476,4.8566,4.885,4.894,4.885,4.8566,4.8521,4.8536,4.8536,4.8386,4.8416,4.8446,4.8431,4.8356,4.7923,4.7863,4.7713,4.7324,4.7309,4.7309,4.7309,4.7309,4.7309,4.7339,4.7369,4.7414,4.7444,4.7429,4.7429,4.7429,4.7444,4.7429,4.7399,4.7369,4.7309,4.7309,4.7309,4.7369,4.7459,4.7354,4.7324,4.7414,4.7728,4.7893,4.7938,4.8267,4.864,4.858,4.8461,4.8431,4.8327,4.8237,4.8117,4.7997,4.7848,4.7803,4.7563,4.7309,4.7309,4.7309,4.7309,4.7309,4.7309,4.7309,4.7309,4.7309,4.7309,4.7309,4.7309,4.7439,4.7525,4.7767,4.8007,4.816,4.8328,4.848,4.8702,4.9006,4.9306,4.9717,5.023,5.0842,5.1466,5.2056,5.2555,5.3007,5.3246,5.3467,5.3518,4.5424,4.5723,4.683,4.7309,4.7309,4.7309,4.7309,4.7309,4.7309,4.7309,4.7309,4.7309,4.7309,4.7339,4.7578,4.7803,4.8237,4.8476,4.888,4.9075,4.9179,4.9299,4.9299,4.9239,4.912,4.9299,4.9329,4.9314,4.9553,4.9553,4.9688,4.9793,4.9808,4.9688,4.9239,4.9314,4.9314,4.9299,4.9254,4.9149,4.8596,4.8551,4.8506,4.8012,4.8012,4.8027,4.8057,4.8087,4.8042,4.8027,4.8012,4.7938,4.7923,4.7908,4.7893,4.7878,4.7878,4.7863,4.7863,4.7683,4.7728,4.8012,4.8027,4.7997,4.7893,4.7878,4.8087,4.8042,4.8371,4.8596,4.8611,4.894,4.909,4.897,4.9,4.8955,4.8985,4.8925,4.876,4.8641,4.8506,4.8476,4.8341,4.8087,4.7713,4.7578,4.7309,4.7309,4.7309,4.7309,4.7309,4.7309,4.7309,4.7309,4.7309,4.7396,4.7482,4.7681,4.7922,4.816,4.8328,4.848,4.8604,4.8826,4.9113,4.9517,5.0034,5.0596,5.1263,5.1931,5.2485,5.3093,5.3314,5.3518,5.3518,4.5663,4.6367,4.7025,4.7309,4.7309,4.7309,4.7309,4.7309,4.7309,4.7309,4.7324,4.7339,4.7399,4.7534,4.8012,4.8416,4.8656,4.9045,4.9419,4.9554,4.9643,4.9479,4.9479,4.9569,4.9673,4.9389,4.9569,4.9898,5.0181,5.0166,5.0511,5.081,5.075,5.0451,4.9449,4.9344,4.9344,4.9344,4.9449,4.9434,4.9269,4.9284,4.9149,4.8985,4.891,4.888,4.8865,4.882,4.885,4.8865,4.891,4.891,4.894,4.897,4.8985,4.9015,4.9075,4.9134,4.9209,4.8611,4.8626,4.8865,4.8805,4.8895,4.9105,4.9149,4.897,4.879,4.9119,4.9239,4.9314,4.9389,4.9509,4.9599,4.9613,4.9643,4.9703,4.9703,4.9613,4.9344,4.9254,4.9269,4.9239,4.9045,4.8386,4.7952,4.7489,4.7369,4.7549,4.7504,4.7563,4.7474,4.7474,4.7309,4.7309,4.7309,4.7396,4.7639,4.7837,4.8118,4.8328,4.8495,4.862,4.8702,4.9031,4.9477,4.9876,5.0363,5.121,5.2076,5.2677,5.3161,5.3365,5.3518,5.3518,4.5693,4.6381,4.704,4.7309,4.7309,4.7309,4.7309,4.7309,4.7309,4.7309,4.7414,4.7713,4.7952,4.8162,4.8626,4.9134,4.9553,4.9703,5.0017,5.0496,5.0466,5.0571,5.0511,5.0421,5.0481,5.0556,5.0586,5.0526,5.09,5.0764,5.0868,5.1184,5.1199,5.099,5.0676,5.0556,5.0586,5.0571,5.0541,5.0391,4.9972,4.9898,4.9733,4.9419,4.9404,4.9434,4.9449,4.9479,4.9479,4.9464,4.9479,4.9449,4.9449,4.9434,4.9404,4.9359,4.9344,4.9494,4.9733,4.9643,4.9449,4.9434,4.9419,4.9449,4.9329,4.9299,4.9299,4.9464,4.9748,4.9853,4.9927,5.0376,5.0586,5.0646,5.069,5.0676,5.0705,5.0676,5.0571,5.0122,4.9898,4.9643,4.9523,4.9673,4.9239,4.903,4.8671,4.8461,4.8551,4.8192,4.8042,4.7833,4.7698,4.7444,4.7339,4.7623,4.7886,4.8157,4.8147,4.8118,4.8328,4.8598,4.8661,4.8759,4.9072,4.9437,4.9995,5.0656,5.1508,5.2272,5.2799,5.3195,5.3433,5.3518,5.3518,4.5828,4.6696,4.7115,4.7309,4.7309,4.7309,4.7309,4.7309,4.7324,4.7414,4.7713,4.8117,4.8431,4.8745,4.9299,4.9733,5.0211,5.048,5.0661,5.1214,5.1199,5.1109,5.1139,5.1229,5.105,5.1229,5.1229,5.1199,5.1154,5.1199,5.1214,5.1199,5.1229,5.1169,5.1124,5.1109,5.1124,5.1079,5.1005,5.0883,5.0614,5.0495,5.0406,5.0152,5.0032,5.0017,4.9957,4.9927,4.9912,4.9898,4.9898,4.9912,4.9912,4.9927,4.9927,4.9942,4.9987,5.0212,5.042,5.051,5.0331,5.0122,4.9942,4.9942,4.9942,5.0077,5.0062,5.0182,5.0346,5.0466,5.0584,5.1154,5.1169,5.1184,5.1184,5.1154,5.1139,5.1079,5.1035,5.0584,5.042,5.0167,4.9972,5.0077,5.0077,5.0017,4.9942,4.9718,4.9479,4.8985,4.8626,4.8461,4.8327,4.8207,4.8147,4.8237,4.8471,4.8665,4.8612,4.8499,4.8642,4.8943,4.8887,4.8857,4.9169,4.9557,5.0269,5.1,5.1749,5.2343,5.2834,5.3161,5.3433,5.3518,5.3518,4.6082,4.7219,4.7309,4.7309,4.7309,4.7309,4.7309,4.7324,4.7354,4.7713,4.8252,4.8356,4.882,4.9359,4.9972,5.0255,5.036,5.0868,5.1109,5.1199,5.1229,5.1229,5.1229,5.1229,5.1229,5.1229,5.1229,5.1229,5.1229,5.1229,5.1229,5.1229,5.1229,5.1229,5.1229,5.1229,5.1229,5.1229,5.1214,5.1139,5.102,5.1079,5.099,5.0855,5.087,5.0885,5.0885,5.0915,5.0975,5.102,5.1065,5.1109,5.1154,5.1199,5.1199,5.1169,5.1079,5.1065,5.1018,5.105,5.1065,5.0855,5.099,5.1139,5.105,5.0855,5.078,5.081,5.096,5.105,5.1214,5.1214,5.1214,5.1214,5.1214,5.1214,5.1214,5.1199,5.1199,5.1079,5.1065,5.0915,5.084,5.0885,5.0646,5.069,5.0571,5.0346,5.0032,4.9583,4.9299,4.9239,4.9134,4.9149,4.909,4.8895,4.9042,4.9257,4.9179,4.9141,4.9227,4.9312,4.9319,4.9331,4.9278,4.9661,5.0525,5.1231,5.1915,5.2449,5.2938,5.3195,5.3467,5.3518,5.3518,4.6082,4.7264,4.7309,4.7309,4.7309,4.7309,4.7309,4.7354,4.7773,4.8162,4.8327,4.9284,4.9688,5.0032,5.0599,5.087,5.099,5.1094,5.1169,5.1229,5.1229,5.1229,5.1229,5.1229,5.1229,5.1229,5.1229,5.1229,5.1229,5.1229,5.1229,5.1229,5.1229,5.1229,5.1229,5.1229,5.1229,5.1229,5.1229,5.1229,5.1229,5.1229,5.1229,5.1229,5.1229,5.1229,5.1229,5.1229,5.1229,5.1229,5.1229,5.1229,5.1229,5.1229,5.1214,5.1214,5.1199,5.1214,5.1229,5.1229,5.1229,5.1229,5.1229,5.1229,5.1214,5.1229,5.1229,5.1229,5.1229,5.1229,5.1229,5.1229,5.1229,5.1229,5.1229,5.1229,5.1229,5.1229,5.1229,5.1229,5.1229,5.1229,5.1229,5.1184,5.099,5.1139,5.1124,5.087,5.0631,5.0197,4.9972,4.9927,4.9793,4.9718,4.9509,4.9299,4.9553,4.976,4.9757,4.9857,5.0082,5.0155,4.992,4.9837,4.9915,5.0264,5.0854,5.154,5.2254,5.2659,5.3127,5.3314,5.3467,5.3467,5.3518,4.6082,4.7234,4.7309,4.7309,4.7309,4.7309,4.7309,4.7429,4.7997,4.8401,4.879,4.9763,5.033,5.0614,5.1005,5.1184,5.1184,5.1184,5.1229,5.1229,5.1229,5.1229,5.1229,5.1229,5.1229,5.1229,5.1229,5.1229,5.1229,5.1229,5.1229,5.1229,5.1229,5.1229,5.1229,5.1229,5.1229,5.1229,5.1229,5.1229,5.1229,5.1229,5.1229,5.1229,5.1229,5.1229,5.1229,5.1229,5.1229,5.1229,5.1229,5.1229,5.1229,5.1229,5.1229,5.1229,5.1229,5.1229,5.1229,5.1229,5.1229,5.1229,5.1229,5.1229,5.1229,5.1229,5.1229,5.1229,5.1229,5.1229,5.1229,5.1229,5.1229,5.1229,5.1229,5.1229,5.1229,5.1229,5.1229,5.1229,5.1229,5.1229,5.1229,5.1229,5.1229,5.1229,5.1229,5.1139,5.1005,5.081,5.0646,5.0616,5.0421,5.0242,4.9987,4.9913,5.0321,5.0547,5.0485,5.0631,5.0951,5.0802,5.0444,5.0474,5.0626,5.0969,5.1295,5.1927,5.2567,5.2957,5.3226,5.3398,5.3518,5.3467,5.3518,4.6127,4.7309,4.7309,4.7309,4.7309,4.7309,4.7309,4.7399,4.8102,4.8745,4.9284,4.9971,5.0644,5.1035,5.1214,5.1229,5.1229,5.1229,5.1229,5.1229,5.1229,5.1229,5.1229,5.1229,5.1229,5.1229,5.1229,5.1229,5.1229,5.1229,5.1229,5.1229,5.1229,5.1229,5.1229,5.1229,5.1229,5.1229,5.1229,5.1229,5.1229,5.1229,5.1229,5.1229,5.1229,5.1229,5.1229,5.1229,5.1229,5.1229,5.1229,5.1229,5.1229,5.1229,5.1229,5.1229,5.1229,5.1229,5.1229,5.1229,5.1229,5.1229,5.1229,5.1229,5.1229,5.1229,5.1229,5.1229,5.1229,5.1229,5.1229,5.1229,5.1229,5.1229,5.1229,5.1229,5.1229,5.1229,5.1229,5.1229,5.1229,5.1229,5.1229,5.1229,5.1229,5.1229,5.1229,5.1229,5.1199,5.1139,5.1109,5.1079,5.09,5.072,5.078,5.0828,5.1208,5.1394,5.1243,5.1392,5.1642,5.1344,5.0907,5.1033,5.1226,5.1398,5.1734,5.2371,5.291,5.3208,5.3417,5.3514,5.3618,5.3805,5.3619,4.6546,4.7279,4.7309,4.7309,4.7309,4.7309,4.7309,4.7429,4.8595,4.9134,4.9509,5.0391,5.1035,5.1184,5.1229,5.1229,5.1229,5.1229,5.1229,5.1229,5.1229,5.1229,5.1229,5.1229,5.1229,5.1229,5.1229,5.1229,5.1229,5.1229,5.1229,5.1229,5.1229,5.1229,5.1229,5.1244,5.1319,5.1349,5.1454,5.1454,5.1439,5.1289,5.1229,5.1229,5.1229,5.1229,5.1229,5.1229,5.1229,5.1229,5.1229,5.1229,5.1229,5.1229,5.1229,5.1229,5.1229,5.1229,5.1229,5.1229,5.1229,5.1229,5.1229,5.1229,5.1229,5.1229,5.1229,5.1229,5.1229,5.1229,5.1229,5.1229,5.1229,5.1229,5.1229,5.1229,5.1229,5.1229,5.1229,5.1229,5.1229,5.1229,5.1229,5.1229,5.1229,5.1229,5.1229,5.1229,5.1229,5.1184,5.1184,5.1169,5.1184,5.1109,5.1229,5.1276,5.1509,5.1756,5.1653,5.1941,5.2332,5.1959,5.1539,5.1599,5.1782,5.1926,5.2241,5.2849,5.3297,5.3494,5.3903,5.411,5.456,5.4816,5.4278,4.6711,4.7279,4.7309,4.7309,4.7309,4.7309,4.7309,4.7549,4.8701,4.9299,4.9494,5.0556,5.1229,5.1229,5.1229,5.1229,5.1229,5.1229,5.1229,5.1229,5.1229,5.1229,5.1229,5.1229,5.1229,5.1229,5.1229,5.1229,5.1274,5.1229,5.1229,5.1274,5.1274,5.1289,5.1257,5.1454,5.1648,5.1678,5.1872,5.2007,5.1887,5.1633,5.1289,5.1229,5.1244,5.1259,5.1229,5.1229,5.1229,5.1229,5.1229,5.1229,5.1229,5.1229,5.1229,5.1229,5.1229,5.1229,5.1229,5.1229,5.1229,5.1229,5.1229,5.1229,5.1229,5.1229,5.1229,5.1229,5.1229,5.1229,5.1229,5.1229,5.1229,5.1229,5.1229,5.1229,5.1229,5.1229,5.1229,5.1229,5.1229,5.1229,5.1229,5.1229,5.1229,5.1229,5.1229,5.1229,5.1229,5.1229,5.1229,5.1229,5.1229,5.1229,5.1229,5.1323,5.1463,5.171,5.1987,5.2246,5.241,5.2315,5.2202,5.2178,5.2269,5.2399,5.2754,5.323,5.3519,5.3721,5.4258,5.4781,5.5252,5.5673,5.5239,4.68,4.7279,4.7309,4.7309,4.7309,4.7309,4.7309,4.7534,4.8686,4.9299,4.9494,5.0661,5.1154,5.1229,5.1229,5.1229,5.1229,5.1229,5.1229,5.1229,5.1229,5.1229,5.1229,5.1229,5.1229,5.1229,5.1229,5.1349,5.1468,5.1468,5.1513,5.1454,5.1468,5.1498,5.1633,5.1947,5.2321,5.2426,5.2636,5.2995,5.265,5.2127,5.1798,5.1558,5.1454,5.1468,5.1483,5.1498,5.1513,5.1468,5.1528,5.1334,5.1244,5.1229,5.1229,5.1229,5.1229,5.1229,5.1229,5.1229,5.1229,5.1229,5.1229,5.1229,5.1229,5.1229,5.1229,5.1229,5.1229,5.1229,5.1229,5.1229,5.1229,5.1229,5.1229,5.1229,5.1229,5.1229,5.1229,5.1229,5.1229,5.1229,5.1229,5.1229,5.1229,5.1229,5.1229,5.1229,5.1229,5.1229,5.1229,5.1229,5.1229,5.1229,5.1229,5.1276,5.1369,5.1756,5.2033,5.2307,5.2503,5.2439,5.2483,5.262,5.2717,5.2745,5.3036,5.3396,5.3689,5.4046,5.4739,5.5376,5.5863,5.6149,5.6094,4.7189,4.7309,4.7309,4.7309,4.7309,4.7309,4.7309,4.7534,4.8686,4.9299,4.9644,5.0541,5.1229,5.1229,5.1229,5.1229,5.1229,5.1229,5.1229,5.1229,5.1229,5.1229,5.1274,5.1349,5.1259,5.1304,5.1439,5.1588,5.1932,5.2037,5.2261,5.2636,5.2695,5.2725,5.277,5.298,5.3025,5.3114,5.3174,5.3414,5.3324,5.298,5.2905,5.28,5.2815,5.2815,5.2815,5.2815,5.2815,5.2665,5.2276,5.1828,5.1603,5.1468,5.1439,5.1394,5.1379,5.1274,5.1289,5.1229,5.1229,5.1229,5.1229,5.1229,5.1229,5.1229,5.1229,5.1229,5.1229,5.1229,5.1229,5.1229,5.1229,5.1229,5.1229,5.1229,5.1229,5.1229,5.1229,5.1229,5.1229,5.1229,5.1229,5.1229,5.1229,5.1229,5.1229,5.1229,5.1229,5.1229,5.1229,5.1229,5.1229,5.1229,5.1229,5.1214,5.1354,5.1741,5.2078,5.2352,5.2533,5.2669,5.2713,5.2729,5.2893,5.3017,5.3302,5.3533,5.4108,5.4552,5.5341,5.5984,5.6412,5.6711,5.6713]}]]